GFSCGP_sfc_thetae_000.txt.gz
Theta_e
290 287 286 289 288 288 283 283 283 286 290 286 289 290 292 293 293 295 296 296 296 298 300 300 297 295 294 292 293 293 291 294 295 294 291 290 291 290 290 290 290 289 289 288
287 285 291 290 288 287 285 285 286 289 291 286 287 288 292 293 294 295 295 296 296 297 298 299 294 292 292 293 292 292 291 292 294 294 294 291 293 290 291 289 287 288 287 287
288 290 292 289 286 286 284 283 286 285 286 286 284 285 286 290 290 293 294 296 294 294 296 298 292 292 291 290 290 292 291 291 293 293 291 285 284 284 284 284 286 285 287 286
287 290 290 286 286 287 285 288 288 286 282 280 284 280 283 288 289 290 292 291 292 293 293 293 292 291 292 292 291 291 290 290 292 292 290 289 289 288 289 290 289 287 286 286
286 285 285 285 288 288 287 288 286 283 281 280 280 278 283 284 286 289 291 292 291 292 292 292 292 292 292 291 289 289 289 289 291 291 291 290 290 290 285 286 287 286 284 285
287 287 288 289 288 289 287 285 283 281 281 276 282 280 286 283 285 287 291 295 292 292 292 292 291 290 290 288 287 287 287 288 289 290 290 290 290 284 285 283 285 284 283 283
284 285 286 288 285 285 285 282 276 274 273 276 280 278 286 289 292 290 290 291 291 291 290 290 291 290 289 286 285 285 286 286 287 288 288 289 289 286 286 285 286 284 283 283
282 285 285 287 287 285 283 284 278 274 272 280 278 278 288 291 291 291 289 290 289 290 290 290 291 289 288 287 285 286 286 285 285 287 287 287 287 287 287 285 286 285 285 285
281 282 285 286 286 287 282 281 286 281 283 277 283 284 289 293 288 287 287 288 289 291 290 291 291 289 288 287 286 285 285 286 285 286 286 286 286 286 285 283 284 284 285 284
288 283 287 285 285 286 285 286 280 279 275 274 279 281 284 289 292 290 289 288 292 291 290 290 292 291 289 287 286 285 285 285 285 285 287 287 287 287 286 284 284 283 284 282
288 287 285 285 283 285 284 282 282 282 282 278 277 282 290 292 293 288 289 291 291 288 288 289 290 291 291 290 288 286 285 285 284 284 285 285 284 285 285 284 284 284 283 282
289 290 285 286 288 288 286 287 286 281 280 281 281 281 292 291 292 289 285 286 287 287 286 288 288 289 289 290 292 291 288 286 286 285 285 284 285 284 283 284 284 283 282 281
293 287 281 282 284 286 285 288 288 288 285 281 278 280 293 290 282 284 282 281 283 284 285 286 287 288 288 289 290 289 290 289 288 288 285 284 284 283 284 285 284 283 283 282
294 287 285 280 282 286 285 287 288 287 282 282 282 284 288 279 279 279 281 280 281 282 283 285 286 287 288 289 289 289 288 288 288 287 285 285 284 284 286 286 285 283 283 282
290 284 286 286 288 286 284 283 283 281 283 280 282 283 281 275 277 278 281 281 281 281 283 285 286 287 288 288 288 288 288 287 287 286 286 286 286 284 285 285 285 282 282 282
288 280 281 277 281 280 279 281 281 282 281 282 282 279 277 278 280 279 280 280 279 281 284 286 285 288 286 286 286 286 287 287 286 285 285 286 286 285 283 284 284 281 281 281
282 280 277 273 278 277 272 277 279 280 282 278 275 273 275 275 277 277 279 281 279 280 282 285 284 284 284 285 287 285 286 286 285 284 285 284 283 283 284 282 281 281 280 281
279 277 274 273 270 266 275 278 279 277 276 277 275 273 275 276 277 279 282 279 279 281 283 283 282 281 282 283 284 284 286 284 284 283 283 283 282 281 281 279 280 279 279 279
281 278 268 267 262 271 275 275 274 274 274 276 276 278 278 278 277 275 279 280 280 280 283 281 280 280 281 281 282 283 280 282 283 283 283 282 281 279 279 277 277 278 279 279
277 279 275 265 264 258 272 276 278 277 267 272 275 275 276 275 269 272 278 279 280 282 280 278 277 278 278 279 281 278 278 279 279 281 282 281 279 277 276 275 274 276 278 278
259 258 264 261 259 263 271 274 276 262 265 270 274 276 275 273 274 277 279 277 278 278 276 276 276 275 276 279 277 275 276 276 277 277 277 281 280 277 276 277 273 274 275 274
267 260 256 254 254 257 275 273 268 271 274 274 275 278 277 277 278 278 277 276 276 275 275 275 274 274 275 275 274 273 273 274 274 275 275 277 279 278 276 275 274 274 274 273
264 269 262 265 264 275 277 275 279 277 274 276 277 279 278 277 277 276 274 275 275 274 274 274 272 272 273 273 272 270 271 271 271 271 272 273 275 279 276 275 274 273 273 272
271 274 271 271 274 275 277 279 278 278 278 278 278 278 277 276 275 273 273 273 273 273 272 272 270 269 269 271 270 269 269 268 267 267 267 269 270 273 276 274 275 273 272 272
273 272 270 271 275 276 277 278 279 279 278 276 276 275 274 273 272 272 271 271 271 271 270 270 269 268 267 268 267 267 266 265 264 264 265 265 268 269 274 274 274 273 275 275
275 273 271 269 276 275 276 279 277 276 275 273 272 271 272 272 270 270 269 269 269 268 268 267 266 265 265 264 263 263 263 262 261 261 262 263 265 267 270 273 273 277 278 278

GFSCGP_sfc_thetae_003.txt.gz
Theta_e
291 287 286 289 288 287 285 283 282 285 289 287 289 289 291 294 292 294 296 297 297 297 300 299 299 299 298 296 296 297 295 300 304 304 301 298 298 300 297 298 297 295 295 293
287 286 291 290 288 287 286 284 285 287 290 286 287 288 292 294 294 295 296 296 295 295 298 298 296 297 296 296 295 295 294 296 300 302 302 300 300 299 298 296 295 295 294 293
287 289 291 289 286 286 284 284 286 285 286 286 284 284 286 291 291 293 294 294 294 294 294 295 295 295 296 295 294 294 294 294 298 299 298 290 291 289 291 290 291 292 292 292
287 290 289 286 287 287 284 288 287 285 283 280 285 279 284 289 290 291 292 292 292 293 294 293 292 295 293 294 294 293 293 292 295 296 295 295 294 292 292 294 293 291 291 291
287 287 285 285 288 288 286 287 285 284 282 281 281 278 283 286 287 289 291 293 293 293 293 294 293 293 292 291 291 292 292 291 294 294 295 294 294 294 291 293 292 290 289 290
287 288 288 288 287 288 287 285 283 282 282 277 282 281 283 284 287 288 291 294 292 293 293 295 293 292 292 290 289 290 290 289 291 292 293 293 293 291 290 290 290 289 288 288
284 285 286 287 285 285 286 283 277 275 274 276 280 279 284 288 292 290 292 291 291 292 292 293 292 291 291 290 289 288 288 288 289 290 291 292 292 290 290 290 290 288 287 286
283 285 286 287 288 285 283 284 280 274 275 280 278 280 288 290 292 291 289 289 291 290 290 290 290 291 291 291 290 288 287 287 288 288 289 289 290 290 289 289 289 288 288 288
282 281 284 285 286 288 282 281 286 281 280 279 283 285 291 294 289 288 287 285 285 286 287 288 289 290 291 291 290 289 288 288 288 287 287 288 288 288 288 287 288 289 289 288
288 284 286 286 286 285 285 286 280 279 273 274 280 282 284 289 285 283 283 282 283 284 285 287 288 289 290 291 291 291 290 289 288 288 287 287 288 288 288 286 286 286 287 286
287 286 285 286 283 283 282 281 282 282 281 277 276 281 289 281 281 281 280 280 281 282 284 285 287 289 289 290 290 289 290 289 289 289 289 287 287 287 287 285 285 286 286 285
289 288 281 284 289 287 286 286 287 281 280 280 282 281 281 280 280 280 277 279 281 282 284 285 286 288 289 289 289 288 289 288 288 289 289 289 288 286 285 286 286 286 285 284
292 285 279 280 284 286 285 286 287 287 285 281 278 281 282 279 279 280 281 280 280 282 283 285 286 286 288 288 288 288 287 288 288 288 287 288 288 288 287 286 287 285 285 284
294 287 285 279 280 284 283 284 286 285 281 281 282 284 285 277 277 278 280 281 280 281 282 284 285 285 287 286 286 287 287 288 287 287 286 286 286 287 287 287 287 287 285 285
289 283 285 285 286 284 282 281 280 278 280 277 280 279 284 274 276 278 279 282 280 279 281 282 285 283 284 284 284 286 286 287 287 286 285 285 286 286 286 286 286 287 285 285
286 281 279 274 280 280 278 279 280 279 279 280 280 280 276 278 278 277 277 281 279 278 280 282 285 282 283 282 283 284 284 285 285 285 284 285 285 284 284 285 284 284 285 284
282 280 276 274 277 276 272 275 278 278 280 278 275 273 273 274 276 276 276 281 278 278 279 280 283 281 281 281 281 281 282 284 282 283 284 284 284 283 282 283 283 282 283 284
280 277 277 273 268 266 275 276 279 277 275 274 272 271 274 276 279 279 280 280 277 279 280 280 282 280 279 280 280 280 282 280 280 281 281 282 280 280 281 281 281 281 282 282
281 277 267 267 264 271 274 275 274 274 272 275 273 274 276 278 277 276 278 278 278 279 280 281 280 279 278 278 278 278 279 278 278 278 278 278 278 277 279 279 280 280 279 280
277 278 274 260 261 256 270 276 278 275 265 272 271 271 272 275 269 273 277 278 279 279 280 279 277 276 276 276 277 277 276 274 275 276 276 276 275 276 279 279 279 279 278 279
259 261 270 269 268 265 270 273 276 262 265 271 272 274 274 273 276 278 278 278 278 278 278 277 275 274 274 275 274 274 273 272 274 274 273 272 273 273 275 276 278 278 277 277
267 259 254 253 256 260 273 273 268 271 275 274 275 276 276 277 279 279 278 278 277 276 276 276 274 274 274 274 273 272 271 273 271 270 269 269 269 270 272 273 275 277 276 276
265 269 263 265 264 274 276 275 278 279 276 277 276 277 277 278 278 278 276 275 275 275 275 274 272 271 272 272 271 269 270 270 268 266 265 265 266 267 268 269 271 275 276 274
271 273 270 271 274 275 277 279 279 278 277 278 278 277 277 277 276 274 273 274 273 273 272 271 269 268 268 269 269 267 267 266 264 262 262 263 263 264 265 267 270 272 275 275
273 272 270 271 275 276 277 278 279 279 278 277 275 275 274 273 272 272 271 271 271 270 269 268 267 266 265 265 264 264 263 262 260 260 260 260 261 261 263 265 267 270 275 276
276 273 271 270 276 275 276 279 277 277 276 273 272 271 272 272 270 270 268 268 268 267 266 264 263 262 261 261 260 260 260 259 258 258 258 258 259 260 261 262 264 270 274 278

GFSCGP_sfc_thetae_006.txt.gz
Theta_e
298 296 294 298 298 298 294 293 292 295 298 295 294 295 297 299 300 300 301 302 303 304 305 306 306 306 306 307 306 306 306 308 313 313 313 314 314 314 314 314 312 310 307 304
295 293 299 297 295 294 294 291 292 296 297 293 294 293 297 299 299 301 301 301 302 302 303 303 303 303 302 302 303 303 304 304 309 311 312 313 312 312 312 312 310 309 307 303
295 298 298 295 295 292 293 291 292 292 294 295 292 294 295 299 298 299 300 301 301 300 300 300 299 299 299 298 299 300 302 302 304 308 309 309 304 305 307 307 307 305 305 303
294 295 293 293 292 294 290 296 293 291 290 289 292 287 295 297 297 298 299 300 300 299 299 298 297 297 296 296 297 298 299 299 300 304 304 304 302 300 302 302 303 303 303 302
294 292 291 291 293 294 292 292 290 289 289 288 290 286 294 294 293 296 298 297 298 297 296 295 296 296 296 297 297 296 297 297 298 299 301 301 301 302 302 300 301 301 301 300
294 294 294 295 293 293 292 291 290 289 289 285 290 288 291 293 294 295 295 294 294 294 295 295 296 296 296 296 295 295 295 294 295 297 298 298 298 299 299 297 298 299 298 297
294 292 293 293 292 292 291 290 287 285 285 284 289 286 290 295 293 293 292 291 292 293 293 293 293 293 294 294 294 294 294 293 294 294 295 295 296 297 297 297 297 297 296 295
290 289 292 293 294 295 291 291 287 280 282 286 284 284 292 295 292 291 291 290 290 290 292 292 293 293 293 293 293 293 293 292 293 293 293 294 294 294 295 296 296 296 296 296
292 291 291 291 292 293 289 286 292 286 286 283 287 291 296 296 290 289 288 288 287 288 289 290 292 293 292 292 292 292 291 291 293 293 293 293 293 293 293 293 294 294 295 295
293 288 295 293 291 292 290 293 286 286 279 278 283 286 288 291 288 287 285 285 286 287 288 288 290 291 292 292 292 292 292 290 291 292 292 293 293 293 292 292 292 292 293 293
295 292 291 291 291 290 289 286 286 286 285 279 279 284 291 288 286 284 283 284 285 286 287 288 289 291 291 291 291 290 290 290 289 290 290 291 292 292 292 291 292 291 291 291
295 289 285 289 295 293 292 290 290 284 282 285 283 283 287 286 284 283 281 282 283 285 285 287 289 288 290 289 289 289 289 289 289 289 289 289 289 289 289 290 291 291 291 291
295 288 283 285 288 290 288 290 290 290 287 283 280 282 286 285 284 283 284 283 283 284 283 285 288 287 287 287 287 287 288 287 288 288 288 288 287 287 287 287 289 290 290 289
294 289 286 281 285 289 285 287 289 288 282 283 283 285 290 287 285 284 283 283 284 283 282 283 286 286 286 286 286 286 286 286 287 286 287 286 287 287 286 285 286 287 288 289
291 284 286 287 288 288 287 286 286 284 284 279 283 283 287 290 285 282 281 281 283 280 281 282 283 286 285 285 284 285 285 285 286 284 285 285 287 287 286 285 285 286 286 286
289 282 284 280 285 285 282 284 285 283 283 282 282 281 288 281 281 280 280 280 282 280 281 282 283 284 285 284 283 283 283 284 285 283 283 284 285 285 283 283 283 284 284 285
284 282 280 276 282 280 275 279 281 282 284 283 278 281 280 278 279 280 280 280 282 280 281 282 283 283 285 284 282 282 282 283 284 282 282 282 283 282 281 281 282 283 282 284
281 281 280 275 277 269 280 282 282 280 282 279 277 277 279 279 280 282 282 281 282 281 282 282 283 283 285 284 282 282 282 281 282 281 280 281 281 279 279 278 279 282 282 282
284 281 276 272 272 276 278 280 279 277 278 280 279 278 278 280 281 280 283 283 283 283 283 284 284 283 283 281 281 280 280 279 280 279 279 279 279 277 276 274 276 279 280 281
279 281 276 269 267 265 275 278 280 279 272 279 278 278 278 278 273 277 283 283 283 283 284 283 282 281 280 280 279 278 277 277 276 277 277 278 277 274 273 274 274 276 278 279
271 272 271 272 270 273 278 278 280 269 272 280 279 279 279 277 279 282 283 283 283 283 282 281 281 279 279 279 278 275 275 274 276 276 275 274 274 272 272 272 273 273 274 275
271 270 268 266 266 265 278 277 273 278 281 281 280 280 279 280 281 281 282 283 283 281 280 280 278 277 277 276 275 273 272 274 273 272 270 270 269 269 269 268 269 269 270 271
270 274 272 271 272 278 280 280 281 282 281 281 281 282 281 280 280 281 281 281 279 278 277 277 274 273 273 273 272 270 270 270 268 267 265 265 265 266 266 265 266 267 268 269
276 278 273 274 277 278 280 282 282 282 282 282 282 281 281 279 280 279 278 277 276 275 273 273 271 269 268 269 268 267 267 266 264 262 262 262 262 262 263 264 265 265 266 267
276 276 274 274 277 278 280 281 282 282 283 282 281 279 278 277 276 275 274 273 272 271 270 269 267 266 265 266 265 264 264 263 261 260 261 261 261 261 261 262 263 264 265 267
278 275 273 272 278 278 278 282 283 280 280 278 276 274 273 272 272 271 270 270 268 267 267 265 264 263 263 262 262 262 262 261 260 260 260 260 260 261 261 261 261 265 267 269

GFSCGP_sfc_thetae_009.txt.gz
Theta_e
302 297 295 299 301 300 298 296 295 298 302 299 297 297 299 303 303 304 305 304 304 303 304 303 303 302 302 303 303 305 306 309 311 315 316 318 319 320 321 321 321 319 316 313
297 294 300 302 298 297 297 295 294 298 300 296 296 296 299 302 302 303 302 303 302 302 301 301 301 301 300 299 300 301 303 306 307 312 314 315 316 318 318 319 318 316 315 311
296 300 302 299 297 295 295 294 294 294 297 298 296 294 299 302 303 302 301 302 301 298 298 299 299 298 299 298 299 298 300 302 304 308 310 311 311 307 308 312 314 313 312 311
298 300 296 295 294 296 292 298 296 294 292 290 295 287 295 300 300 299 299 299 297 298 298 298 297 297 297 297 299 298 299 298 300 304 305 305 305 303 305 305 308 309 310 309
296 294 294 293 295 297 295 295 293 293 292 291 292 289 294 298 296 296 297 296 297 297 296 296 296 297 297 297 297 298 298 297 298 299 300 300 301 302 304 303 302 304 306 306
296 297 296 297 297 296 295 293 294 294 292 286 292 291 291 294 295 294 295 295 295 296 296 296 297 297 296 297 296 297 296 296 297 297 297 296 297 297 299 300 300 301 302 303
297 296 297 296 294 295 293 291 287 287 287 285 294 289 292 297 295 296 294 293 294 295 295 295 295 294 294 294 295 294 294 294 296 296 295 295 295 295 295 296 297 298 299 300
291 289 296 296 295 294 295 294 288 282 284 288 289 287 292 295 294 294 293 292 292 292 293 293 294 293 293 293 293 294 293 292 293 294 295 296 295 295 295 295 295 296 297 298
291 291 296 295 296 295 292 288 293 285 287 284 288 293 297 293 292 291 290 290 290 290 291 291 293 293 292 292 292 292 292 291 291 291 293 293 293 294 294 294 294 294 294 294
295 288 296 294 294 295 294 297 287 286 278 278 285 287 288 294 292 290 289 289 289 290 290 291 291 292 292 292 292 292 291 290 290 290 290 291 291 291 291 293 293 293 293 293
295 292 291 295 292 290 290 288 289 289 286 280 279 284 294 292 292 290 288 287 287 288 288 289 290 290 291 290 290 290 289 289 288 289 289 289 289 289 289 288 289 290 291 292
296 290 286 289 295 297 294 291 291 284 282 285 283 283 297 291 291 288 286 286 286 287 285 286 289 288 288 288 288 288 288 288 288 287 288 288 288 288 287 286 286 288 288 290
295 288 282 284 289 292 290 291 291 291 288 283 280 283 293 289 287 288 288 286 286 286 284 285 287 287 286 286 286 286 286 286 287 287 287 287 287 287 286 285 285 286 286 287
296 289 285 281 284 289 286 288 290 288 283 283 284 286 291 291 289 291 289 288 287 286 283 284 285 286 287 286 286 285 285 286 286 286 285 285 286 286 286 285 285 284 285 285
293 284 286 287 288 288 286 285 285 284 285 281 284 284 288 290 290 290 291 286 284 284 282 283 283 284 286 286 285 285 285 285 285 284 285 284 285 285 285 284 283 283 284 285
290 282 284 280 284 284 281 284 284 285 285 285 285 283 290 289 285 284 284 282 282 284 282 283 283 284 284 285 286 284 284 285 285 283 283 283 283 283 283 282 281 281 281 283
284 282 279 274 280 280 276 280 282 283 285 284 279 282 282 282 282 282 283 283 281 283 283 282 283 284 284 285 285 284 283 284 283 282 282 282 281 281 281 281 280 279 279 280
281 280 280 275 276 268 279 285 283 280 281 283 282 280 280 280 281 282 283 283 282 283 283 283 284 284 285 285 284 283 283 282 281 280 280 281 280 279 280 279 278 277 278 278
284 281 275 272 272 276 279 281 280 278 278 283 281 279 279 280 281 281 284 285 284 284 285 285 285 284 284 283 283 281 280 279 279 278 278 278 278 277 277 276 275 275 275 275
280 282 277 275 269 266 276 280 281 280 272 283 280 279 279 279 274 278 284 284 284 284 285 285 284 283 282 282 281 278 277 276 276 276 276 276 276 275 274 274 273 274 273 273
273 275 273 273 271 274 282 280 281 270 274 282 281 280 280 277 280 283 285 284 285 285 285 283 283 281 280 280 277 275 275 273 274 274 273 272 272 271 271 270 271 270 269 270
273 272 271 271 268 266 280 279 274 279 283 282 281 281 281 282 282 283 283 283 284 283 282 281 279 278 278 276 274 272 271 272 271 269 268 267 266 266 267 265 265 265 265 265
271 275 273 274 273 280 281 281 283 284 283 282 282 283 282 282 281 282 282 282 281 280 278 277 274 273 273 272 271 269 269 269 267 265 263 263 263 263 263 262 262 262 263 263
278 280 275 275 277 279 281 283 284 284 283 283 284 283 283 281 281 281 281 279 277 276 274 273 271 269 268 269 269 267 267 266 263 262 262 262 261 262 262 262 262 261 261 261
279 278 276 275 278 280 281 282 283 283 284 283 283 283 281 280 279 278 277 274 274 272 271 270 268 267 266 267 266 265 264 263 261 261 261 261 261 261 261 262 262 262 263 263
279 277 275 273 279 279 280 283 284 282 282 282 281 279 276 275 274 273 272 272 270 269 268 266 265 265 264 264 263 263 263 262 260 259 259 259 259 260 260 260 260 265 267 268

GFSCGP_sfc_thetae_012.txt.gz
Theta_e
299 293 290 294 296 296 294 292 291 293 298 294 293 293 295 299 300 297 294 296 297 296 298 298 297 297 296 296 296 298 299 301 303 308 309 310 311 313 315 316 315 316 312 310
294 290 297 299 298 295 293 290 290 294 297 292 293 292 296 298 299 296 296 295 295 295 296 296 295 295 295 295 294 295 296 298 301 305 306 307 305 307 308 314 313 313 312 309
293 297 300 297 295 294 293 290 290 291 294 292 291 289 293 298 298 297 297 296 295 294 293 293 293 293 293 293 294 294 295 295 297 299 303 304 303 301 301 302 306 310 310 308
295 299 296 294 293 293 289 294 293 292 288 284 291 282 290 295 292 294 294 292 292 292 293 294 292 292 292 292 293 294 295 295 295 296 296 295 296 296 299 299 299 300 305 305
294 292 291 291 293 295 292 292 290 289 287 286 287 283 288 292 289 291 292 292 292 292 292 292 292 292 292 292 292 292 293 294 294 294 293 292 292 293 294 295 295 296 299 301
294 293 293 294 295 294 293 291 290 288 287 280 287 287 286 288 290 289 291 291 292 292 292 292 293 292 291 291 290 290 291 292 292 293 292 291 290 290 290 291 291 293 294 296
292 292 293 294 290 291 290 288 281 279 278 279 288 284 288 290 292 292 290 289 290 291 290 290 289 289 290 289 290 290 288 288 290 290 290 291 290 290 290 290 290 289 290 292
288 286 293 293 292 290 291 290 283 277 276 279 286 281 288 291 291 291 290 289 289 288 289 289 289 288 288 289 288 288 287 287 287 288 288 289 289 290 290 290 290 289 289 289
288 288 292 294 294 293 289 286 291 282 279 278 283 288 292 290 288 288 287 287 286 287 287 287 289 288 287 287 287 287 286 286 286 286 286 286 286 286 286 287 288 288 289 290
293 286 294 291 292 291 290 294 284 284 277 273 280 282 285 287 287 287 286 285 286 287 286 287 286 288 286 286 287 286 286 285 285 285 286 286 285 285 284 284 284 285 286 287
293 291 288 292 290 289 288 285 289 288 283 275 275 279 288 288 289 286 286 286 285 285 284 285 285 285 285 285 285 284 284 284 284 284 285 284 284 285 284 283 283 284 284 285
293 289 282 286 292 294 290 289 288 282 280 283 282 281 294 290 288 288 285 285 284 285 282 283 285 283 284 284 283 283 283 283 284 284 283 284 284 284 283 283 283 282 284 285
293 285 279 279 285 288 287 288 288 287 284 280 278 279 291 286 285 286 286 284 285 285 283 282 282 283 282 282 282 281 282 282 284 283 282 282 282 281 281 281 281 281 282 283
295 287 281 276 280 285 282 285 286 285 281 280 280 282 287 289 290 291 288 287 285 285 283 281 281 281 281 282 281 281 281 282 282 281 281 280 280 280 281 281 281 280 280 280
291 279 283 284 286 285 283 282 283 281 282 279 280 280 284 286 284 282 285 285 283 284 281 281 280 281 280 281 282 282 281 281 281 280 279 279 280 280 280 279 279 279 278 279
288 275 279 274 281 281 279 280 281 281 281 280 281 280 286 282 282 282 283 282 280 280 282 281 281 281 281 281 282 283 282 281 280 279 278 280 280 280 279 279 279 279 278 277
280 275 269 271 277 276 269 276 278 280 282 281 277 278 277 278 280 279 279 280 280 279 280 280 281 281 282 281 282 281 280 279 277 276 276 277 277 278 278 278 278 278 277 277
279 273 271 266 267 261 275 281 279 278 278 278 277 273 276 277 278 279 280 280 280 280 281 281 281 281 281 281 280 279 279 277 277 276 275 275 276 276 276 276 275 276 276 275
282 279 274 265 264 272 276 278 276 274 273 277 276 277 276 277 277 276 280 281 279 280 281 281 281 281 280 279 278 277 276 276 276 275 275 275 274 273 273 272 272 273 272 272
278 280 275 264 263 258 272 277 279 278 268 273 274 272 274 276 269 273 280 281 281 281 281 280 279 279 278 276 275 275 274 272 272 273 273 272 271 269 269 269 269 269 268 269
264 265 268 269 267 267 275 276 278 264 269 275 275 276 276 273 276 278 280 280 281 280 280 279 278 277 276 274 273 272 271 270 271 270 269 268 267 266 265 265 265 265 264 265
269 264 262 262 259 261 276 275 271 274 279 278 279 278 278 278 279 279 279 279 279 279 278 276 275 274 273 273 271 269 268 270 268 267 265 264 263 263 264 262 262 262 261 261
266 272 266 269 268 277 278 277 280 280 277 279 279 280 279 278 278 278 278 278 278 276 275 274 270 270 271 268 267 266 267 267 265 263 261 261 262 262 262 261 260 260 261 260
274 276 271 271 275 276 279 280 280 280 279 279 279 279 279 278 278 278 278 276 275 273 271 270 267 265 265 265 267 263 265 264 262 260 260 261 260 260 260 261 261 260 260 259
275 275 272 272 276 278 279 279 280 281 281 279 279 279 279 278 277 276 274 272 272 271 269 267 265 265 264 265 264 261 263 261 260 260 260 260 260 259 259 259 259 260 261 262
278 276 273 272 278 277 278 280 280 279 279 279 278 277 276 275 275 273 271 271 270 268 267 265 263 263 262 260 261 261 258 258 259 259 259 259 259 259 259 259 259 264 266 268

GFSCGP_sfc_thetae_015.txt.gz
Theta_e
294 289 286 290 291 291 289 288 287 290 295 291 292 291 294 296 296 293 292 292 293 292 294 294 294 293 293 293 294 294 295 297 300 304 305 307 308 309 313 316 316 316 316 315
290 287 293 294 294 293 290 288 287 291 294 291 291 290 293 296 295 293 292 291 292 292 292 293 292 292 292 292 292 293 293 294 296 299 301 302 300 301 306 307 311 312 312 312
289 293 296 294 292 291 289 288 287 288 291 290 288 287 291 294 293 293 293 293 292 291 290 290 290 290 290 290 290 292 293 293 293 294 296 297 298 298 298 302 303 303 307 308
290 295 294 292 291 292 287 292 291 290 286 283 289 280 287 291 290 290 290 289 290 290 290 290 289 289 289 289 289 291 292 293 293 293 292 291 291 290 292 294 294 295 298 303
291 290 289 289 291 293 290 291 288 287 285 284 284 281 285 289 287 288 288 289 289 289 289 289 289 290 290 289 288 288 291 291 292 292 291 291 289 289 289 290 290 291 293 295
291 291 291 292 292 292 292 289 288 287 285 278 284 284 283 285 288 287 288 289 289 289 289 289 290 290 289 288 287 287 288 289 290 290 289 289 289 289 289 289 289 289 290 291
290 290 291 292 288 290 289 286 281 278 276 278 285 282 286 288 289 289 288 287 288 288 287 287 287 287 287 286 286 287 286 286 287 287 287 287 287 287 287 287 287 287 288 288
286 284 290 292 291 289 287 289 283 277 275 277 284 280 286 287 288 288 288 287 288 288 288 287 287 286 286 286 285 285 285 285 285 285 285 285 285 285 285 285 285 286 286 287
288 287 291 292 292 294 288 285 289 282 275 276 282 285 287 288 286 286 286 286 285 286 286 287 286 286 286 285 284 284 284 283 284 284 284 284 284 283 282 282 283 283 284 286
290 284 292 290 291 291 290 293 283 283 272 270 278 280 282 285 284 285 284 283 284 285 285 284 285 285 285 285 284 284 284 283 283 283 284 284 284 284 282 281 281 281 282 283
291 289 287 289 287 287 287 285 287 287 282 274 271 278 286 287 286 284 284 284 283 283 283 285 283 284 284 283 282 282 283 283 282 282 282 283 282 283 282 281 281 281 281 281
291 288 279 285 290 291 289 287 287 282 278 279 282 280 287 285 285 285 283 284 284 283 282 284 283 283 283 282 282 281 281 282 282 282 281 281 282 282 281 281 280 280 279 280
293 284 275 278 282 288 285 286 286 287 284 281 278 279 286 284 284 285 284 284 285 285 282 282 281 280 280 280 280 280 280 281 281 281 280 280 280 279 279 279 280 280 280 279
296 288 280 277 277 283 281 282 284 284 279 277 278 280 285 285 285 285 286 286 283 283 282 280 280 280 280 280 279 280 280 280 280 279 279 278 278 278 278 279 278 279 279 278
290 279 283 283 284 283 282 281 282 280 281 277 280 279 283 284 279 280 281 284 283 282 281 280 280 280 279 280 281 281 280 280 280 279 279 278 278 279 279 278 279 278 278 278
288 276 279 273 281 281 278 280 280 280 280 279 280 278 284 279 280 279 281 281 279 280 280 280 280 280 280 280 280 281 280 280 280 278 278 278 278 279 279 278 278 278 278 277
281 276 270 269 278 275 268 276 277 278 279 278 274 278 276 277 279 277 277 278 278 278 279 278 279 280 280 280 281 280 279 278 276 275 274 275 276 276 276 277 276 275 275 275
279 274 268 264 264 259 274 278 279 277 278 276 276 272 275 277 277 278 278 278 278 279 279 280 279 279 280 280 279 278 278 276 276 274 273 273 274 273 273 273 272 272 272 272
283 277 265 263 257 269 274 277 276 275 272 276 274 275 276 277 275 274 278 279 278 279 280 280 279 279 278 277 276 276 275 275 275 274 274 273 271 269 269 268 268 268 268 268
279 280 273 262 264 259 271 277 278 277 268 272 270 272 273 275 269 271 278 280 280 280 280 279 278 278 276 274 274 274 273 271 271 272 271 270 269 266 266 266 265 265 265 265
262 262 271 271 268 267 273 275 278 264 268 271 273 274 275 273 274 277 279 279 280 279 279 278 276 274 273 273 272 271 270 268 269 269 268 266 266 264 264 263 264 263 262 263
268 264 260 258 255 261 276 274 271 274 278 277 277 277 277 278 278 278 279 279 279 278 276 276 274 273 272 271 269 268 267 269 266 265 263 263 261 261 263 261 261 261 260 260
267 271 265 268 267 276 277 276 279 279 276 279 278 279 278 278 277 278 278 278 278 277 275 273 270 270 270 267 267 265 266 265 264 259 258 258 260 261 261 259 259 259 259 259
272 274 271 270 274 275 277 278 279 279 279 279 279 279 279 277 278 277 277 277 275 272 271 269 266 264 264 265 266 263 263 263 255 254 258 260 260 260 259 260 260 259 258 258
273 274 270 271 276 276 277 278 279 279 279 278 278 278 278 277 277 277 276 274 273 271 269 267 265 264 263 264 262 259 261 258 257 258 260 260 260 259 259 260 259 260 261 262
277 275 273 271 278 277 277 279 279 279 279 279 278 277 277 277 277 275 272 271 270 268 266 264 263 262 261 258 258 257 255 254 254 258 259 259 259 259 259 259 259 264 266 268

GFSCGP_sfc_thetae_018.txt.gz
Theta_e
293 288 286 289 291 289 287 286 286 289 293 290 290 289 292 295 291 289 289 290 290 290 291 292 291 291 291 291 292 292 293 293 297 300 301 302 301 302 308 311 311 314 316 315
289 286 292 292 291 290 288 286 286 289 292 290 289 289 292 293 293 291 290 289 289 289 289 290 290 290 290 290 290 291 292 292 293 295 297 299 298 298 301 302 301 301 308 310
288 292 294 292 290 289 288 286 286 288 290 289 287 286 290 290 290 291 291 290 290 288 287 288 288 287 288 288 289 291 291 292 292 292 293 293 293 292 293 293 293 294 299 303
289 293 292 290 290 291 287 292 291 289 285 282 286 279 286 289 287 288 288 287 287 287 288 288 287 287 287 286 288 289 290 290 291 291 290 289 288 288 288 289 290 291 292 292
290 289 288 289 290 292 289 289 287 286 283 281 282 280 283 287 284 286 286 287 286 287 287 287 287 288 287 286 285 286 288 289 289 289 290 289 288 288 289 289 288 289 290 290
290 291 291 291 290 290 290 288 287 285 283 277 283 282 281 284 286 285 286 286 287 286 286 287 287 287 285 285 284 285 285 286 286 286 286 286 286 285 285 285 285 286 287 287
288 289 290 291 288 288 287 285 279 278 276 277 283 280 284 286 287 288 286 285 286 286 285 285 285 284 284 283 283 285 284 284 284 284 284 284 283 283 283 283 283 283 284 284
285 284 289 291 290 288 286 287 282 277 274 277 282 280 285 285 286 287 287 286 286 287 287 286 285 285 284 284 283 283 283 283 283 283 283 283 282 282 282 282 282 282 282 283
284 286 289 290 290 292 286 284 288 283 275 275 281 283 284 286 284 285 285 285 285 285 286 286 286 285 285 283 283 283 282 282 283 283 283 282 282 282 281 281 281 281 281 283
290 284 289 289 291 290 288 291 282 281 273 270 277 279 281 283 282 283 283 283 284 284 284 285 284 284 284 284 283 283 282 281 281 282 282 282 282 282 281 280 280 279 280 280
291 289 285 288 287 286 285 284 286 285 280 273 270 277 284 286 285 283 283 284 283 283 283 283 284 284 284 284 283 283 282 281 281 281 280 281 281 280 280 280 279 279 279 279
291 287 279 285 288 289 288 286 285 279 277 279 279 280 287 287 286 285 284 284 284 285 283 284 282 282 281 281 281 281 281 281 281 281 280 280 279 279 279 278 279 279 279 279
292 284 274 279 283 287 285 286 285 285 282 275 276 278 286 283 284 285 284 283 284 284 281 282 280 280 279 279 279 278 279 280 280 280 279 279 278 278 278 278 278 278 278 278
296 287 282 280 279 283 281 282 283 283 277 276 278 280 283 283 284 284 284 284 283 283 281 279 279 278 278 278 278 278 278 279 279 279 279 278 277 278 278 278 277 277 277 277
291 281 283 284 284 283 283 282 281 280 280 276 280 278 282 282 282 282 283 283 283 281 280 279 279 279 278 279 279 278 279 279 279 279 278 278 278 278 277 277 277 277 277 277
287 279 279 274 281 281 278 280 280 281 281 280 281 280 286 282 279 279 280 280 280 281 281 279 279 279 279 278 279 280 280 279 279 278 276 277 276 276 276 276 276 275 275 274
282 278 272 269 277 275 269 274 278 279 279 278 274 277 275 278 280 278 278 278 278 277 279 279 279 279 279 279 279 279 279 278 275 274 272 273 274 274 274 273 273 272 271 272
280 274 274 268 266 259 275 276 278 277 277 276 275 272 275 278 277 278 277 277 278 278 279 278 278 278 278 279 278 277 277 275 275 273 271 271 272 270 270 270 269 269 269 269
282 279 271 266 261 269 274 276 276 275 273 275 275 273 276 277 275 274 277 278 278 278 279 280 279 278 277 276 276 275 274 274 273 272 272 271 269 267 268 265 266 267 266 266
279 279 274 259 259 260 271 276 278 276 268 271 271 271 273 274 268 272 277 279 279 280 279 279 278 277 275 274 274 273 272 271 270 271 270 269 268 263 264 265 264 264 264 264
265 267 272 269 259 264 273 275 277 265 269 270 272 274 274 272 275 277 278 278 279 280 279 279 277 275 273 273 272 270 270 268 269 268 267 266 265 263 263 262 263 262 261 262
269 266 265 265 265 263 276 274 271 274 276 276 277 277 277 278 278 278 278 278 278 278 278 277 274 272 271 271 269 268 267 268 266 264 263 262 260 261 263 260 260 260 259 259
267 271 265 268 268 277 277 277 279 278 277 278 278 278 278 278 277 278 278 277 278 278 276 275 272 271 270 268 267 265 266 265 263 259 256 256 258 260 260 258 259 258 259 258
272 274 270 270 273 275 277 279 278 279 279 279 279 279 278 278 278 278 277 277 276 274 272 269 267 266 265 265 267 264 263 262 254 251 255 258 257 258 258 260 260 259 258 258
273 273 269 270 275 275 276 277 278 279 279 278 278 278 279 278 277 277 276 276 275 272 270 268 266 265 264 265 264 259 261 257 255 254 258 257 258 256 258 259 259 260 261 262
275 275 271 269 278 277 277 279 279 279 278 278 278 277 276 277 277 276 275 274 272 269 267 265 264 263 262 260 261 258 254 253 252 256 258 258 258 258 259 258 258 264 266 268

GFSCGP_sfc_thetae_021.txt.gz
Theta_e
292 288 286 288 289 287 286 285 285 287 291 288 289 288 291 292 289 287 287 287 287 288 289 289 289 289 290 290 291 291 291 292 293 297 299 300 297 301 299 299 299 305 308 312
288 285 291 290 290 289 286 284 285 288 291 289 288 288 291 290 289 288 288 287 287 287 287 287 287 287 287 288 289 290 290 291 291 292 293 295 294 294 293 293 293 294 295 298
287 291 293 291 288 287 286 285 285 287 289 287 286 284 288 288 289 289 289 288 287 286 285 285 285 284 285 285 286 288 289 290 290 291 291 291 291 290 290 290 290 291 291 291
288 292 291 288 288 289 285 290 289 288 285 282 285 279 284 287 286 286 286 285 285 285 286 286 285 284 284 284 285 286 287 287 289 290 289 288 287 286 287 287 288 288 288 288
289 289 288 287 289 291 288 289 287 285 283 280 281 279 283 286 283 284 284 285 284 285 285 285 285 285 284 284 283 283 285 285 285 286 286 285 284 285 284 284 284 285 285 286
290 290 290 291 289 291 290 287 286 284 282 277 282 282 280 283 285 284 285 285 285 285 284 284 285 284 283 282 282 282 283 283 283 283 283 283 282 282 282 282 282 283 283 284
286 288 289 290 287 287 286 285 279 277 275 277 282 279 283 285 285 286 285 284 284 284 283 283 283 282 282 281 282 283 282 282 282 282 282 281 281 281 280 280 281 281 281 281
284 284 288 290 289 286 285 285 280 274 274 277 281 279 285 283 284 287 287 286 285 284 284 284 283 282 282 282 281 282 282 281 282 282 281 281 281 280 280 280 280 280 280 280
284 285 288 288 290 290 285 283 287 282 271 274 281 282 283 284 283 284 284 284 283 284 284 284 284 283 282 282 281 282 282 282 282 282 281 281 281 280 279 279 279 279 279 281
289 284 288 287 289 288 287 289 282 280 273 270 278 279 281 281 282 283 283 283 283 284 284 284 284 284 283 282 282 281 281 281 281 281 281 281 280 280 279 278 278 278 278 279
290 288 284 287 286 285 285 284 285 284 280 274 271 278 283 284 284 283 284 284 283 283 284 284 283 283 283 282 282 281 281 280 280 280 279 279 279 279 279 278 278 278 278 278
291 287 279 284 287 287 286 285 286 282 278 278 278 280 286 286 285 285 284 284 284 284 283 283 284 282 282 282 281 280 280 279 279 279 278 279 278 278 278 277 278 278 277 278
292 283 275 282 283 285 284 284 284 284 282 277 276 279 285 284 284 285 284 284 284 284 283 283 281 280 280 279 279 279 279 279 280 279 278 278 278 277 277 277 278 278 277 277
296 287 284 281 281 283 281 282 283 283 277 281 282 281 281 283 284 284 284 284 284 284 282 280 278 279 279 278 278 277 278 279 279 278 278 277 277 277 277 277 276 276 276 275
291 282 282 283 282 283 283 282 281 281 280 277 279 278 281 283 284 284 285 285 283 284 281 279 280 278 277 277 277 277 277 278 278 277 277 277 277 277 276 275 275 275 274 274
286 279 280 278 283 283 282 283 283 284 283 281 282 280 286 282 282 279 281 281 281 282 280 279 279 279 278 278 278 278 278 278 278 277 276 276 275 275 274 274 273 273 272 272
284 279 278 279 278 278 275 276 279 281 281 280 277 281 275 278 279 279 279 279 279 279 281 280 279 279 279 278 279 278 278 278 275 274 271 271 273 272 272 271 271 270 269 270
281 279 277 273 269 269 278 276 278 278 278 277 276 273 275 278 278 279 278 278 278 278 278 278 278 278 278 278 278 277 277 275 274 272 270 270 271 269 269 268 268 268 268 267
283 280 273 272 266 272 276 276 275 275 273 276 277 275 277 277 274 273 277 277 277 277 278 279 279 278 277 277 277 276 274 274 273 272 271 270 268 266 267 264 265 265 265 265
279 280 278 265 265 265 273 276 278 277 268 272 273 273 273 274 269 273 276 278 278 279 279 279 279 278 276 275 275 274 272 270 270 271 270 269 267 263 262 264 263 264 262 264
268 271 273 271 270 267 272 275 277 266 271 271 273 274 274 272 275 277 277 277 279 279 279 278 277 276 275 273 272 271 270 268 269 268 267 266 265 262 262 261 262 261 260 262
269 267 266 265 260 263 276 275 272 275 275 276 276 277 276 277 278 277 278 278 278 278 278 279 276 274 272 272 271 269 268 268 266 265 265 263 259 260 261 255 258 257 258 257
270 273 269 271 270 276 277 277 279 278 276 277 278 278 278 278 277 278 277 277 278 278 278 277 274 272 271 268 268 267 267 266 265 261 260 256 257 259 259 254 257 258 256 256
272 273 271 271 274 275 277 279 278 279 278 279 279 279 278 278 277 277 277 277 277 276 274 272 270 269 267 265 267 264 265 264 259 258 259 258 257 257 257 259 260 258 257 257
273 274 270 270 274 274 277 278 279 279 279 278 278 279 278 277 277 276 277 276 276 275 271 270 270 269 266 265 264 263 263 260 258 258 259 257 256 255 257 258 259 259 260 261
275 274 271 269 276 276 277 278 280 278 278 278 277 277 277 277 277 277 276 276 275 272 268 267 266 265 263 262 261 260 258 257 256 258 259 257 257 257 258 258 258 263 267 269

GFSCGP_sfc_thetae_024.txt.gz
Theta_e
290 287 286 288 289 287 285 284 285 286 290 288 289 288 291 292 288 286 285 285 285 286 287 287 287 286 287 288 288 289 290 290 293 295 296 296 292 294 293 293 293 294 295 298
287 285 290 290 289 288 285 284 284 287 289 288 288 287 290 289 288 287 286 285 285 285 285 286 285 285 285 285 286 287 289 289 291 291 291 291 291 291 291 291 289 290 291 292
286 290 291 290 287 286 285 284 283 285 287 287 285 284 287 286 287 287 287 286 285 284 284 283 284 283 283 283 283 286 287 288 289 290 291 290 289 288 287 286 285 285 287 288
287 290 291 287 287 287 283 288 288 286 284 282 284 279 283 285 284 285 285 284 284 284 284 283 283 282 282 282 283 283 284 286 287 287 287 285 284 282 283 283 284 284 285 285
289 288 287 287 288 289 287 289 287 285 283 280 281 279 283 285 284 283 283 283 283 283 283 283 282 283 282 282 281 281 282 283 283 284 284 283 282 282 282 281 282 282 283 283
289 290 290 290 288 289 289 287 285 283 282 276 282 282 280 282 284 283 284 284 284 284 283 282 283 282 281 281 281 281 281 281 282 282 281 281 280 280 280 280 280 280 281 281
286 288 289 289 286 286 286 284 279 277 275 277 281 279 282 284 284 285 285 284 283 283 282 282 281 280 280 280 281 281 281 280 280 280 280 280 279 279 279 279 279 279 279 279
283 282 288 290 289 286 284 285 280 274 274 277 280 278 284 283 284 285 286 285 284 283 283 282 282 281 280 281 280 281 280 280 281 280 280 280 280 280 279 279 278 278 278 278
283 285 287 287 288 290 284 282 286 280 269 273 280 282 283 283 282 283 283 283 282 283 283 283 282 281 280 280 281 281 281 281 281 280 280 280 279 279 278 278 278 278 278 280
289 283 287 286 289 287 286 288 281 280 273 271 277 278 282 282 283 282 282 282 283 283 283 283 283 282 282 282 282 282 282 281 280 280 280 279 279 279 278 278 278 277 278 278
289 287 283 286 284 284 285 283 284 283 281 276 271 278 283 284 283 282 283 284 283 283 284 284 283 283 282 281 280 279 279 280 279 279 278 278 278 277 277 277 277 277 277 277
290 286 279 284 285 286 285 285 285 282 278 277 278 281 284 284 284 285 284 285 284 284 284 284 284 283 282 281 280 280 279 279 279 278 278 278 277 277 277 276 277 277 277 277
291 284 275 279 283 283 283 284 284 283 282 277 279 280 284 282 283 285 284 284 284 284 283 283 282 282 281 280 280 279 279 279 279 278 277 277 277 277 276 277 277 277 276 276
295 285 282 280 281 284 281 283 283 285 282 283 282 284 282 284 285 284 284 284 284 283 284 282 280 280 280 280 279 278 278 278 279 278 277 277 277 276 276 276 276 275 275 274
292 282 283 283 283 283 283 283 281 281 284 283 284 283 283 286 285 284 284 284 283 283 282 281 281 280 280 278 278 277 277 278 278 277 277 277 277 276 275 274 274 273 273 273
288 284 283 278 283 282 281 283 281 284 284 282 281 281 287 285 283 281 284 284 282 282 283 283 280 280 279 278 278 278 277 277 277 277 276 276 275 275 273 273 272 272 271 271
285 281 276 279 277 279 278 280 282 282 282 284 281 285 278 279 281 281 280 280 280 281 282 282 280 279 279 278 279 277 278 277 276 275 273 272 272 272 271 270 270 270 269 269
284 280 280 274 274 271 278 275 279 284 283 281 277 275 276 278 278 280 279 279 280 279 278 279 280 278 278 278 278 277 278 276 275 273 270 270 270 269 269 268 267 267 267 266
284 282 274 275 272 276 278 276 275 276 276 277 279 278 277 277 275 275 278 278 278 278 278 278 278 277 276 277 277 276 275 275 274 272 271 270 268 266 266 263 264 265 264 264
281 283 282 270 270 270 273 276 278 278 271 274 277 276 274 274 270 273 277 278 278 278 278 278 278 278 277 277 276 274 273 272 271 271 271 269 267 263 262 264 263 263 261 264
274 274 276 274 274 274 274 275 277 270 274 272 274 274 274 273 275 277 278 277 278 278 278 278 277 277 277 275 273 273 271 270 270 269 267 266 265 262 262 261 261 259 258 262
272 272 268 270 270 270 276 275 274 277 276 277 276 276 277 277 278 277 278 278 277 278 278 279 277 276 275 273 272 271 270 269 267 266 265 264 261 262 261 255 256 255 255 255
271 274 271 274 273 276 278 277 279 279 277 276 277 278 278 277 277 277 277 277 277 277 277 277 276 275 273 270 270 269 268 266 264 262 262 260 261 261 261 256 258 256 253 254
272 274 271 272 274 275 277 279 278 278 278 279 279 278 278 278 278 277 277 276 276 276 276 273 270 270 270 267 268 266 266 264 259 257 260 261 260 260 260 261 260 255 254 256
274 274 270 271 274 275 277 278 280 279 279 278 278 278 278 277 277 276 276 275 275 275 273 271 272 271 270 266 264 263 263 261 258 258 261 260 260 259 259 259 258 259 260 260
275 273 272 270 276 276 277 279 280 279 278 278 277 276 276 277 277 276 276 276 275 274 270 269 268 268 265 264 262 260 259 259 258 259 260 260 260 260 259 258 258 263 267 269

GFSCGP_sfc_thetae_027.txt.gz
Theta_e
291 289 287 289 289 288 287 285 286 287 290 290 289 289 292 292 289 287 286 287 287 287 288 288 288 288 288 289 290 291 293 294 297 298 298 295 292 292 291 291 292 293 295 296
288 286 290 290 289 288 286 285 285 287 289 289 288 288 292 291 290 289 287 286 286 286 286 286 286 286 286 286 287 289 290 292 294 294 294 293 291 289 289 289 288 289 291 292
286 289 290 290 287 286 285 285 284 286 287 288 286 286 288 289 288 288 288 287 286 285 285 285 285 284 285 285 284 286 287 289 291 293 292 291 290 289 287 286 286 286 287 288
287 290 290 286 286 287 283 287 287 286 285 283 286 281 286 286 286 286 285 284 284 285 285 285 284 283 284 283 284 284 285 286 287 288 288 287 285 283 284 284 285 285 285 286
290 288 287 287 288 288 287 288 286 286 284 283 283 281 284 285 286 285 284 284 284 284 284 284 283 283 283 283 282 283 284 284 284 285 286 284 283 284 284 284 283 283 284 284
289 290 290 290 289 289 288 287 285 283 282 277 283 283 282 284 286 285 285 285 285 284 284 284 284 283 282 282 282 283 283 282 283 283 283 283 283 282 282 282 282 282 282 282
286 288 288 289 286 286 285 284 279 278 276 278 281 280 284 287 287 287 286 285 284 284 284 283 282 282 282 282 282 282 282 281 282 282 282 282 282 282 281 281 281 281 281 281
283 282 288 290 288 286 284 285 280 275 275 278 279 279 284 286 285 285 286 286 284 284 283 283 282 282 282 282 282 282 281 281 281 282 282 282 282 282 281 281 281 281 281 280
282 283 286 287 288 289 284 282 286 280 270 275 281 283 287 285 284 284 284 284 283 284 283 283 283 282 282 282 282 282 282 281 282 281 281 281 281 281 280 280 280 280 280 280
288 283 286 286 288 288 286 288 282 280 273 270 278 280 284 284 284 283 282 283 283 284 283 284 283 283 282 282 282 282 282 282 281 281 281 281 280 280 280 280 279 279 279 280
289 288 284 286 285 285 285 283 283 284 281 275 272 279 285 286 286 284 284 284 284 284 284 284 284 284 283 282 281 281 281 281 281 281 280 280 279 279 279 279 279 279 279 279
291 287 280 283 285 286 285 285 285 281 278 277 278 281 285 285 286 286 285 285 285 286 285 285 285 284 282 282 281 280 281 281 281 280 280 280 279 279 279 279 279 279 278 278
291 285 278 281 284 284 283 284 285 284 282 277 277 279 284 284 284 285 285 284 286 286 285 285 284 283 283 281 281 280 280 280 280 279 279 279 279 278 278 278 278 278 277 277
296 286 284 284 283 284 282 283 284 285 278 280 283 285 282 284 285 284 284 285 285 285 285 284 282 283 282 282 281 280 280 280 280 279 279 278 278 278 278 278 277 276 276 275
293 285 283 284 284 284 284 283 282 282 285 283 285 284 284 286 286 285 285 284 284 284 283 283 283 282 281 281 281 280 280 280 280 279 278 278 279 278 277 276 275 274 274 273
290 286 283 280 283 283 281 283 283 285 285 284 285 284 287 287 285 284 285 284 283 283 284 284 283 282 281 281 281 280 280 279 279 279 279 278 278 276 275 274 274 273 272 271
288 283 284 282 278 281 280 282 282 283 283 285 280 287 283 283 284 283 283 284 284 283 282 283 283 281 281 280 281 279 279 278 278 277 275 275 275 275 273 272 271 271 270 269
285 284 285 273 276 274 279 276 283 284 284 281 281 278 282 283 281 282 282 281 281 281 281 281 282 281 280 280 279 278 278 277 277 276 275 273 273 272 270 269 269 268 268 268
285 284 277 275 275 278 277 276 279 280 279 280 284 282 279 278 277 277 279 279 281 281 280 279 280 280 278 278 278 277 276 276 275 275 274 273 271 269 268 266 267 267 266 266
283 285 284 274 273 272 275 276 278 279 275 276 284 282 275 275 271 275 278 279 279 279 279 279 279 278 277 277 277 275 275 274 274 274 274 271 269 266 265 266 265 265 264 266
276 276 279 276 275 277 276 275 278 273 277 274 276 275 275 275 278 278 278 277 278 279 278 278 278 278 278 276 274 274 273 273 273 271 270 268 267 265 265 263 264 262 262 263
275 275 274 275 273 273 277 276 276 279 277 276 276 277 277 277 278 278 278 278 278 278 278 279 277 277 277 275 274 273 272 271 270 268 267 265 263 265 263 259 260 259 259 259
275 279 276 278 277 277 279 279 280 280 278 277 277 278 278 277 277 277 277 277 278 277 277 277 277 276 276 273 272 272 271 269 266 265 263 261 261 262 261 258 260 261 259 259
274 275 274 275 275 276 278 279 279 279 278 279 279 278 278 277 277 277 277 277 276 276 275 274 272 272 273 270 271 271 268 267 263 261 262 261 260 261 260 262 262 260 259 260
276 275 272 272 274 276 278 278 280 280 279 278 277 278 278 277 276 276 276 275 275 275 274 271 273 274 274 269 268 266 266 264 262 261 262 262 261 260 262 262 262 262 262 261
275 273 272 272 277 277 278 281 280 279 280 278 277 276 276 277 277 276 275 275 275 274 271 270 271 270 270 267 265 262 262 262 262 261 261 261 261 260 261 261 261 264 267 269

GFSCGP_sfc_thetae_030.txt.gz
Theta_e
299 298 295 298 299 298 296 295 295 295 296 296 297 298 301 300 298 298 298 296 294 292 292 294 294 295 298 299 302 300 300 300 303 302 301 300 299 298 297 297 299 300 301 302
296 294 300 297 296 295 294 294 295 295 295 295 296 295 299 299 299 299 298 296 294 292 292 292 294 295 296 296 298 300 299 299 302 303 301 299 296 294 294 294 294 294 295 296
296 296 297 295 293 292 293 293 294 293 293 294 293 294 297 298 295 294 295 296 294 293 292 292 292 292 294 294 295 296 297 298 299 298 297 295 295 294 292 291 290 291 292 292
295 296 294 293 293 295 292 295 294 292 291 290 294 290 296 296 294 292 292 293 292 292 292 291 291 291 292 292 293 294 295 296 296 297 298 297 294 290 289 289 289 289 290 290
296 292 292 293 294 294 294 294 293 292 291 290 291 289 294 292 292 292 292 292 292 292 292 290 290 289 289 291 291 292 292 292 293 293 293 292 290 289 289 289 288 288 288 288
296 296 295 296 293 294 293 292 291 291 290 285 291 291 292 294 294 293 293 291 291 291 290 290 289 289 288 289 290 290 290 289 291 291 291 290 289 288 288 288 287 287 287 287
292 294 294 294 291 292 293 292 287 284 284 284 287 287 293 296 293 294 293 291 291 291 290 289 288 288 288 288 288 289 288 287 288 289 289 289 289 289 288 287 287 286 285 285
290 289 292 294 296 292 291 293 289 282 282 286 284 284 291 291 291 291 293 293 291 290 290 289 289 288 287 287 287 287 287 286 287 287 287 288 288 287 287 287 286 286 285 285
289 290 292 291 293 296 289 287 293 285 279 285 289 290 294 289 289 289 290 291 290 290 290 289 289 288 287 287 287 287 287 286 287 287 287 286 286 286 285 285 286 285 285 284
294 289 290 290 294 293 292 294 286 287 282 281 285 287 291 289 290 289 288 289 290 290 290 290 289 288 288 288 288 287 287 286 286 286 286 286 286 286 285 285 285 284 284 284
295 293 288 290 289 290 288 288 289 290 288 284 284 288 294 295 293 291 291 291 291 291 291 290 290 290 288 288 288 287 287 286 286 286 286 285 285 285 285 285 285 284 284 283
295 292 287 288 290 291 294 292 290 288 283 285 284 288 290 292 294 294 294 292 293 292 292 291 291 290 288 287 287 287 287 286 286 286 285 285 285 285 285 284 284 284 283 282
294 290 286 287 288 289 288 289 291 292 288 287 285 287 289 289 290 292 293 292 292 292 292 292 291 290 289 288 287 286 286 286 286 285 285 284 284 284 284 284 283 283 282 281
298 292 290 287 290 292 287 288 289 290 287 288 287 290 288 290 290 292 292 293 292 291 291 291 291 291 291 290 288 286 286 286 285 285 284 284 284 284 284 283 282 281 280 279
295 289 291 293 292 291 290 289 288 288 290 288 291 289 291 292 292 294 294 293 291 290 291 291 291 291 291 290 289 288 286 285 285 284 284 284 284 284 283 282 281 279 278 278
293 289 291 287 290 289 287 290 289 289 291 291 291 290 296 295 295 292 291 290 290 290 291 291 291 290 290 290 289 288 286 286 285 284 283 284 283 282 281 280 278 277 277 276
290 289 285 285 286 284 282 286 288 289 291 291 286 292 291 290 290 292 292 290 290 291 291 290 290 289 289 290 288 287 287 286 284 283 283 282 282 281 280 278 277 276 275 275
290 288 287 285 281 277 286 285 292 290 291 291 289 289 290 292 292 292 292 292 291 290 290 289 289 289 288 288 286 287 286 284 283 283 282 281 281 280 278 276 275 275 274 273
288 288 281 278 279 285 277 281 286 286 287 289 290 289 286 283 285 286 286 288 290 289 289 289 290 288 286 285 285 283 282 282 282 281 281 280 280 278 276 274 274 273 273 272
285 288 285 278 279 278 283 281 284 288 282 284 289 287 282 283 284 290 285 286 286 287 287 285 284 283 284 284 283 281 281 281 280 281 281 280 279 276 274 274 272 273 272 271
280 280 282 280 279 281 286 281 282 280 285 284 288 286 282 284 288 286 285 284 286 286 284 283 283 283 283 282 280 281 280 279 281 280 278 277 276 274 273 272 271 270 269 269
280 279 279 280 279 278 281 279 281 285 281 283 283 283 282 283 282 282 283 282 282 282 282 283 282 281 282 281 280 280 279 281 278 277 275 274 272 272 270 269 268 267 267 266
278 283 281 282 282 280 282 282 284 284 283 281 283 283 283 281 280 281 281 282 281 282 281 282 281 280 280 279 279 279 281 277 274 273 272 270 269 270 268 267 267 267 267 267
278 278 280 280 279 279 281 281 282 282 283 283 284 283 283 282 281 281 281 281 280 280 279 279 279 278 279 278 277 279 276 274 271 271 270 268 267 267 266 268 268 268 268 268
280 279 276 275 276 278 280 281 282 282 282 282 281 282 283 282 281 281 280 280 280 280 279 278 278 279 279 280 278 277 274 272 271 271 269 269 269 267 268 268 269 268 269 269
278 276 276 277 279 280 281 283 283 282 282 282 281 280 280 281 281 280 280 280 280 279 278 277 277 277 279 277 276 273 271 270 271 270 269 270 269 268 268 268 267 269 270 271

GFSCGP_sfc_thetae_033.txt.gz
Theta_e
304 299 297 300 302 302 300 298 297 301 300 297 299 300 302 302 301 302 303 302 300 298 297 298 299 301 304 307 303 304 304 304 304 303 303 302 301 301 299 300 301 301 303 304
298 296 302 304 302 300 298 296 297 301 299 296 298 298 302 303 302 303 303 303 300 297 296 296 298 300 302 304 303 302 302 304 305 306 304 302 299 298 297 296 296 296 297 297
298 300 300 299 297 296 297 296 297 297 296 297 296 295 298 302 304 304 302 304 301 298 296 295 296 298 301 302 303 302 303 304 304 302 300 298 297 297 294 293 292 292 293 293
299 302 297 297 296 298 294 300 297 296 294 291 297 290 298 302 299 298 299 300 299 298 297 296 295 297 298 298 300 301 301 301 301 301 300 299 297 292 292 291 291 291 291 291
297 295 295 295 297 299 296 298 297 296 294 294 294 290 296 301 299 298 297 298 298 297 296 295 295 294 295 296 297 298 297 297 298 299 299 296 293 292 291 290 289 289 289 290
298 298 298 298 296 298 298 296 294 294 294 287 292 292 294 296 296 300 298 297 297 295 295 295 294 293 293 294 294 295 295 294 295 295 295 293 292 291 290 289 288 288 288 288
296 296 298 298 294 295 296 294 289 286 285 286 291 291 295 299 296 298 296 296 295 295 294 293 291 291 291 292 292 292 292 291 292 293 293 293 292 291 290 289 288 287 287 286
293 291 297 297 298 295 293 295 290 283 285 288 286 285 293 299 297 296 299 296 295 293 293 292 292 291 290 290 290 290 290 289 290 291 291 291 291 290 289 289 289 288 287 286
294 294 298 297 298 300 292 290 297 289 284 286 290 292 297 293 292 293 295 294 293 292 293 293 292 291 289 289 289 290 289 289 289 289 289 289 289 289 288 288 288 287 287 286
299 292 294 294 295 296 295 297 287 289 284 283 289 291 292 290 292 292 292 292 292 293 293 293 291 290 290 290 290 289 289 288 288 289 288 288 288 288 287 287 287 286 285 285
299 295 290 291 291 292 290 290 291 292 291 286 285 290 299 298 297 293 293 294 294 293 293 293 292 291 290 290 290 289 288 288 288 288 287 287 287 287 287 287 286 286 286 285
299 296 292 291 294 296 296 293 293 288 285 287 288 290 295 300 300 297 295 295 296 295 294 294 293 291 290 289 289 289 288 288 288 287 287 287 286 286 286 286 286 286 285 285
297 292 288 290 290 291 289 292 293 292 290 288 286 290 294 294 297 297 296 295 295 295 294 294 293 291 290 289 289 288 288 288 288 287 287 286 286 286 286 286 285 285 284 283
298 294 292 289 292 294 288 289 291 291 287 288 289 292 290 292 293 294 296 296 295 294 294 294 293 292 291 290 289 289 289 289 288 287 286 286 285 286 286 285 284 284 283 282
296 289 294 294 296 296 293 291 290 288 290 288 292 292 297 294 294 296 296 296 295 293 293 293 293 293 293 292 290 289 289 288 288 286 285 285 286 286 286 284 283 282 281 281
294 288 292 289 294 294 291 293 293 290 291 291 293 293 301 298 297 297 296 295 294 294 293 293 293 293 293 293 292 290 289 288 287 286 285 285 285 284 283 282 282 280 279 278
290 288 287 285 290 290 283 289 291 293 293 293 289 294 295 296 294 295 295 294 293 294 294 293 293 293 293 294 292 291 291 289 286 284 284 283 284 282 282 281 280 279 278 278
290 287 287 285 285 279 290 298 295 293 295 295 294 292 294 294 294 295 298 295 293 293 293 293 294 294 293 294 292 292 290 288 285 284 283 283 282 281 281 280 278 278 278 276
294 290 286 283 283 289 291 284 289 290 291 296 294 292 289 288 290 291 295 296 295 294 294 293 294 294 292 290 289 287 285 285 284 283 283 282 281 280 280 278 277 277 277 276
285 292 287 281 282 281 289 288 290 293 286 292 293 290 286 287 287 294 289 290 291 293 290 290 290 288 287 287 285 283 282 282 282 283 283 282 282 280 279 278 276 277 276 275
282 285 283 284 283 285 288 284 289 283 287 287 292 288 286 287 291 289 288 288 288 288 286 286 285 284 285 285 282 282 282 281 283 282 281 280 280 279 278 277 277 275 274 273
283 281 281 284 282 281 283 282 285 287 285 287 290 287 287 287 285 286 286 285 285 283 283 284 283 283 284 282 282 281 281 282 281 280 278 277 276 277 276 274 273 272 271 270
281 286 285 286 284 281 283 283 285 285 287 284 286 287 288 284 282 284 283 282 282 283 283 283 283 282 282 281 281 280 281 279 277 276 275 274 273 274 273 271 271 270 270 270
280 281 283 283 280 281 281 283 283 284 284 285 286 285 285 284 282 282 282 282 282 282 281 281 280 279 279 279 279 281 279 277 275 274 273 272 271 272 270 271 272 271 271 270
281 281 280 277 278 279 282 283 284 284 283 283 283 285 284 284 282 282 282 281 281 282 280 280 279 279 280 280 279 279 277 275 275 274 273 273 272 270 270 270 271 271 272 273
280 279 278 278 281 284 283 286 286 283 283 283 282 280 281 283 282 281 281 282 282 281 279 278 278 278 279 279 278 277 275 274 274 274 273 273 273 271 271 271 270 274 274 274

GFSCGP_sfc_thetae_036.txt.gz
Theta_e
301 295 292 295 297 298 296 293 292 295 296 294 294 295 298 297 296 296 297 296 296 295 294 295 296 298 302 301 303 304 302 303 303 303 301 300 298 297 295 296 296 296 298 300
295 292 299 301 300 297 295 292 292 296 296 293 293 293 297 298 297 298 298 297 296 293 292 294 295 297 301 300 301 302 303 304 304 305 301 299 296 293 292 291 292 292 293 293
294 297 300 299 295 295 293 292 292 293 294 292 290 289 293 298 300 299 299 298 298 293 291 292 293 295 297 300 300 300 301 303 302 299 296 294 293 291 289 288 287 289 290 290
296 300 296 295 295 295 291 296 296 294 289 285 291 283 292 296 297 299 296 295 294 293 293 292 293 294 295 296 300 301 301 300 299 296 294 292 290 287 287 286 286 287 288 288
294 293 293 293 295 297 293 296 293 292 290 288 288 286 290 296 295 296 294 294 294 293 292 291 291 294 294 294 294 296 294 295 296 296 294 290 287 287 286 286 285 285 285 286
294 296 295 295 294 295 296 293 291 290 289 281 289 288 288 293 296 296 295 295 294 292 291 291 291 291 291 291 292 292 291 291 292 292 290 288 286 286 285 284 284 283 283 284
292 293 295 296 291 293 293 290 283 280 279 280 287 287 291 294 293 295 295 294 294 292 290 290 288 288 288 288 289 290 289 289 290 289 289 288 287 286 285 284 283 283 282 282
288 286 293 295 295 291 290 291 284 279 279 281 283 281 288 293 293 293 296 295 293 291 290 289 288 288 288 288 288 287 287 287 287 288 287 287 287 285 285 285 284 283 282 282
291 291 296 295 296 296 290 287 294 285 277 278 285 287 292 290 289 290 292 292 291 291 290 289 289 287 287 287 286 286 286 286 286 286 286 285 285 284 284 284 283 282 282 283
296 289 293 291 293 294 291 294 284 284 274 275 283 286 287 287 289 289 291 291 291 291 290 290 289 288 287 287 286 286 286 285 286 285 285 285 284 284 284 283 282 282 281 281
296 292 286 290 288 289 288 287 289 289 285 279 278 284 292 293 292 289 291 292 291 290 290 290 289 288 287 286 286 285 285 285 284 285 284 283 283 283 283 282 282 281 281 281
296 294 283 286 290 292 291 290 290 283 282 285 282 286 292 293 294 293 292 292 292 291 291 290 289 287 286 286 286 285 284 284 284 284 283 282 282 282 282 281 281 281 280 280
296 290 285 285 287 288 287 290 292 292 287 285 281 285 291 291 292 293 291 292 292 291 291 290 289 287 286 286 285 285 284 284 284 283 282 282 281 281 281 281 281 281 280 279
299 292 290 286 288 291 284 287 290 290 284 284 287 289 286 289 289 291 292 293 292 292 291 290 289 288 287 286 285 285 284 284 283 283 282 281 280 281 281 280 280 280 279 278
296 288 291 293 294 292 288 287 288 287 288 286 289 289 293 292 290 292 293 292 292 291 291 290 290 288 287 286 286 285 285 284 284 283 281 281 281 281 281 280 279 279 278 278
293 287 290 288 291 291 289 292 289 289 289 290 290 290 295 296 294 291 293 292 291 291 291 291 290 289 288 287 286 286 285 284 284 282 281 281 281 281 280 280 279 278 277 277
289 288 286 285 288 287 285 289 291 291 291 291 286 292 295 295 292 292 292 293 292 292 292 291 290 290 289 288 287 286 285 284 283 281 280 280 281 280 279 279 278 277 276 276
288 288 287 286 286 279 289 294 295 293 294 295 293 293 291 293 293 294 295 293 292 291 291 291 291 291 290 288 288 286 284 282 282 281 280 279 280 279 277 277 276 275 275 274
294 290 285 283 284 288 289 284 288 289 290 296 295 295 290 289 290 288 292 293 293 291 293 292 292 291 290 288 287 286 283 282 281 280 280 279 279 277 277 276 275 275 274 273
292 294 287 283 282 280 283 283 288 292 285 291 294 294 285 288 287 289 290 290 291 292 290 289 289 287 287 285 285 284 282 281 280 280 281 280 278 277 277 276 274 274 272 274
283 286 285 285 284 286 282 280 286 283 283 281 285 287 286 288 289 290 288 288 288 286 286 285 285 285 284 283 282 281 280 281 280 279 278 277 278 278 277 275 272 272 270 272
284 283 284 285 284 281 283 281 285 284 281 283 284 284 284 283 284 284 284 284 284 283 283 282 282 281 281 281 281 279 279 279 277 277 276 275 275 277 275 274 269 270 270 267
281 284 285 284 283 280 281 282 283 283 283 283 286 286 284 282 282 283 282 282 281 281 281 281 280 279 279 278 278 278 278 277 275 274 273 272 272 273 272 271 269 267 266 267
280 282 282 282 280 280 283 285 284 283 283 283 283 285 284 283 281 280 280 280 280 279 279 277 278 276 275 275 277 274 275 275 273 272 272 270 270 268 268 269 269 268 267 266
281 282 279 276 279 281 283 284 285 286 282 281 281 281 282 280 279 279 280 279 279 279 278 277 277 276 276 274 274 272 273 274 272 271 270 268 267 268 266 267 266 268 266 268
279 280 280 279 282 284 284 286 286 285 283 280 280 279 281 281 280 280 279 279 279 278 275 275 274 274 274 274 271 271 272 272 271 269 269 269 269 267 267 266 264 274 274 275

GFSCGP_sfc_thetae_039.txt.gz
Theta_e
296 291 289 292 292 293 291 289 288 291 294 292 291 291 294 296 294 293 292 292 293 293 292 294 296 299 299 299 301 302 302 302 303 302 300 298 295 295 294 293 293 294 295 296
292 289 295 296 295 294 292 290 289 292 294 292 291 291 294 295 294 295 295 295 294 290 291 293 294 297 298 298 300 301 302 303 303 303 300 297 293 291 290 289 289 290 291 291
290 295 298 296 294 293 291 289 289 290 291 290 288 287 291 294 296 295 297 297 296 292 290 291 293 295 297 296 297 302 303 303 300 297 295 293 291 290 287 286 286 287 288 289
293 298 295 294 293 293 288 293 293 291 288 284 288 282 289 294 294 294 296 294 295 291 291 292 293 293 296 296 298 301 302 299 297 296 293 290 288 286 285 285 285 286 287 287
292 293 292 292 293 295 291 293 291 290 287 285 285 283 287 293 293 296 296 295 293 291 291 291 293 295 295 295 296 299 299 297 296 295 292 289 286 286 285 284 284 284 285 285
292 294 294 294 292 294 294 292 291 289 287 280 286 286 285 291 294 296 292 291 291 290 290 291 292 293 292 292 292 293 295 295 295 292 289 288 286 285 284 283 283 283 283 283
290 291 293 294 290 292 292 289 281 279 278 280 286 284 290 293 294 295 295 292 290 290 289 289 289 290 289 289 289 290 290 289 289 289 288 287 286 285 284 283 283 282 282 281
287 283 291 294 292 290 288 289 283 277 277 279 282 281 288 294 294 292 295 294 291 289 289 289 289 289 289 289 288 289 287 287 287 288 287 287 286 285 285 284 283 282 282 281
286 286 292 293 295 295 288 286 292 284 273 276 283 286 291 290 290 289 290 291 290 289 288 287 287 287 287 287 287 287 286 286 286 287 287 286 285 285 284 283 282 282 281 282
293 287 290 289 294 292 291 292 285 283 274 273 280 282 287 287 290 289 289 290 290 290 288 287 287 286 287 287 286 285 286 286 286 286 286 285 284 284 284 283 281 281 281 281
294 292 285 288 287 288 288 286 289 289 284 278 276 283 290 293 293 289 290 291 290 289 289 288 287 287 287 286 285 285 285 285 284 285 284 283 283 283 283 282 281 280 280 280
295 292 280 285 289 291 291 289 288 283 282 281 281 286 290 291 293 291 291 292 291 291 290 288 287 286 286 285 285 284 285 285 285 284 283 282 282 282 281 281 280 280 280 280
295 290 282 283 286 287 287 289 292 291 285 283 280 286 290 289 291 291 289 290 290 290 288 288 286 285 285 285 285 284 284 284 283 283 282 281 281 280 280 280 280 279 279 278
299 291 290 286 287 288 285 287 290 291 283 284 287 289 288 288 290 290 289 291 290 290 289 288 287 286 286 286 285 284 284 284 283 282 282 281 280 280 280 280 280 279 279 278
297 288 289 292 291 290 288 287 288 287 289 285 289 289 293 294 291 292 291 290 289 289 289 289 288 287 286 285 285 284 284 284 283 282 281 281 280 280 280 280 279 279 279 277
294 288 290 288 289 290 288 289 289 289 289 289 290 290 294 296 296 291 291 291 290 290 290 290 290 288 286 285 285 285 284 284 283 282 281 280 280 280 280 280 280 279 278 277
290 288 286 285 289 287 284 289 291 290 291 290 286 292 293 295 295 291 291 291 291 292 291 291 290 289 288 286 286 285 285 284 282 281 280 280 280 280 280 280 279 278 277 276
289 289 287 285 286 279 289 293 295 293 294 293 292 294 294 296 297 294 294 293 292 292 292 291 291 290 288 288 287 287 285 283 282 281 281 280 281 280 279 279 277 276 275 275
295 290 285 283 284 287 290 287 289 288 290 296 295 296 297 293 290 290 291 294 295 294 294 293 293 291 289 287 286 285 283 283 282 281 281 281 281 280 278 277 276 275 275 273
291 293 287 283 282 280 289 285 288 293 287 295 296 296 296 290 289 294 291 291 290 291 292 290 290 289 290 288 286 284 283 282 282 282 282 281 280 279 278 278 275 272 273 275
287 288 284 285 284 286 283 281 289 285 285 278 283 289 289 291 295 290 289 289 289 289 288 288 289 290 289 286 285 284 282 282 283 281 279 278 279 278 278 276 273 271 273 272
285 286 286 286 284 282 283 284 288 285 280 281 282 282 283 284 283 285 286 285 285 286 286 286 285 284 284 284 286 283 282 282 278 278 277 277 276 277 275 274 270 270 271 271
283 284 286 287 285 281 282 282 283 283 282 282 284 282 282 282 282 283 283 283 283 284 283 283 283 281 280 280 283 282 281 277 276 276 275 274 272 273 273 273 270 270 270 271
282 283 282 282 280 281 283 285 285 285 283 282 284 284 283 282 282 282 282 281 281 280 279 277 279 278 278 276 277 275 276 275 274 273 271 269 271 268 267 271 271 271 269 269
282 283 280 278 280 281 284 285 286 287 285 282 281 282 282 282 280 280 280 279 280 279 278 278 278 277 276 274 273 271 274 274 273 270 270 269 269 270 268 268 268 269 266 270
281 281 281 281 283 284 285 287 288 286 285 282 281 280 281 280 280 280 279 279 279 278 275 275 273 274 272 271 270 269 272 273 272 270 269 269 269 267 267 266 264 275 274 276

GFSCGP_sfc_thetae_042.txt.gz
Theta_e
294 290 288 291 291 291 289 287 287 289 294 291 290 290 293 294 292 292 291 291 292 292 292 293 294 299 299 299 299 300 299 301 302 301 300 298 296 295 295 296 297 295 295 296
291 288 294 294 293 291 289 287 287 291 293 291 290 290 292 293 293 294 295 293 293 291 290 292 293 297 298 298 299 299 300 300 302 303 299 296 294 291 291 291 289 290 291 290
289 294 296 295 292 291 289 288 287 289 289 289 287 286 290 294 294 294 295 297 295 293 291 291 293 297 296 297 298 300 300 301 302 298 294 291 291 290 289 286 286 287 288 288
291 296 294 292 291 292 288 293 292 290 287 283 288 282 287 291 292 293 295 294 295 293 292 292 293 295 297 297 298 300 301 300 296 295 293 292 288 286 286 284 284 285 286 286
291 292 292 291 292 294 291 293 290 288 285 284 284 282 286 290 290 294 298 295 294 293 292 291 293 296 297 297 297 298 298 295 295 295 294 290 286 285 285 284 284 284 284 285
291 293 294 294 293 294 293 291 289 287 285 280 286 285 284 289 293 293 295 294 293 291 291 292 293 295 296 294 295 295 295 295 295 294 291 288 285 284 284 283 283 282 283 283
289 290 292 293 291 292 291 287 280 279 277 280 284 282 289 292 294 295 297 295 290 290 290 290 291 293 294 293 293 294 295 294 293 291 289 287 286 285 284 283 283 282 281 280
286 284 291 293 292 290 289 287 281 276 276 279 282 280 287 293 296 293 293 293 289 287 289 290 291 293 294 292 291 293 292 292 290 288 286 286 285 285 284 283 283 282 281 281
284 285 290 290 293 295 287 286 291 284 271 276 283 286 290 291 291 291 291 290 287 287 288 289 290 291 291 291 291 290 288 289 288 287 286 285 285 284 283 282 282 281 280 281
291 284 288 289 292 290 289 292 283 282 274 273 280 281 286 287 290 292 291 289 288 287 286 287 288 289 290 290 289 287 288 287 287 286 286 285 285 284 283 282 280 280 280 280
293 291 284 288 287 287 287 286 287 287 282 277 274 282 289 293 293 292 292 291 289 288 287 287 287 287 288 288 286 287 286 285 285 286 285 284 283 283 282 281 281 280 280 279
293 292 282 284 288 288 288 287 288 282 280 281 280 287 290 291 292 292 293 291 290 289 288 287 287 286 285 286 286 286 285 285 285 285 284 283 283 282 281 281 280 280 280 279
294 288 280 282 285 286 285 288 292 288 283 284 280 286 289 290 290 292 292 290 289 288 287 286 285 285 285 285 285 285 285 285 284 283 283 282 281 281 281 280 280 280 279 279
298 291 287 284 286 287 284 286 288 290 285 285 285 289 288 289 291 292 291 289 288 288 288 286 286 285 285 285 285 285 284 284 283 282 282 281 281 281 281 280 279 280 279 279
296 289 290 292 290 288 286 288 288 287 289 285 290 290 294 294 291 292 292 290 288 287 287 287 287 286 285 285 285 285 284 284 283 282 281 281 281 281 280 280 280 280 279 279
294 289 291 288 291 288 287 287 288 289 290 290 291 290 294 293 293 291 291 290 289 289 289 289 289 287 286 285 285 285 284 283 283 282 281 281 281 280 280 280 280 279 279 277
290 291 288 285 289 286 284 289 288 288 291 290 286 292 292 293 294 294 292 291 291 291 291 290 289 288 288 286 286 285 284 284 282 282 281 281 281 281 280 280 280 279 278 278
289 290 289 286 286 280 289 294 296 293 293 292 292 294 294 294 296 296 294 291 292 293 293 291 291 290 289 288 287 286 284 283 282 282 282 282 281 281 280 279 279 278 278 277
296 291 286 284 284 286 289 287 289 289 291 297 295 297 298 297 292 295 293 296 297 295 295 294 293 291 289 287 286 284 282 282 282 281 281 282 281 281 279 279 279 278 278 276
294 294 288 283 282 280 289 288 293 292 287 295 296 297 297 292 289 295 300 293 292 293 291 289 288 286 287 286 285 283 282 282 281 282 282 282 282 282 280 280 279 278 278 277
287 288 285 285 284 285 285 282 292 285 286 280 287 292 291 293 297 290 288 288 287 287 287 287 288 287 286 285 284 283 282 282 283 283 282 282 282 282 281 281 279 276 276 274
286 285 285 285 283 281 282 284 288 285 281 281 282 283 284 286 285 285 285 284 285 286 286 286 286 285 285 284 285 283 283 284 284 283 281 280 281 281 280 278 275 274 275 274
284 289 287 288 286 281 282 281 283 282 279 281 283 282 283 283 282 283 282 283 283 284 283 284 285 283 284 285 286 284 283 280 279 280 280 280 278 278 277 276 273 272 272 273
282 284 284 285 283 281 282 285 286 283 282 282 282 284 283 283 282 282 281 281 282 280 281 280 283 282 279 280 281 282 280 279 280 280 277 275 276 273 273 274 273 273 271 271
280 284 279 278 281 281 283 285 287 285 285 284 283 282 282 281 281 282 281 280 279 279 278 280 280 280 278 277 276 275 276 277 278 276 273 273 273 272 270 269 270 271 267 272
281 281 279 280 284 286 285 287 288 286 285 283 281 281 281 281 281 280 279 279 279 278 276 276 274 275 272 274 274 274 275 276 274 272 271 270 270 268 267 267 264 275 274 277

GFSCGP_sfc_thetae_045.txt.gz
Theta_e
293 289 287 290 290 289 288 286 286 288 292 290 289 289 293 293 291 291 291 291 292 293 295 292 293 296 298 299 299 299 300 300 300 299 299 299 298 297 296 297 300 300 299 297
290 287 292 292 291 289 287 286 286 289 291 290 289 289 292 291 292 294 294 294 293 293 290 292 292 295 298 299 299 299 300 299 300 300 297 296 295 290 292 293 294 295 293 292
289 292 294 293 290 289 288 286 286 288 289 288 287 286 289 293 292 293 294 297 297 295 293 292 291 295 297 298 299 300 300 300 300 297 292 290 290 291 291 290 290 289 289 288
291 294 293 291 290 291 286 291 290 288 286 283 286 281 286 290 292 292 295 295 296 294 294 293 292 294 297 299 299 300 300 300 296 294 292 293 290 287 289 288 288 286 286 286
290 291 291 290 291 293 289 291 289 287 285 282 283 281 285 288 290 293 296 297 295 294 293 292 293 295 297 298 298 299 299 297 295 294 295 294 291 285 285 286 286 284 284 285
290 292 293 293 292 293 292 290 288 286 284 279 285 284 284 287 291 293 295 296 295 293 291 292 293 294 296 297 297 297 298 295 294 295 294 292 289 285 284 284 285 283 282 282
288 289 291 293 290 291 290 287 280 278 277 279 283 282 289 291 293 295 297 295 293 290 289 289 289 292 294 295 296 297 297 294 293 293 292 290 289 288 285 284 283 282 281 280
285 282 290 292 292 290 288 287 281 275 275 278 282 280 287 291 294 293 294 294 291 289 288 289 290 292 294 295 296 297 296 294 292 291 291 290 289 288 287 285 284 283 282 281
284 284 289 290 291 294 287 284 289 283 271 275 282 285 289 291 291 291 292 291 290 289 287 287 289 292 294 294 295 297 295 292 291 290 289 288 288 287 285 282 282 281 280 281
290 283 287 288 291 290 289 291 283 281 273 271 279 281 285 289 291 293 292 292 290 288 286 286 288 290 292 294 294 294 293 291 290 288 287 286 286 285 284 282 281 280 280 280
292 288 283 287 286 286 286 285 285 286 282 277 274 282 288 292 292 292 293 294 291 288 286 286 287 289 290 291 290 289 290 288 287 286 285 284 283 284 283 282 281 280 280 279
292 290 281 284 287 288 286 286 288 281 279 280 280 285 289 291 293 292 293 293 289 289 287 286 286 287 287 288 288 290 289 287 287 286 285 284 283 282 281 281 280 280 280 279
294 288 276 281 285 285 285 287 290 288 283 283 278 285 288 288 290 291 292 291 290 288 286 285 284 285 286 287 288 288 287 286 285 284 284 283 282 281 281 280 280 280 279 279
297 290 285 284 284 286 283 285 288 288 283 284 285 289 289 290 289 291 292 291 289 288 287 285 285 285 286 287 287 287 287 286 284 284 283 282 281 282 281 280 280 280 279 279
295 288 289 291 291 287 285 285 287 287 289 285 289 289 294 294 292 292 294 291 289 288 286 286 286 286 286 286 286 287 287 285 284 283 282 282 282 282 281 280 280 280 279 279
294 287 289 287 290 290 286 286 287 288 290 290 291 290 294 293 292 291 293 292 290 289 288 288 288 287 286 286 286 286 286 284 284 283 283 282 281 281 281 280 280 280 279 279
291 289 286 284 288 288 283 288 289 288 290 290 287 292 292 295 295 295 296 291 291 292 292 290 289 288 288 287 287 286 286 284 283 282 282 281 281 281 281 280 280 279 279 279
289 289 288 285 286 279 289 295 294 292 292 292 292 295 296 296 298 297 293 293 293 293 292 292 291 290 289 288 287 286 285 283 283 282 281 281 281 281 280 280 279 279 279 278
297 291 287 284 284 288 288 289 288 288 290 296 294 295 296 297 292 296 294 296 297 295 294 295 294 292 289 287 286 285 282 282 282 281 281 281 282 281 280 280 279 279 278 278
294 295 289 283 282 280 289 291 294 292 287 296 295 296 296 294 289 296 295 293 293 293 292 291 289 287 287 285 285 283 281 282 281 282 282 282 282 282 280 280 279 279 279 279
287 288 285 286 284 285 286 283 291 285 286 281 285 291 293 293 295 288 288 289 286 286 285 285 285 285 284 284 283 281 281 281 283 282 282 281 282 282 281 281 280 279 279 278
286 285 285 286 283 282 283 286 287 285 281 281 282 282 284 287 287 285 284 284 285 284 284 284 283 281 282 282 282 281 281 281 282 282 281 282 282 282 282 282 280 279 279 278
285 288 286 286 286 284 283 283 283 282 279 280 281 281 282 282 282 283 282 282 283 283 283 283 282 281 281 280 282 281 282 283 283 283 283 283 283 283 283 282 281 278 278 277
282 283 287 287 284 280 282 284 284 282 281 281 281 282 283 283 284 284 283 282 282 279 279 279 283 282 281 282 283 284 283 283 284 283 281 281 281 279 279 280 277 277 275 275
283 285 284 284 279 281 281 283 285 285 285 285 282 282 282 283 283 282 281 279 280 280 280 281 281 279 277 278 278 278 279 281 281 279 276 277 277 276 274 273 274 275 271 276
282 283 284 283 284 285 284 286 287 286 286 286 282 281 280 281 280 280 279 279 278 278 276 277 276 276 274 275 274 274 275 278 277 274 274 274 273 272 272 271 268 276 276 279

GFSCGP_sfc_thetae_048.txt.gz
Theta_e
291 288 287 289 288 288 286 284 285 286 290 288 288 288 291 293 290 291 291 290 292 293 297 293 293 293 297 298 299 300 300 304 304 303 302 300 301 300 300 301 304 304 304 304
289 286 291 291 290 288 286 285 285 288 289 288 288 289 292 291 291 292 294 293 293 293 292 292 292 292 296 298 299 299 300 304 304 303 298 296 295 292 295 296 296 298 298 299
287 290 293 292 288 288 287 285 285 287 288 287 285 285 287 291 291 292 293 296 296 295 295 292 291 292 295 297 299 300 300 301 304 301 293 291 292 293 293 292 293 293 294 294
289 292 292 289 288 290 284 289 288 287 285 282 285 280 285 289 291 292 295 293 295 296 295 294 292 291 294 297 300 301 300 300 300 296 295 295 291 290 290 291 290 289 290 289
288 290 289 288 290 291 288 290 288 287 284 281 281 281 284 287 289 292 296 295 294 295 294 293 292 293 295 297 299 300 299 299 298 295 296 296 293 287 286 289 288 287 287 286
288 292 292 292 291 291 292 289 287 285 283 279 283 283 283 286 290 291 295 296 295 293 292 291 291 291 293 295 297 298 298 298 295 294 294 296 291 287 287 287 287 286 285 283
287 288 290 291 289 290 288 287 280 277 276 278 282 281 288 289 292 291 294 295 292 292 290 289 289 289 292 294 296 298 298 296 294 294 293 292 291 290 290 287 287 284 283 281
283 281 289 291 291 288 287 287 280 274 274 277 281 280 285 291 292 292 292 293 291 291 290 289 288 289 292 294 296 298 298 296 293 294 292 291 291 292 291 289 287 286 285 282
283 283 288 289 290 293 286 284 288 283 270 275 281 283 288 290 291 291 291 291 292 291 291 289 288 289 291 293 295 297 297 296 293 293 291 289 290 290 289 287 286 284 283 282
288 283 286 288 290 289 288 290 283 281 274 271 278 280 283 288 290 292 291 292 292 290 290 288 287 288 291 293 295 296 297 295 292 292 290 289 289 289 288 286 285 283 283 281
291 288 283 286 286 285 286 285 284 285 281 276 273 282 287 290 292 291 293 293 291 291 290 289 287 288 290 291 293 295 294 291 290 290 288 286 287 287 286 285 284 283 282 280
291 288 281 284 286 286 285 285 286 280 278 279 279 284 289 290 291 291 292 292 291 290 290 288 286 287 288 289 290 291 292 291 291 288 286 285 285 285 285 284 283 282 281 280
292 288 278 282 284 284 284 286 288 286 283 281 277 284 288 287 289 290 291 291 291 290 288 286 285 285 287 288 289 290 291 290 289 286 285 283 283 284 284 283 283 282 280 280
297 290 286 283 283 285 282 284 287 289 283 284 284 288 288 289 290 291 291 292 291 291 289 286 285 285 286 287 288 289 290 290 287 286 285 283 283 283 284 283 282 281 280 279
295 287 287 290 288 285 285 284 286 287 288 283 288 288 292 294 294 295 294 292 291 290 288 287 287 286 285 286 287 288 289 288 286 285 284 284 283 283 283 282 281 281 280 280
294 287 289 286 289 288 286 285 287 287 289 289 289 289 296 297 293 291 292 293 293 291 290 291 289 286 286 286 287 288 288 287 286 285 284 284 282 282 282 281 281 280 279 279
291 288 286 284 288 287 284 287 289 289 291 290 285 291 296 295 295 296 296 293 293 293 295 292 290 289 289 287 288 287 287 286 284 285 284 283 282 281 281 281 280 280 279 279
289 288 287 285 284 278 289 292 293 291 292 293 292 294 296 296 297 297 295 294 295 294 293 293 293 291 290 289 287 287 286 284 284 284 283 282 282 282 281 280 280 280 279 279
295 291 286 284 283 287 288 288 288 287 289 294 293 294 295 297 292 296 295 295 296 296 294 294 293 292 289 287 286 284 283 283 282 282 282 282 282 281 280 280 280 279 279 279
294 295 288 285 281 279 289 293 292 291 285 295 295 295 295 293 288 294 292 290 289 289 289 289 289 288 287 285 283 283 281 281 281 282 281 281 282 282 281 281 280 280 280 279
286 287 285 285 283 283 286 283 291 284 286 281 285 291 287 292 295 287 286 286 285 285 285 284 284 284 283 282 282 280 279 280 280 280 280 280 281 282 282 281 280 280 279 279
286 284 284 286 283 281 285 285 287 287 281 282 283 283 284 286 286 283 283 284 284 284 283 283 281 280 280 280 280 278 278 279 279 279 279 280 281 281 281 281 280 280 279 278
283 286 285 286 286 290 285 288 286 284 282 282 283 281 282 283 282 282 283 282 282 283 282 281 279 279 279 278 279 278 277 278 279 279 279 281 281 282 282 281 280 279 280 279
285 285 287 287 287 286 286 284 284 283 283 283 283 283 283 283 283 283 282 282 281 278 278 278 281 279 279 281 283 283 283 283 284 283 283 282 282 282 282 283 282 281 279 278
282 285 286 284 284 282 284 282 284 283 284 283 283 282 283 285 283 283 281 281 280 280 280 282 281 279 277 277 278 280 281 284 283 282 279 281 281 281 279 278 279 279 276 280
282 283 284 285 285 287 287 285 285 286 286 285 282 281 280 281 281 280 279 279 279 279 278 278 276 275 273 272 271 271 274 278 278 275 276 276 276 275 275 274 272 278 278 281

GFSCGP_sfc_thetae_051.txt.gz
Theta_e
292 289 287 289 289 287 287 285 285 287 291 290 289 289 291 295 292 292 294 294 295 295 299 297 297 297 297 300 302 303 304 307 309 307 307 305 306 306 307 308 309 310 311 312
289 287 290 291 289 289 287 285 286 288 289 290 289 289 292 293 295 295 296 297 296 297 295 296 295 295 296 299 301 302 304 306 307 309 305 304 302 301 303 302 303 305 306 306
287 289 291 291 288 288 286 285 285 287 288 288 287 286 288 292 292 293 294 297 297 298 298 297 293 294 296 297 300 302 303 305 307 307 299 295 295 296 297 297 298 299 301 302
288 291 290 288 287 289 284 289 288 286 286 282 286 280 286 290 291 292 295 295 296 297 296 296 293 294 294 297 300 303 303 305 306 302 301 300 302 297 298 298 298 295 296 297
288 289 289 287 289 290 287 289 288 287 285 283 283 282 286 287 289 292 295 297 298 295 295 296 294 295 295 297 299 302 303 303 305 302 304 302 299 296 295 294 294 293 292 294
288 290 291 291 290 290 290 288 287 285 284 279 283 284 283 286 290 292 294 295 295 294 294 294 294 293 293 295 298 301 301 301 302 302 302 302 301 293 293 291 292 291 289 289
286 288 289 291 288 289 288 286 279 277 276 279 282 281 287 289 291 292 295 296 294 294 294 294 293 291 292 294 297 299 300 300 299 299 300 300 299 296 295 293 292 289 287 286
283 280 288 291 290 288 287 286 280 274 274 277 281 280 286 291 292 292 292 293 292 293 293 293 293 292 291 294 296 298 299 300 298 298 298 299 299 296 296 295 294 292 291 289
281 282 287 288 289 292 286 284 287 282 270 276 280 283 288 289 290 291 294 291 293 293 293 293 292 290 291 293 295 297 299 300 297 297 297 296 296 296 295 294 292 291 289 288
286 281 285 287 290 289 287 290 283 281 274 271 278 280 284 288 291 292 291 293 293 293 293 293 291 290 290 293 295 296 298 299 297 297 295 295 294 293 293 291 289 286 285 284
290 287 283 286 285 285 286 285 284 284 281 275 273 281 286 289 291 291 292 292 293 293 293 293 291 289 290 292 293 295 297 297 294 294 293 293 293 291 290 289 289 286 285 283
291 288 280 283 285 286 285 285 285 281 278 279 278 284 288 291 291 291 292 293 293 293 293 292 290 289 289 290 292 294 295 295 294 293 291 291 290 290 288 289 287 285 284 283
292 287 277 281 284 283 283 285 286 285 283 280 278 284 288 289 291 291 292 292 292 292 292 290 289 288 288 289 291 292 294 294 293 291 289 288 288 288 288 288 286 284 284 282
296 290 285 283 283 285 282 283 287 288 282 285 282 288 291 288 290 291 292 293 293 293 292 290 289 288 287 288 289 291 292 293 291 289 289 287 287 287 287 286 285 284 283 282
294 287 289 289 289 285 285 284 285 286 288 284 288 288 292 294 292 295 295 294 293 294 291 291 291 290 287 287 288 290 291 291 290 289 288 288 287 286 286 285 284 284 282 282
292 287 288 286 289 289 285 285 286 287 288 288 289 288 296 295 294 291 293 293 294 293 293 293 292 290 289 288 288 289 290 290 289 289 288 288 285 284 285 284 283 282 281 281
290 287 286 284 287 285 283 287 288 289 289 288 285 291 295 294 295 296 295 292 295 295 296 296 294 292 291 290 289 288 289 289 286 287 287 286 284 283 283 283 282 281 280 280
289 288 287 284 284 278 288 292 293 291 292 293 292 293 295 296 299 298 296 295 295 294 294 295 296 294 292 290 288 288 287 287 285 286 285 284 283 283 282 281 281 281 280 280
294 290 284 282 283 286 284 287 288 287 289 294 294 295 297 297 292 296 297 295 298 296 294 294 293 292 292 290 287 285 284 284 284 284 284 283 283 281 281 280 281 281 280 280
291 293 286 284 281 278 286 292 292 290 285 295 294 294 295 293 288 294 291 289 289 289 288 288 287 287 288 286 284 283 282 281 281 282 282 282 282 281 280 281 280 281 281 280
284 285 283 283 282 285 287 283 290 283 285 282 291 294 294 292 295 289 286 287 286 286 285 284 283 283 283 283 282 281 280 280 280 280 280 280 281 280 280 280 280 280 279 279
282 282 282 284 281 279 284 285 286 288 283 282 284 287 287 289 288 286 285 285 284 284 284 282 281 280 280 281 280 279 279 279 278 278 278 278 279 280 281 280 280 280 280 279
282 285 284 286 285 288 290 290 293 288 285 284 285 286 284 284 284 284 284 283 282 282 281 280 279 279 278 277 278 278 277 277 277 276 276 278 279 280 281 280 280 279 280 279
284 288 283 283 285 288 290 293 294 286 285 284 285 284 283 284 284 283 283 282 281 278 279 279 280 280 280 280 280 280 281 281 282 281 280 280 280 280 281 281 281 281 281 281
283 282 284 285 285 285 289 287 289 284 284 283 284 284 283 284 283 282 281 279 279 281 281 282 280 278 276 277 277 279 282 285 284 282 281 282 282 281 281 280 282 282 282 284
282 284 282 282 283 286 286 285 286 285 284 284 283 280 280 283 283 281 279 279 280 279 279 277 274 273 270 270 269 269 273 281 281 278 279 279 279 279 278 277 275 281 281 283

GFSCGP_sfc_thetae_054.txt.gz
Theta_e
299 298 296 298 299 295 295 294 293 295 297 296 298 298 300 303 304 302 304 305 306 307 309 309 309 308 309 311 310 310 311 313 316 316 314 314 316 314 317 322 323 321 320 320
297 294 300 298 296 295 295 294 294 296 295 295 297 296 300 302 302 304 305 306 307 308 309 308 307 307 306 307 309 310 310 312 315 315 315 316 317 313 315 315 314 314 314 316
295 296 297 297 294 293 294 294 294 293 294 296 294 294 298 301 301 302 304 305 306 307 308 309 307 305 307 306 307 308 310 311 313 315 315 311 309 303 304 306 307 307 310 308
296 297 295 294 293 295 292 296 294 292 293 290 294 287 296 299 299 300 303 305 306 306 307 307 308 305 306 307 308 308 309 310 312 314 312 309 310 307 306 308 306 304 305 307
294 294 293 293 295 296 294 295 294 293 293 291 291 289 294 294 296 299 303 305 307 308 307 306 306 306 306 307 307 308 308 309 311 313 312 312 311 314 306 308 307 305 303 303
294 296 297 297 294 296 295 295 293 293 292 287 291 290 291 295 296 298 301 304 305 305 305 305 305 304 304 305 305 307 307 308 310 311 311 311 311 310 305 309 307 304 303 302
292 293 295 296 294 295 295 294 286 285 285 285 288 287 292 297 299 299 301 304 304 303 304 305 305 304 302 301 303 304 306 306 308 310 310 311 311 310 308 308 309 306 303 302
288 286 293 296 296 293 293 294 288 282 282 286 285 285 292 298 300 300 301 302 303 302 303 304 305 305 303 301 302 303 304 304 306 307 308 310 310 310 308 306 308 306 305 303
287 287 293 293 295 297 291 289 295 288 281 284 288 292 296 297 296 297 299 301 302 304 304 304 305 304 302 301 301 303 303 304 305 305 307 307 308 306 305 304 304 304 305 301
292 286 290 292 295 294 293 296 287 288 283 281 286 287 290 296 298 300 299 300 302 303 302 303 304 302 300 300 301 302 303 303 304 304 305 306 305 305 304 302 301 301 299 296
295 291 288 291 290 290 290 289 289 290 288 284 283 288 297 297 299 299 300 300 301 302 303 302 302 300 299 299 300 301 302 303 303 303 304 304 304 304 303 301 299 297 294 293
295 291 287 288 291 292 292 292 292 287 284 286 285 288 295 299 300 299 300 300 301 301 301 301 300 299 298 298 299 300 301 302 303 302 302 302 302 302 301 298 296 294 292 291
295 289 285 287 289 290 289 291 293 293 289 287 285 289 297 297 298 300 300 301 301 301 303 302 301 301 300 299 299 299 300 301 302 301 300 300 300 300 299 298 295 293 293 290
297 290 288 285 290 291 287 289 291 291 287 287 289 291 296 297 298 300 300 301 303 302 301 302 303 303 302 299 299 299 299 300 301 300 299 298 298 298 298 297 294 291 291 288
295 288 291 292 294 290 291 290 290 288 291 288 291 292 295 298 299 300 302 302 302 302 303 304 302 304 303 299 298 297 298 299 300 298 297 297 297 297 297 295 291 289 288 286
294 287 291 288 293 293 290 293 292 291 292 292 292 292 300 301 302 299 299 299 300 302 303 304 303 301 300 301 299 298 297 297 298 296 296 297 295 293 291 290 288 286 286 284
291 287 285 283 290 289 284 289 292 292 294 294 289 295 300 299 299 299 300 301 299 301 303 303 303 303 302 301 299 297 297 297 295 294 292 291 290 288 288 288 287 285 284 283
290 288 286 283 285 277 290 297 296 294 295 296 296 297 299 300 301 302 303 302 302 303 303 302 303 304 304 301 299 297 296 294 292 290 290 289 288 287 287 286 285 285 284 282
292 290 284 282 282 286 289 293 293 292 292 297 296 298 299 300 300 300 303 304 303 304 304 302 301 299 299 298 296 292 290 290 289 289 289 288 287 286 286 285 285 284 283 282
290 292 286 284 279 277 288 294 297 296 286 298 299 298 298 299 293 298 302 297 297 295 294 294 293 293 293 293 291 289 288 287 287 287 288 287 286 285 284 285 284 285 284 282
283 284 282 283 281 285 292 294 295 283 288 290 296 298 298 296 300 302 294 294 293 292 291 290 289 288 287 287 287 286 285 285 286 285 285 285 285 284 285 285 285 283 282 280
283 283 282 283 280 278 290 291 288 290 292 290 290 292 293 295 295 292 291 291 290 290 288 287 287 285 285 285 286 284 283 283 283 283 283 282 283 284 284 283 283 282 281 280
280 285 283 285 286 290 292 291 294 292 291 293 293 293 290 290 290 290 289 288 287 286 285 284 284 282 283 283 284 283 281 282 281 281 280 281 283 283 283 282 282 282 281 280
284 288 285 284 287 289 291 292 292 293 293 295 293 289 292 289 289 289 287 286 284 282 282 282 283 281 281 283 282 282 282 282 281 281 281 281 282 282 282 283 283 283 282 281
285 285 285 284 287 288 289 291 293 294 295 293 294 289 289 288 288 288 285 283 283 283 283 283 281 279 278 279 279 280 284 285 284 283 282 282 282 283 282 283 283 283 285 285
285 283 281 281 287 287 288 291 290 291 292 293 290 288 284 285 286 285 283 283 283 281 280 277 276 274 273 274 274 275 279 285 284 282 282 282 283 282 282 281 280 284 285 285

GFSCGP_sfc_thetae_057.txt.gz
Theta_e
302 297 295 298 300 300 297 297 295 298 300 298 298 299 301 305 305 305 306 306 307 309 312 313 313 313 317 319 319 321 321 320 321 319 318 318 318 322 326 329 331 332 332 331
298 295 300 301 300 298 297 295 295 299 299 296 298 297 301 303 304 305 306 306 307 309 310 313 313 312 312 315 317 316 315 316 316 318 319 318 318 320 320 321 322 327 325 325
295 297 300 298 296 295 296 295 295 295 297 299 297 295 299 303 305 305 306 307 308 309 309 311 313 312 312 311 314 314 314 315 315 317 318 317 317 317 315 315 316 317 318 318
297 299 297 296 295 297 292 299 297 295 294 290 296 288 296 300 301 304 305 306 307 309 310 310 311 313 312 312 313 314 314 314 315 317 316 315 313 310 312 314 314 310 312 312
295 296 295 294 295 298 295 298 296 295 294 293 293 290 294 300 298 301 304 307 308 310 311 310 310 311 312 313 314 313 313 313 314 315 315 315 312 312 316 315 311 310 308 308
297 299 299 298 297 298 298 297 296 296 294 287 292 291 292 296 299 301 304 306 307 308 308 308 309 310 310 313 313 313 311 311 312 313 314 314 312 312 314 312 311 307 305 303
295 295 298 299 295 297 297 294 287 286 286 285 291 290 293 298 301 302 302 304 307 307 306 308 308 308 307 308 308 309 309 309 311 312 313 314 313 313 314 312 311 307 304 303
290 287 295 298 297 294 294 294 288 282 284 287 289 286 293 301 303 304 304 305 306 307 307 307 308 309 308 306 306 307 306 307 309 310 311 313 312 312 313 312 313 310 308 306
290 289 297 297 298 298 293 290 297 290 286 285 289 293 298 300 299 301 302 303 304 306 308 308 309 309 308 306 305 306 306 306 308 308 309 311 311 312 312 311 313 313 313 311
294 288 293 294 296 297 295 297 288 289 284 282 286 289 291 297 299 300 301 303 305 306 306 305 307 306 306 305 305 306 306 306 307 308 308 308 309 311 311 311 310 310 309 308
296 292 289 292 291 291 291 290 291 291 289 284 283 288 298 298 300 300 302 303 304 305 305 305 305 304 304 303 304 304 305 305 305 306 307 307 308 309 309 308 308 307 307 304
296 293 288 289 295 295 295 293 292 287 285 288 287 288 298 300 301 302 302 303 305 305 305 305 305 305 304 303 304 304 304 304 305 306 305 305 306 307 306 306 306 306 303 300
295 289 286 287 291 292 290 293 293 293 291 288 285 287 299 301 300 302 302 304 304 305 305 306 307 306 306 305 304 303 303 304 305 305 304 304 304 304 305 305 305 303 300 295
297 290 288 286 290 293 289 291 293 291 287 287 289 291 296 299 300 302 303 303 304 305 306 306 306 307 308 307 305 304 303 304 304 304 303 302 302 303 303 304 302 300 297 292
295 286 290 292 294 293 292 292 292 290 291 287 291 292 296 299 300 302 304 304 304 304 304 305 306 307 308 308 306 303 303 303 303 302 301 301 301 302 302 300 299 297 294 292
295 287 291 287 293 294 290 293 293 293 292 292 293 293 300 302 303 303 303 303 303 303 304 305 306 306 306 307 306 304 302 302 302 301 300 300 298 297 296 296 293 290 289 288
290 287 285 283 289 288 284 289 293 294 296 295 290 296 301 300 300 301 303 304 303 304 304 305 305 306 306 307 306 304 303 301 298 297 294 293 293 292 292 291 289 288 287 286
289 288 286 283 285 278 290 296 296 294 296 297 297 298 299 300 302 303 305 304 304 304 305 306 307 307 308 306 303 302 298 296 294 292 290 290 290 289 289 288 287 287 287 284
293 289 283 280 280 285 288 292 292 292 292 298 297 299 301 302 302 302 305 305 305 306 306 306 302 300 300 300 298 294 292 292 292 290 290 290 289 287 287 286 286 286 285 284
290 291 285 282 278 276 287 294 297 296 285 297 295 296 298 300 294 298 304 303 301 300 298 296 295 295 296 294 293 290 289 289 289 289 289 289 288 286 285 286 285 285 285 283
283 283 280 280 279 283 291 293 296 283 287 291 293 293 294 292 298 299 300 299 297 295 293 292 292 291 289 289 288 287 287 286 286 286 286 285 286 285 285 285 285 284 282 281
282 282 281 282 279 276 292 292 288 290 292 292 293 293 293 294 295 295 296 294 294 293 293 290 290 288 287 286 287 285 283 284 284 284 283 283 283 284 284 283 283 282 281 280
279 284 282 285 285 291 294 293 295 294 291 291 292 293 294 294 293 294 295 292 290 288 288 286 286 284 284 284 285 283 282 283 282 281 280 282 283 283 283 283 281 282 281 280
285 289 283 283 286 289 293 295 295 294 292 295 295 294 295 293 293 292 293 294 290 285 284 283 284 282 281 282 282 282 282 282 281 281 281 282 282 282 283 283 283 283 282 281
284 285 283 283 286 288 289 291 293 293 294 295 296 296 295 294 293 292 291 288 286 284 284 284 283 281 279 281 280 282 283 283 282 282 282 282 283 283 283 283 284 283 284 285
284 282 281 280 286 285 287 291 292 292 293 294 293 292 293 288 288 289 288 286 285 283 282 280 279 278 277 278 278 279 281 283 283 282 283 283 282 282 281 281 281 286 286 286

GFSCGP_sfc_thetae_060.txt.gz
Theta_e
299 292 289 293 295 295 293 291 290 292 295 293 293 294 296 298 298 297 298 299 300 301 304 305 305 307 310 315 318 323 323 322 322 321 319 317 318 319 322 328 327 329 331 330
294 289 296 298 298 295 292 290 289 293 296 292 292 292 295 297 298 299 299 299 300 300 302 304 304 304 308 311 314 317 321 320 320 320 318 315 313 313 316 318 319 323 327 328
292 295 299 297 293 293 291 290 290 290 293 293 289 289 292 297 298 299 300 301 301 300 301 302 304 304 304 307 309 312 316 318 318 316 313 311 310 310 310 311 316 317 319 321
294 297 296 293 293 294 289 294 294 292 288 283 292 281 288 293 293 297 298 299 299 300 302 302 302 303 303 305 307 310 310 309 311 311 311 310 309 307 307 308 310 314 315 316
292 293 292 292 293 295 292 295 293 292 288 288 286 283 287 292 291 294 297 298 299 302 301 301 302 304 304 305 304 306 308 308 308 310 310 310 307 307 306 306 306 311 311 313
293 296 295 294 295 295 297 294 292 291 289 280 287 285 284 288 291 293 295 297 300 300 300 301 301 302 303 304 305 305 305 306 307 308 310 308 308 305 304 305 307 309 308 309
292 292 294 296 292 294 293 289 280 280 279 278 286 284 288 293 295 294 295 295 298 298 300 300 299 300 300 302 303 304 304 303 305 306 307 308 307 306 305 306 307 306 306 305
286 284 292 295 294 290 290 289 282 276 278 279 283 280 287 294 295 295 297 297 299 300 300 300 300 302 300 301 301 302 302 302 303 304 305 306 308 308 308 307 308 308 306 306
286 287 293 294 294 295 290 286 292 284 277 277 283 287 292 294 294 295 295 296 296 299 299 299 301 301 301 300 300 301 301 301 302 303 303 304 306 306 306 306 306 307 306 306
291 285 290 291 293 293 291 293 284 283 274 273 280 282 285 290 293 295 293 295 297 298 299 300 300 300 299 299 300 301 301 301 301 302 302 303 304 305 305 305 304 305 306 306
293 289 285 289 288 288 288 286 288 288 284 278 277 281 290 291 294 295 296 298 298 299 298 298 299 298 298 298 299 299 300 300 300 301 301 301 302 303 304 304 303 303 302 301
294 291 283 286 290 291 289 288 289 283 281 282 281 284 293 294 296 297 296 297 297 298 299 299 299 299 297 297 298 298 299 299 300 301 301 301 301 301 302 302 302 301 300 297
295 288 279 283 287 288 287 289 290 290 285 281 278 283 294 292 295 295 294 295 298 300 299 300 300 299 299 298 298 298 299 299 300 300 299 299 299 299 300 300 300 300 298 295
298 290 286 282 287 291 285 287 290 288 281 284 284 287 292 293 293 295 295 296 297 299 300 299 298 299 300 300 299 298 298 299 299 299 299 297 297 299 299 299 299 298 296 291
295 286 288 290 291 292 291 290 290 289 288 284 287 287 292 295 295 296 298 299 299 299 299 299 300 300 299 300 300 299 298 298 298 298 298 299 296 297 297 296 294 293 291 290
295 286 288 285 290 291 288 291 290 290 290 290 290 289 296 298 298 298 298 298 298 298 299 300 300 300 300 300 301 301 299 297 297 297 297 298 294 292 291 291 291 289 288 287
290 287 285 281 285 286 283 286 289 290 293 292 287 292 295 295 297 298 299 298 300 301 302 301 301 300 300 300 300 299 298 296 293 292 288 287 288 288 289 289 288 286 285 284
288 286 285 281 283 276 285 291 292 290 292 294 295 296 297 298 299 300 299 299 301 301 301 301 301 300 298 297 296 296 291 290 290 286 285 284 287 285 284 285 285 284 284 282
291 287 282 279 277 282 284 287 286 285 287 293 294 296 297 296 295 297 298 297 296 296 296 295 294 294 293 293 291 288 287 287 288 287 286 285 283 282 283 281 281 281 281 279
288 289 282 278 267 264 280 286 291 291 281 291 292 292 291 292 287 292 294 295 294 294 293 292 290 290 291 288 288 286 286 284 285 285 286 285 282 280 280 281 280 279 278 282
278 276 279 279 277 280 284 287 290 277 280 284 288 289 289 288 291 294 295 294 293 291 291 290 288 288 286 286 284 285 284 281 282 281 281 280 280 279 280 279 278 277 277 281
275 271 273 274 275 274 285 285 283 286 285 285 286 288 288 289 291 291 291 290 289 289 289 287 286 285 284 282 282 281 280 281 278 278 278 277 276 279 279 277 276 275 275 278
272 279 276 280 278 287 287 287 292 291 289 288 289 289 290 289 289 290 290 291 290 288 286 284 281 281 281 279 280 279 279 279 278 277 277 277 277 278 277 277 275 276 274 276
277 279 275 275 279 282 285 289 290 291 289 289 289 289 289 290 290 289 289 290 288 285 283 279 279 281 280 278 280 277 277 279 276 276 276 280 281 277 275 277 278 277 277 276
278 278 274 275 280 280 282 284 286 286 287 288 289 289 291 289 289 289 288 286 287 286 280 278 278 278 278 280 280 281 279 280 279 276 279 281 281 281 278 279 278 281 281 280
280 279 276 276 281 281 283 285 285 284 285 286 287 288 288 286 287 287 285 284 283 279 277 276 275 276 274 274 278 279 283 282 282 280 278 280 280 280 280 281 283 286 286 287

GFSCGP_sfc_thetae_063.txt.gz
Theta_e
294 289 286 289 290 290 289 287 285 289 293 291 290 290 293 296 294 294 295 295 296 298 300 300 302 305 311 314 319 322 325 325 326 326 325 320 322 319 320 322 323 328 330 328
289 286 292 293 293 292 290 287 285 290 293 290 289 290 292 294 296 295 296 294 295 296 298 300 300 301 306 313 317 321 323 323 325 326 326 325 317 314 318 319 320 322 327 328
288 291 294 294 291 290 288 287 286 287 290 289 287 286 288 293 294 295 296 297 297 297 298 298 299 299 303 307 313 318 321 322 324 322 315 310 311 309 311 312 318 317 319 326
291 295 294 291 290 291 286 291 291 290 286 281 288 279 285 291 292 292 294 295 296 296 297 298 299 299 299 306 310 314 317 318 320 316 316 314 316 313 315 314 312 313 314 316
290 290 290 289 291 292 289 292 290 289 286 284 284 281 284 288 289 292 294 294 294 297 297 298 298 300 300 301 304 306 308 310 316 315 314 313 312 307 304 305 307 307 308 311
291 294 293 292 293 293 294 292 291 289 286 278 284 283 280 285 289 289 293 294 297 298 297 298 299 300 301 300 301 303 305 305 306 309 307 309 309 304 303 302 304 304 305 306
289 289 292 294 290 293 291 286 278 277 277 277 282 281 284 289 293 292 293 293 298 298 297 298 300 298 299 300 300 301 302 303 304 304 305 306 307 306 305 304 305 303 304 304
284 281 290 293 291 289 289 286 279 275 276 277 282 280 286 292 293 294 295 294 295 296 296 297 297 298 298 298 300 301 301 301 302 303 304 305 305 306 307 304 306 307 307 306
283 284 291 292 293 293 288 285 289 282 272 276 280 284 290 292 293 294 293 294 295 296 298 297 298 298 298 298 299 299 300 301 301 301 302 303 305 305 306 304 304 307 306 305
288 283 289 290 292 291 290 291 283 282 273 272 277 279 283 288 291 292 294 295 296 296 297 297 298 298 298 298 298 299 299 299 300 300 301 302 304 305 306 304 304 303 305 303
290 287 284 287 286 286 287 285 286 286 282 277 274 279 287 289 291 293 294 296 296 297 296 297 297 297 297 297 298 298 298 299 299 299 300 300 301 302 303 304 304 302 301 303
292 288 280 284 287 288 287 287 287 281 279 280 280 283 292 293 294 295 295 296 295 296 297 297 297 297 296 296 296 297 297 298 298 299 299 299 299 300 300 301 301 300 301 299
293 286 276 281 285 287 285 287 288 287 283 280 276 283 290 291 293 294 295 296 297 297 298 298 297 297 297 296 296 297 297 298 298 298 298 298 298 298 299 300 299 299 298 297
297 288 283 279 285 289 284 287 289 287 280 282 282 286 290 292 292 292 294 294 296 297 298 297 297 297 296 297 297 297 297 297 297 297 297 297 297 298 299 298 298 297 296 295
295 286 288 288 290 291 290 289 289 286 286 282 285 285 290 292 294 296 294 296 296 297 297 297 298 298 298 298 298 298 297 297 297 296 296 297 296 296 296 294 293 293 292 293
293 284 288 285 289 289 287 290 289 289 289 287 287 287 294 295 296 295 295 295 296 296 297 298 299 299 299 299 298 298 298 297 296 295 295 296 293 291 291 290 290 290 289 288
290 287 285 281 285 285 282 285 288 289 291 290 286 291 295 294 294 294 296 297 296 295 296 296 296 297 297 296 296 295 295 293 291 290 288 287 288 288 289 289 288 288 287 285
289 286 285 279 281 275 283 288 290 289 290 292 293 294 295 296 294 295 295 294 294 294 294 295 294 293 293 293 292 291 288 287 287 286 286 286 285 284 283 283 285 286 284 283
289 287 278 270 269 278 283 285 285 283 283 288 287 290 292 290 291 291 294 294 293 294 294 293 293 291 291 290 288 286 286 286 286 286 286 286 284 281 281 280 280 281 279 278
287 288 282 267 271 267 280 285 287 287 279 287 288 287 287 288 283 286 292 292 292 293 292 291 291 289 289 288 286 284 285 283 284 284 285 285 281 278 278 280 278 278 277 279
279 281 278 277 273 273 282 283 288 275 277 282 285 287 286 286 288 290 292 292 291 290 291 290 289 288 287 285 283 283 283 283 281 280 280 279 279 277 278 276 276 275 278 281
277 276 276 278 275 273 284 284 281 284 284 285 285 287 286 287 288 288 289 288 289 289 288 288 287 286 285 282 281 282 281 281 277 276 276 275 274 278 276 276 272 273 277 280
271 277 272 277 276 283 286 285 289 290 288 286 287 287 288 287 287 288 288 289 289 288 288 286 284 284 283 277 278 279 279 277 276 275 277 276 275 276 275 276 275 274 275 279
276 276 274 275 277 278 283 287 290 291 289 287 287 286 286 287 287 287 287 287 288 286 284 281 279 280 280 276 277 276 276 275 275 279 279 280 279 276 273 276 275 275 274 277
277 277 273 272 277 278 280 282 285 286 287 286 286 287 286 286 287 286 285 284 285 284 282 278 278 278 277 275 274 274 276 275 275 279 280 280 280 276 275 278 280 280 279 279
278 278 274 272 279 279 281 284 284 283 283 283 283 283 285 285 285 284 283 284 283 283 280 276 274 273 271 270 271 277 276 276 277 278 280 280 280 279 279 282 283 287 287 286

GFSCGP_sfc_thetae_066.txt.gz
Theta_e
293 288 286 288 289 287 288 286 284 287 291 289 289 289 292 294 292 292 292 293 293 295 299 297 299 302 310 314 320 323 325 328 328 328 324 324 325 326 325 327 326 330 331 329
289 286 290 291 290 289 287 285 284 288 291 289 287 289 291 292 292 292 293 292 293 294 296 298 298 297 302 311 317 321 324 326 327 328 328 327 323 317 323 320 320 326 328 330
286 289 292 293 290 289 287 285 285 286 288 287 286 284 286 290 292 293 294 294 294 294 295 296 297 297 298 304 312 318 323 324 325 327 321 312 311 309 312 313 318 317 324 328
290 292 291 289 289 289 285 290 289 288 284 280 285 278 283 289 290 290 292 291 292 294 295 295 296 295 296 301 307 314 319 322 324 324 322 319 320 319 320 322 314 315 315 323
289 290 290 288 289 291 288 291 288 287 285 282 282 280 283 285 288 290 291 291 294 293 295 296 296 297 297 298 301 308 313 317 320 319 321 318 317 314 306 306 308 309 310 313
290 292 291 290 292 291 293 290 288 286 283 277 282 281 280 283 287 288 291 293 295 296 298 297 298 299 300 297 299 303 308 309 310 313 312 314 314 306 304 303 304 304 306 308
288 288 291 293 290 292 288 284 277 276 276 276 281 280 283 288 290 290 291 292 296 295 295 295 296 297 297 299 298 299 303 303 305 308 307 309 310 307 306 305 306 302 305 304
283 282 290 292 290 289 287 284 278 273 274 276 281 279 286 290 292 292 293 292 294 295 295 296 296 296 297 297 299 300 300 300 301 302 304 305 306 307 308 305 306 306 307 308
283 282 289 290 291 292 287 284 287 280 270 275 279 282 288 290 290 290 293 295 295 295 295 295 297 297 297 297 298 299 300 300 300 300 301 302 303 304 306 304 305 306 306 306
287 282 287 288 290 290 288 290 283 281 272 271 276 278 282 287 290 291 294 294 295 295 296 296 297 297 297 297 298 298 298 298 299 299 299 300 301 303 304 303 303 304 303 303
290 287 283 287 286 286 286 285 285 285 281 275 273 278 286 287 289 292 293 294 294 294 296 296 297 296 297 296 297 297 298 298 298 298 298 298 299 300 301 302 303 302 301 301
290 287 280 284 286 288 286 286 286 280 278 279 279 280 289 292 292 293 294 295 295 296 296 296 297 296 296 296 296 297 297 297 298 299 298 298 298 298 299 300 301 299 300 298
291 284 276 281 285 286 285 286 287 285 282 280 276 280 289 290 290 291 291 291 295 295 296 296 295 295 296 296 296 296 297 297 297 297 297 297 297 297 298 299 298 297 298 297
296 287 282 280 283 285 283 285 287 285 279 282 282 284 287 289 290 292 293 292 295 295 296 295 297 297 296 295 296 296 296 296 296 296 296 295 296 298 298 297 296 296 296 295
294 283 286 286 289 289 287 286 287 286 284 281 284 284 287 290 292 295 292 293 293 295 295 295 295 296 297 297 296 296 296 296 295 294 294 295 296 295 295 294 293 292 292 293
292 284 287 283 288 289 287 289 288 288 287 287 286 286 292 293 292 292 293 293 293 293 294 295 295 295 295 295 295 295 294 293 292 292 291 292 290 290 290 289 289 289 289 289
290 286 285 278 284 285 282 286 287 288 289 289 285 290 291 291 291 292 293 293 293 293 293 294 294 294 294 293 293 292 291 289 287 287 287 286 285 285 287 288 288 288 288 287
289 286 285 281 280 276 282 286 289 289 290 291 291 292 291 290 290 292 292 291 291 292 292 293 293 293 292 291 291 290 287 286 286 285 285 285 287 286 284 284 284 286 285 283
292 287 281 278 276 277 281 284 284 285 283 289 288 286 287 288 287 289 292 292 291 292 292 292 291 291 291 290 289 285 286 285 285 286 285 284 283 285 282 282 281 280 279 278
288 289 284 275 273 265 277 283 287 285 278 286 288 287 286 286 281 283 289 289 290 291 291 290 290 289 288 289 287 284 284 283 284 285 284 283 282 282 280 280 278 277 276 278
280 282 280 276 276 274 280 284 285 273 276 281 286 286 286 284 286 287 288 288 288 289 289 289 288 288 288 287 284 282 283 283 284 280 279 279 279 278 277 276 276 274 276 281
276 274 272 276 274 269 282 281 279 281 282 284 284 284 285 285 286 286 286 286 287 287 287 287 286 286 287 284 280 281 280 283 279 277 276 275 273 275 276 272 271 271 277 280
273 277 273 276 275 282 284 284 285 286 285 284 284 284 286 285 284 285 285 286 285 285 285 285 282 282 283 278 277 278 280 278 276 272 278 279 272 274 274 272 271 272 272 278
275 275 273 273 275 278 284 286 288 287 285 285 285 285 285 284 285 284 285 286 285 282 282 280 280 281 281 280 277 277 277 276 271 276 279 276 273 277 275 275 276 276 276 278
276 277 273 272 276 276 277 281 285 286 286 284 285 284 284 284 284 284 284 283 284 283 280 277 277 278 278 277 275 276 277 272 272 271 274 275 279 279 278 275 278 278 278 280
278 278 276 273 279 279 280 282 283 282 282 282 282 282 283 283 283 283 282 281 281 281 280 277 273 272 274 271 272 271 280 273 270 277 278 279 279 278 279 278 281 285 284 285

GFSCGP_sfc_thetae_069.txt.gz
Theta_e
292 288 285 288 287 284 285 284 284 286 290 288 287 288 291 293 290 291 291 292 292 293 297 296 297 300 309 313 317 320 324 326 328 328 326 325 326 325 325 327 328 331 330 326
289 285 290 290 289 288 286 284 284 287 290 288 287 288 290 292 291 292 292 292 291 291 293 296 296 295 300 309 316 319 322 324 326 328 329 329 328 326 324 321 323 328 330 330
286 288 291 291 288 287 284 284 284 284 287 286 284 283 284 288 289 291 292 292 292 293 293 293 294 295 294 298 308 316 320 323 326 327 322 313 312 310 312 313 318 320 327 329
288 291 290 289 288 288 284 289 288 287 283 280 283 277 282 286 288 289 290 289 290 291 292 293 293 294 294 295 301 310 316 321 323 325 321 320 322 321 321 322 315 316 319 324
287 290 289 287 288 290 287 290 288 286 283 282 281 279 282 283 286 288 289 291 294 294 295 296 296 296 295 295 297 306 312 317 318 321 322 320 319 318 313 310 311 312 312 320
288 291 289 289 290 289 291 288 286 285 282 277 281 279 279 282 284 289 290 293 294 293 293 294 295 296 297 296 298 303 309 311 313 315 315 317 317 312 306 305 306 307 308 310
287 287 290 292 289 290 287 283 277 275 275 275 279 279 282 285 287 287 289 291 292 293 294 295 295 295 296 297 297 300 304 304 309 311 311 313 314 310 309 308 308 303 305 304
283 282 289 291 289 288 285 284 278 273 273 275 280 278 284 289 289 289 290 292 293 294 294 294 295 296 296 296 298 298 300 301 302 305 306 306 307 308 310 307 307 306 307 307
282 282 289 290 290 291 286 282 285 279 268 274 278 281 287 288 287 291 293 294 293 294 294 295 296 296 297 297 297 298 299 299 299 300 301 301 302 303 305 304 303 305 303 303
287 281 286 288 290 289 287 289 282 279 271 269 275 277 280 285 288 290 292 292 293 293 294 295 295 296 296 296 296 297 297 297 298 298 298 299 300 301 302 302 301 302 302 301
287 286 283 287 285 285 286 284 284 284 280 274 271 277 284 285 290 290 290 293 294 293 294 295 295 295 295 295 296 296 296 297 297 297 297 297 297 298 299 299 301 301 300 300
289 286 280 283 286 287 286 285 285 280 277 278 278 279 288 291 291 292 292 293 293 296 296 295 295 295 296 296 295 295 295 296 296 297 297 297 297 297 297 297 299 299 299 298
290 283 277 281 284 285 284 285 286 284 282 279 276 279 288 288 289 290 291 292 294 295 293 294 295 295 295 295 295 295 295 295 295 295 295 296 296 296 296 297 297 297 297 296
294 285 283 281 282 285 283 284 285 285 279 281 281 282 285 287 288 290 290 290 291 292 294 294 294 294 294 295 295 295 295 295 294 294 294 294 294 295 295 295 295 295 295 294
292 282 285 285 288 287 285 285 286 283 285 281 284 283 286 289 290 291 291 292 293 293 293 293 293 293 293 293 293 293 293 293 291 291 291 291 292 292 292 291 290 290 289 291
292 283 286 284 287 287 284 287 287 285 285 286 285 286 292 293 291 292 292 293 292 291 292 292 293 293 293 293 293 292 291 290 289 289 288 288 286 286 286 287 287 287 288 288
290 286 282 281 285 286 282 285 286 286 288 288 285 289 290 289 290 291 290 290 290 290 291 291 291 292 292 291 291 291 291 288 286 285 286 285 285 285 286 285 285 286 287 286
288 286 284 279 282 276 282 285 290 288 289 291 290 290 290 290 290 290 290 289 289 290 290 291 291 291 291 290 290 289 287 286 286 286 284 282 284 283 283 284 284 284 285 283
292 287 281 278 278 279 281 283 285 285 284 290 290 286 286 287 287 287 290 290 290 289 291 291 290 289 289 289 289 286 286 285 285 285 285 284 282 282 282 281 281 281 279 278
289 290 284 276 276 270 278 283 285 284 277 285 286 285 285 285 281 283 290 287 288 289 289 289 288 288 288 289 287 284 285 283 284 284 284 282 281 281 283 282 280 278 275 278
282 283 281 273 273 275 280 283 283 273 276 280 286 286 285 283 285 286 286 286 286 286 287 287 286 286 287 286 284 283 282 282 283 281 280 278 278 277 278 277 275 273 273 276
281 279 277 277 274 272 282 282 279 281 283 283 284 284 284 284 284 284 284 285 285 285 286 285 284 284 285 283 280 280 280 282 279 278 277 276 278 275 277 269 271 269 270 272
273 277 274 277 278 282 282 282 284 285 284 283 284 284 284 283 282 282 283 284 284 285 284 284 281 281 282 278 277 278 280 278 278 276 276 279 280 274 272 269 270 270 268 270
275 275 273 274 274 279 283 286 286 286 285 285 284 284 284 282 282 282 283 283 283 281 280 278 277 278 278 279 276 276 276 276 273 273 275 279 279 274 270 272 272 275 275 278
276 277 271 271 275 276 278 281 284 283 282 282 283 282 282 281 281 281 281 281 281 280 278 276 276 277 277 277 277 274 274 279 278 274 274 276 275 272 272 275 275 275 276 280
278 277 275 273 279 279 280 283 283 281 283 283 282 281 281 281 281 281 281 280 279 278 276 277 275 274 276 274 274 274 269 272 277 277 278 279 279 274 275 279 279 284 284 284

GFSCGP_sfc_thetae_072.txt.gz
Theta_e
291 287 285 288 286 284 284 282 282 286 288 287 286 287 290 292 290 290 291 291 291 292 294 295 295 300 309 313 316 320 322 324 326 327 327 327 326 327 326 326 328 329 325 325
288 284 288 290 288 288 285 284 283 286 288 288 285 287 290 291 291 291 291 290 290 290 291 293 294 293 299 307 314 317 322 323 326 327 327 325 327 327 326 325 326 329 329 328
285 287 290 289 286 287 284 283 283 283 285 284 282 282 283 286 287 289 290 290 289 290 290 291 292 292 292 296 305 314 318 322 325 327 320 315 316 315 317 317 322 325 329 329
287 289 289 287 285 286 283 287 286 286 283 280 283 277 282 285 287 288 288 288 290 292 293 294 293 292 292 293 295 306 312 316 321 322 321 321 324 323 323 322 317 317 321 327
286 288 288 287 287 288 285 288 287 284 282 281 281 279 282 282 284 287 291 291 291 291 292 293 294 296 296 295 293 298 306 312 316 321 322 320 318 318 314 312 312 312 313 319
288 291 289 288 289 288 290 286 285 283 281 276 280 279 280 282 283 285 287 288 291 292 293 294 294 295 296 296 298 301 305 308 313 316 316 316 317 314 309 307 308 309 308 310
285 287 290 291 288 289 285 282 277 275 275 275 279 278 281 285 287 286 288 289 292 292 292 294 294 295 295 296 296 300 304 306 308 311 312 312 313 312 310 309 308 306 305 305
282 281 288 291 289 287 284 283 278 273 272 275 280 277 282 286 288 288 290 291 292 293 293 294 295 295 294 295 296 297 299 300 303 305 307 307 308 309 308 308 306 306 306 306
282 281 288 289 289 291 285 281 284 277 267 273 277 280 284 286 289 290 291 292 292 292 293 294 294 294 295 295 295 295 296 297 297 298 299 300 301 302 304 304 303 304 303 303
287 281 286 287 289 289 286 288 281 278 269 269 274 276 279 283 287 288 291 291 292 292 293 293 293 294 294 294 294 295 296 296 296 296 296 297 298 298 299 300 300 300 301 300
287 286 283 287 285 284 285 283 283 282 279 273 270 276 282 287 288 288 289 290 292 292 293 293 294 294 294 294 294 294 294 294 295 295 295 295 296 296 297 297 298 298 298 298
288 286 281 283 286 286 285 284 283 278 276 276 277 277 286 289 289 290 290 291 291 292 292 293 294 294 294 294 294 294 295 295 294 294 294 295 295 295 295 296 297 297 297 297
289 283 275 280 284 284 282 284 283 283 282 277 275 277 287 286 288 289 290 291 292 291 293 293 293 293 293 293 294 293 294 293 293 293 293 293 294 293 293 294 294 295 295 294
293 284 281 279 280 284 282 284 284 285 279 280 280 281 285 287 288 289 289 290 290 292 293 292 292 292 292 292 293 293 293 293 291 291 291 291 291 291 291 291 292 291 292 291
290 282 284 285 285 285 284 284 283 283 285 282 283 283 289 289 287 290 290 291 292 292 291 291 291 291 291 291 291 291 291 291 290 289 289 289 289 289 288 288 288 288 288 289
291 283 284 282 286 286 285 285 285 285 285 283 284 284 289 291 291 290 291 291 290 290 290 290 290 291 291 291 291 291 290 289 287 287 286 287 286 285 285 285 285 285 286 286
290 285 280 276 284 284 280 284 285 285 286 286 284 288 290 289 290 291 289 289 289 289 289 289 289 290 290 289 290 289 288 287 285 285 284 283 284 283 284 284 284 284 284 285
289 286 285 279 284 278 284 284 288 288 288 290 289 289 290 290 290 290 289 288 288 289 289 289 289 289 289 289 288 288 286 286 285 285 283 281 282 282 281 281 281 283 283 283
293 288 281 279 279 281 282 283 285 286 285 290 290 288 287 287 288 286 288 289 288 287 289 289 288 288 288 287 287 285 285 285 285 285 284 284 282 281 281 281 281 280 280 279
290 290 285 277 276 271 280 283 287 285 278 285 290 286 285 285 281 284 289 286 286 286 288 288 286 286 286 286 284 284 284 282 283 284 283 282 280 279 279 280 280 277 275 279
284 284 280 279 276 276 281 282 283 276 279 280 285 285 284 284 284 285 285 284 285 285 285 284 284 285 285 284 283 282 282 281 282 280 279 279 278 277 277 277 276 276 275 276
283 281 281 278 276 275 282 281 280 281 282 283 283 284 284 285 285 283 283 283 284 284 285 284 284 283 283 282 279 279 279 281 277 277 276 277 275 278 278 272 273 271 270 271
277 281 277 280 280 281 281 282 283 284 283 283 284 283 284 283 282 282 282 283 283 283 284 283 280 280 281 277 275 277 279 276 275 274 275 275 276 279 274 270 272 271 267 270
275 275 276 277 275 278 282 284 284 285 284 284 283 283 283 282 281 280 281 281 282 280 278 277 276 277 277 277 275 275 276 275 275 279 278 276 277 279 277 274 273 272 272 272
276 277 271 270 274 277 279 281 284 283 283 283 283 283 282 281 280 280 280 279 279 279 277 275 275 276 277 276 276 275 274 271 272 275 279 280 280 279 277 276 276 275 275 276
278 276 276 274 280 282 283 284 282 281 282 282 282 281 281 280 281 280 278 278 278 276 274 273 272 271 272 271 274 274 267 266 267 273 277 279 280 280 280 277 276 281 285 285

GFSCGP_sfc_thetae_075.txt.gz
Theta_e
290 288 286 288 286 285 284 283 283 285 289 289 287 288 290 292 292 293 293 293 293 293 296 297 297 300 311 317 320 323 324 327 328 328 327 326 325 327 328 328 329 327 326 323
288 285 289 289 287 286 285 284 284 287 289 288 286 288 290 291 291 292 293 293 292 292 293 294 295 296 299 309 317 320 323 325 327 329 329 329 329 329 329 327 327 329 328 325
285 287 290 288 286 286 283 284 284 285 286 285 283 284 285 287 288 289 290 290 291 291 292 295 295 296 296 297 307 316 321 324 326 328 327 320 322 321 322 323 326 327 329 329
286 288 288 286 285 286 283 287 286 286 283 280 284 279 284 286 287 289 291 292 292 293 294 294 296 298 298 297 296 307 315 319 324 326 325 325 325 324 326 326 326 326 326 329
285 286 287 285 286 287 284 288 286 284 283 282 282 280 284 283 284 288 290 291 292 293 294 295 295 297 298 299 299 298 307 314 319 324 326 324 325 325 321 320 320 320 319 324
287 290 289 288 288 288 289 286 284 284 282 277 281 279 280 283 284 287 288 291 293 294 294 295 296 297 298 299 302 305 307 311 316 320 320 321 321 319 316 315 316 316 316 316
285 286 289 290 287 289 285 283 278 277 276 276 279 279 282 285 286 287 289 292 292 293 294 295 295 296 296 297 299 303 307 309 313 316 317 317 318 317 316 316 315 313 313 312
282 281 288 290 288 286 284 283 279 274 273 276 280 278 283 286 289 288 292 291 293 293 294 294 295 295 295 296 297 298 299 300 303 307 309 310 312 313 314 313 313 312 311 312
282 281 288 288 289 290 285 281 284 277 267 274 278 281 285 288 289 290 291 292 292 292 293 293 294 294 294 295 295 296 297 297 298 299 300 300 301 303 304 305 306 307 307 306
287 281 286 287 289 288 285 287 281 278 270 270 274 276 279 286 288 289 290 291 292 293 293 294 294 294 294 294 295 296 296 296 296 297 297 297 298 299 300 300 301 301 302 303
287 285 283 286 285 284 284 283 282 282 280 274 271 276 282 286 289 289 290 291 292 292 293 294 294 294 295 295 295 295 295 295 295 295 296 296 297 297 298 298 298 299 299 299
288 286 281 283 286 286 284 284 284 279 276 275 276 278 286 289 289 290 290 291 291 292 292 293 294 294 294 294 294 294 294 294 293 294 294 294 294 295 295 295 296 296 297 297
289 284 278 282 285 285 283 283 283 282 282 277 276 278 287 287 288 290 290 290 291 292 292 292 292 292 293 293 293 293 293 292 292 292 292 293 292 292 292 292 293 293 293 293
293 284 282 280 281 284 282 283 283 284 280 279 279 281 284 287 288 290 291 290 291 292 292 291 291 291 291 292 292 292 292 292 291 291 291 291 291 290 290 291 291 291 291 291
290 282 282 283 283 283 283 283 283 283 285 281 282 283 287 289 288 290 291 291 291 290 290 290 290 290 290 291 291 291 291 291 290 289 289 289 289 289 288 288 288 288 288 289
289 280 284 281 285 285 283 284 285 286 283 282 281 283 289 292 289 290 291 291 290 289 289 290 290 290 290 290 290 290 290 289 288 287 287 287 286 286 286 286 286 286 286 287
287 283 278 274 283 284 278 284 284 285 285 286 283 287 290 288 290 289 290 290 289 289 289 289 289 289 289 289 289 289 289 288 286 286 285 284 284 283 284 284 284 284 285 285
287 285 283 280 281 275 284 284 288 288 288 288 288 289 291 290 290 291 290 288 288 289 289 289 289 289 289 288 288 287 286 286 285 284 283 282 283 282 282 281 282 282 283 283
292 288 282 280 281 281 282 283 285 286 286 290 289 288 288 287 287 286 288 288 288 289 289 289 288 288 287 287 286 285 285 284 284 284 283 283 281 280 280 279 280 281 281 281
291 290 287 280 278 277 282 284 288 287 280 287 291 288 286 287 284 285 287 286 287 287 288 288 287 286 286 285 284 284 283 282 283 283 282 281 280 278 278 280 279 279 278 279
284 284 282 281 277 278 281 283 285 280 281 281 287 287 286 285 286 286 286 286 286 286 287 286 285 285 284 284 283 282 281 281 281 279 279 279 278 277 277 278 277 277 276 277
283 282 279 280 278 278 282 281 282 283 282 283 284 284 284 283 283 283 284 284 284 284 284 285 285 284 283 281 279 278 279 280 277 276 276 276 275 276 278 278 275 274 273 274
279 284 282 284 283 282 281 282 283 285 284 284 284 284 285 283 282 282 282 283 283 283 283 283 280 279 281 276 276 276 278 277 276 273 276 279 279 275 279 279 276 276 273 274
276 276 280 282 279 279 283 284 284 285 285 284 283 283 283 282 282 281 281 281 281 279 278 276 275 274 275 275 275 273 275 276 272 272 274 276 278 281 282 281 278 276 276 276
277 277 272 272 276 277 279 281 284 284 283 282 282 282 282 282 280 280 280 279 278 278 276 274 273 272 273 273 272 270 273 272 271 271 273 275 278 279 280 281 281 278 278 278
277 277 277 277 281 283 284 284 283 282 282 282 282 281 281 281 280 280 278 278 276 273 272 270 268 268 269 269 269 268 266 268 267 270 272 273 275 276 277 278 279 282 283 284

GFSCGP_sfc_thetae_078.txt.gz
Theta_e
298 297 293 296 297 294 295 291 291 292 294 294 294 295 298 301 300 302 303 304 304 304 305 303 305 307 316 326 329 331 332 334 335 331 328 328 327 329 330 331 332 331 329 331
296 293 297 294 292 292 292 291 291 293 294 294 293 295 298 299 299 300 301 302 302 301 302 302 303 303 305 313 323 327 330 332 334 334 331 330 329 329 330 330 331 331 330 330
293 293 294 293 292 291 291 292 290 292 292 292 291 292 293 293 295 296 298 298 299 300 302 303 303 303 303 305 312 320 326 329 332 333 332 329 327 326 329 329 328 329 329 328
293 292 293 293 291 294 289 293 293 291 292 289 291 287 293 293 294 297 299 300 300 301 302 303 305 306 306 306 304 312 319 325 329 331 329 326 325 324 327 328 329 329 328 328
290 290 291 291 292 293 291 293 292 292 292 290 289 288 292 291 293 296 297 299 301 301 302 303 304 305 307 309 307 305 313 319 324 328 329 326 324 326 329 331 330 330 331 330
292 294 294 293 292 293 293 293 292 292 291 285 288 288 289 291 292 294 296 299 300 301 302 303 304 306 308 313 315 312 312 316 321 325 327 327 324 324 324 326 327 328 328 327
291 291 294 295 291 293 293 292 285 284 284 283 284 285 291 291 292 294 296 299 300 301 303 303 304 304 305 307 311 316 317 314 317 319 321 321 322 323 322 322 322 322 323 324
287 284 292 294 293 291 292 291 286 280 279 283 283 284 291 292 293 294 298 299 300 300 301 302 302 303 303 304 306 306 306 306 310 315 315 317 316 318 317 317 317 318 319 319
287 285 292 292 293 294 290 287 290 283 277 284 286 288 292 293 294 295 297 299 299 300 300 300 301 302 302 303 303 304 304 304 304 305 306 306 307 307 307 308 309 310 310 309
291 285 289 291 294 293 292 291 286 286 281 280 282 283 289 291 292 295 296 297 298 299 300 300 301 301 302 302 302 303 302 302 302 303 304 304 304 305 305 305 305 305 306 306
292 291 287 290 289 289 288 287 287 288 286 283 281 285 291 294 296 296 297 298 299 299 300 300 301 301 301 302 302 302 301 301 301 302 302 302 301 302 302 302 302 302 303 302
292 289 285 287 290 291 289 289 290 286 282 283 283 286 291 295 298 298 297 297 298 300 299 300 300 300 300 300 299 299 299 299 299 299 300 299 299 299 299 298 298 299 299 299
292 289 283 284 288 289 288 289 289 288 288 283 285 287 291 294 295 297 297 297 297 298 298 299 299 299 298 297 297 297 297 296 297 297 298 297 296 296 295 296 296 296 296 296
295 288 288 284 287 290 286 287 287 289 285 285 285 287 290 292 294 295 296 297 298 298 297 298 297 297 296 297 297 296 296 296 295 296 296 295 294 293 293 294 293 294 294 294
293 287 287 288 288 289 289 288 287 287 290 286 289 288 292 294 295 296 297 297 296 295 295 295 295 295 295 296 296 296 296 295 295 295 294 293 293 292 292 292 292 292 292 292
292 287 288 286 288 288 286 289 288 289 290 289 288 289 295 298 298 296 295 296 295 295 294 293 294 294 294 294 294 294 294 293 294 293 292 291 290 289 289 289 289 289 289 289
290 287 286 284 287 288 284 287 288 290 292 290 286 291 293 294 293 296 296 296 296 294 293 293 293 294 294 294 293 293 293 293 291 291 289 288 287 287 287 287 287 287 287 287
290 288 287 283 284 279 289 292 292 290 291 292 293 293 294 294 296 298 298 297 295 293 293 293 294 293 293 293 292 291 291 290 289 288 288 287 286 286 285 285 285 286 286 286
294 291 284 283 283 287 289 287 289 288 289 293 293 293 293 293 294 293 295 296 295 294 294 294 294 293 292 291 290 289 288 288 287 287 286 286 285 284 283 283 284 285 285 285
293 293 289 284 283 280 290 289 293 294 286 294 294 292 290 292 289 293 291 292 293 293 293 292 291 290 290 288 288 287 286 286 285 284 284 284 284 282 282 283 283 284 283 283
286 287 285 284 284 286 288 288 291 285 289 291 295 293 291 292 293 292 290 289 291 292 291 291 290 289 287 286 286 285 284 283 283 282 282 282 282 282 282 282 283 282 282 282
286 285 284 284 283 282 286 287 288 290 286 289 291 291 291 288 289 289 289 288 288 288 289 289 289 287 286 284 283 282 282 282 281 280 279 280 281 282 282 281 283 283 281 281
284 288 285 287 288 286 287 287 288 289 289 288 290 290 289 287 287 287 286 287 287 287 287 287 286 284 282 280 280 279 280 279 278 276 276 277 279 281 283 282 283 282 281 280
282 282 286 286 285 285 286 287 288 289 289 289 290 289 288 286 286 286 285 285 285 284 283 282 281 279 278 278 277 276 276 277 274 274 275 277 277 279 281 282 283 283 282 281
283 283 281 281 280 283 286 286 288 287 287 287 288 288 287 286 285 285 283 283 283 281 279 278 276 275 274 274 274 274 274 273 272 273 275 276 277 278 279 280 281 281 282 282
281 282 283 285 285 288 287 288 288 286 286 286 285 284 284 285 284 283 282 282 280 277 275 274 271 270 271 270 270 270 270 270 269 271 273 274 273 275 276 276 277 280 281 282

GFSCGP_sfc_thetae_081.txt.gz
Theta_e
301 297 293 296 299 300 298 296 294 296 296 296 297 297 299 301 301 302 304 305 306 307 309 308 309 312 323 329 330 332 333 335 337 331 330 329 329 331 332 332 333 332 331 330
297 294 298 300 296 296 296 294 294 295 296 296 296 295 299 300 301 302 304 305 305 305 305 305 306 307 309 317 326 329 331 333 335 336 331 330 330 330 331 332 332 332 332 330
294 296 298 296 294 294 294 293 293 293 295 296 294 293 297 298 298 299 300 302 302 303 304 306 306 306 308 308 314 323 328 331 333 335 333 330 328 329 328 328 329 330 331 330
296 295 295 295 294 295 290 295 295 294 293 289 294 288 295 297 296 298 301 302 303 304 305 306 307 308 309 309 309 314 322 327 330 333 332 328 326 325 327 328 329 329 330 330
292 292 293 293 295 296 293 296 296 295 294 292 291 289 294 294 294 297 300 302 304 305 305 306 307 308 311 312 308 309 316 322 327 330 331 327 325 325 327 327 327 328 328 328
293 296 296 296 295 296 296 295 295 295 293 285 291 290 292 293 295 297 299 302 303 304 305 305 307 310 313 316 311 310 314 317 322 325 327 327 324 324 324 323 323 324 326 326
292 291 295 296 292 296 296 292 286 284 284 283 287 287 292 294 297 298 299 301 302 304 305 305 306 307 310 314 317 317 317 317 321 322 323 323 323 323 321 320 320 318 319 320
287 284 292 296 295 291 293 292 287 280 282 285 285 284 291 296 296 297 301 302 302 302 303 304 304 305 306 307 309 311 313 316 318 317 318 317 319 319 318 318 318 317 317 316
288 287 294 294 295 296 292 289 293 285 281 285 287 290 295 295 294 297 299 301 301 302 302 303 304 305 305 306 306 307 306 306 307 308 308 308 309 309 309 309 310 309 310 307
293 286 292 292 295 294 293 294 286 288 282 282 285 287 290 291 293 296 298 300 301 301 302 302 303 304 304 304 305 305 305 305 305 305 305 305 305 306 306 306 305 305 305 305
294 292 288 291 290 290 289 288 290 290 289 286 282 286 293 295 295 296 298 300 300 301 302 303 303 303 304 304 304 304 304 303 303 303 303 303 302 302 302 301 301 301 302 301
294 291 286 288 292 293 293 291 291 287 283 285 286 288 293 296 298 300 299 300 301 302 302 302 303 303 302 302 301 301 300 300 300 301 300 299 299 299 299 298 298 299 298 299
294 290 283 284 289 290 289 291 293 292 291 284 285 287 293 297 299 300 299 300 300 301 301 301 302 301 300 299 299 298 298 298 299 299 298 297 297 296 296 296 296 296 296 297
296 291 289 284 287 291 287 290 290 290 286 287 287 290 291 295 297 299 299 299 300 300 300 301 300 299 298 298 297 297 297 297 298 297 296 295 295 294 294 294 294 294 294 294
295 288 290 291 290 292 290 290 290 288 290 287 290 289 294 295 297 299 300 300 299 299 299 299 298 297 297 296 297 297 296 296 296 295 294 293 293 292 292 292 292 292 292 292
294 289 291 287 289 289 289 291 291 290 290 290 291 291 297 299 300 299 299 299 298 298 297 297 297 296 296 296 295 296 295 294 295 292 291 290 290 290 290 289 289 289 289 289
290 288 287 284 289 288 284 287 290 290 292 292 288 293 296 297 298 298 298 298 298 298 297 296 295 295 295 295 295 294 293 293 292 290 289 288 288 288 288 287 287 287 287 288
290 289 287 284 286 278 289 295 294 292 293 294 294 296 296 298 299 300 302 299 299 298 296 296 296 295 294 294 293 292 292 291 290 289 289 287 287 286 286 285 285 286 286 286
295 291 286 284 283 287 290 290 290 289 290 295 294 296 296 298 299 298 301 301 300 298 296 296 296 294 293 292 291 290 289 289 288 287 286 286 285 284 284 282 284 285 285 284
293 294 289 284 283 279 289 293 296 295 285 296 296 295 295 295 290 295 298 299 297 296 296 294 293 292 291 290 289 288 286 286 284 283 283 284 284 282 282 283 283 284 284 283
286 287 285 285 285 288 290 291 296 284 288 293 296 296 294 292 296 296 295 295 295 294 292 291 291 290 288 287 286 285 284 282 282 282 281 281 282 281 282 282 283 283 283 283
287 285 285 286 284 281 289 290 289 292 289 291 294 295 294 292 291 292 292 291 290 289 290 289 287 286 286 284 283 282 281 281 280 279 278 278 278 280 281 281 282 282 283 282
285 290 288 289 289 288 292 289 291 292 291 291 293 293 291 289 289 289 288 289 289 289 288 289 286 283 282 280 280 279 278 278 277 274 273 275 277 278 280 280 280 282 283 282
285 285 288 289 287 287 289 289 290 291 292 292 293 291 291 289 289 288 287 287 286 285 284 283 282 280 279 278 277 276 276 275 271 272 274 276 276 278 279 281 281 281 281 281
285 286 286 286 283 285 287 288 290 289 290 290 291 291 289 289 287 286 285 284 284 283 281 280 279 278 276 275 274 273 273 272 271 272 273 275 277 277 276 277 278 278 279 280
284 285 286 287 288 288 289 290 290 288 289 289 287 286 287 287 286 285 284 284 282 279 277 276 274 273 272 271 270 270 268 268 267 270 272 273 272 273 274 274 275 278 279 280

GFSCGP_sfc_thetae_084.txt.gz
Theta_e
297 293 290 293 295 295 294 291 290 291 294 292 292 291 294 296 296 295 296 296 298 300 301 303 307 316 320 323 325 327 329 332 331 330 329 328 328 329 329 330 331 330 330 329
294 290 296 297 296 294 292 291 289 291 294 292 291 291 294 295 295 296 298 298 298 300 299 301 298 302 304 316 322 324 327 329 331 329 329 329 328 329 330 330 330 330 329 329
291 294 298 295 292 291 291 291 289 290 291 291 287 286 291 294 296 294 293 294 296 298 298 300 301 299 300 301 306 321 324 326 330 331 328 327 327 326 326 326 327 328 330 329
294 296 294 292 291 292 288 292 293 291 287 283 288 279 286 289 290 293 294 295 296 298 299 301 301 301 303 303 302 304 318 323 326 329 327 326 324 323 325 326 327 327 328 328
290 291 292 291 292 294 291 294 293 291 288 286 285 281 285 289 288 291 295 297 297 299 300 302 302 305 306 306 301 301 308 317 323 325 327 325 323 323 323 324 325 325 326 326
291 293 293 293 293 294 295 293 292 290 288 279 286 283 283 287 289 292 295 297 298 298 299 301 304 308 309 305 302 304 309 313 319 321 323 324 323 322 321 321 321 321 322 323
289 290 293 294 290 292 292 287 279 278 278 278 283 282 285 288 292 293 294 296 297 298 299 300 301 303 307 309 309 311 312 312 315 316 316 319 321 321 319 317 316 316 316 317
284 281 289 293 290 288 289 287 281 276 276 278 280 278 285 289 292 294 297 297 298 297 299 299 300 300 301 303 307 311 312 313 314 314 315 317 317 317 315 313 311 308 306 304
285 285 291 292 293 292 288 285 289 281 274 278 280 284 287 290 290 293 295 296 296 297 297 298 299 300 299 300 301 301 301 302 302 303 303 302 303 303 302 302 302 302 301 302
290 283 290 290 292 291 289 291 282 283 272 274 279 280 283 286 288 292 294 294 295 296 297 298 298 299 299 299 300 300 300 299 300 300 299 299 299 299 299 298 297 298 298 298
291 289 285 289 287 287 286 285 285 287 284 278 275 279 285 290 291 292 294 296 295 296 296 297 298 299 299 299 299 298 298 298 297 297 297 296 296 296 296 295 295 295 295 296
292 289 282 285 289 290 288 287 287 282 279 280 281 281 290 289 293 295 295 296 296 297 297 297 297 298 297 296 295 295 295 295 295 295 294 294 294 294 293 292 293 293 293 294
292 287 280 282 287 288 286 288 288 287 284 280 277 280 290 290 293 296 296 296 297 297 297 297 297 296 294 294 293 293 293 294 294 294 293 292 292 291 291 291 292 292 291 292
295 289 285 281 283 288 284 287 287 287 281 280 282 283 285 291 292 294 295 296 296 297 298 297 295 294 293 292 292 292 292 293 293 293 292 290 289 290 290 290 290 290 290 290
292 284 287 287 289 288 287 286 286 285 287 283 285 285 289 291 293 295 295 296 296 296 297 296 295 293 291 291 292 292 292 292 292 290 289 289 289 289 288 287 287 287 286 287
291 282 286 283 287 287 285 287 288 288 287 286 286 286 291 294 295 295 296 297 296 296 297 296 294 293 292 292 292 292 291 291 290 288 287 287 286 285 284 284 284 284 284 284
289 285 281 276 284 284 279 285 288 288 289 289 285 290 291 292 295 296 296 297 297 297 296 295 294 293 292 292 292 290 289 289 286 284 284 284 284 283 283 283 283 283 283 283
289 286 285 278 280 273 285 291 292 290 291 292 291 291 292 293 296 298 299 297 297 297 296 294 293 292 291 290 289 289 288 286 284 284 283 282 283 281 282 282 282 282 282 282
292 288 283 281 279 283 286 287 287 286 288 292 291 293 291 292 293 292 297 298 298 298 295 294 293 291 289 288 288 285 284 284 283 282 282 282 281 279 279 277 279 280 280 279
292 292 286 283 274 273 286 289 292 291 283 292 293 292 290 292 289 292 296 298 297 295 294 292 291 289 288 287 286 284 283 282 281 281 281 280 280 276 276 279 278 278 277 281
283 283 282 280 273 281 286 289 291 281 284 287 292 292 292 293 295 294 295 294 295 293 290 290 289 287 286 285 283 282 281 280 280 280 279 277 277 275 276 276 275 274 276 278
283 280 279 277 274 277 287 287 286 289 286 287 289 290 293 290 291 292 293 291 289 288 288 288 285 284 283 283 282 281 279 280 277 275 274 271 269 272 275 269 271 272 273 275
284 286 284 285 284 286 286 285 287 288 288 286 289 289 289 288 288 289 288 288 287 286 285 285 283 281 280 278 280 280 276 276 273 268 267 267 268 270 270 268 271 270 269 272
283 283 284 287 284 283 285 286 286 287 287 289 289 289 289 287 288 287 287 286 285 285 284 282 281 278 276 277 275 274 273 271 266 265 266 268 268 269 267 271 273 268 268 273
284 284 284 282 281 281 283 284 286 287 288 288 288 287 287 287 286 287 285 284 284 283 282 282 281 278 275 273 271 270 270 268 268 267 268 267 268 265 269 271 271 273 272 273
282 284 285 286 287 287 287 286 288 287 287 287 285 285 285 286 285 284 283 283 282 280 278 277 275 274 271 269 268 266 264 266 264 265 267 266 266 265 268 269 269 274 276 278

GFSCGP_sfc_thetae_087.txt.gz
Theta_e
298 292 288 289 290 291 291 289 289 288 293 291 289 289 292 294 293 293 291 292 296 300 304 308 314 318 319 321 324 328 327 328 328 329 328 328 328 329 329 330 330 330 329 329
292 288 293 295 293 292 290 289 286 290 292 291 289 290 292 293 293 294 295 293 295 295 296 299 301 305 315 319 321 325 328 328 328 328 329 329 328 328 329 329 329 330 329 329
289 292 296 294 292 290 289 288 286 287 290 290 287 285 290 293 293 293 294 294 295 296 296 296 299 297 298 301 310 320 325 329 329 328 325 327 327 326 325 325 327 328 329 328
291 296 294 292 291 290 286 291 291 289 286 283 286 280 285 289 291 292 293 293 294 297 297 298 297 298 299 301 301 302 316 325 329 328 326 326 324 322 324 325 326 327 328 328
290 291 292 290 291 291 288 292 290 289 287 284 283 280 283 288 287 289 290 293 294 296 299 300 302 304 304 305 300 299 306 317 325 328 328 326 324 322 323 324 325 325 325 325
290 293 293 293 292 293 293 291 290 288 285 278 282 281 280 284 289 288 291 293 296 297 298 301 304 307 305 301 299 299 309 314 319 326 327 325 322 322 321 320 320 320 321 321
288 289 291 293 290 291 291 286 278 278 277 277 280 279 283 287 290 291 294 294 295 297 298 299 302 304 305 304 305 308 310 310 313 316 321 322 321 320 318 317 316 315 313 308
283 281 289 292 291 287 287 285 278 275 275 276 280 279 285 288 290 294 295 295 295 295 297 298 298 299 301 305 306 307 309 309 311 312 311 316 316 314 309 309 306 304 301 300
283 284 290 291 291 291 286 284 287 280 271 276 278 281 287 288 290 292 293 294 294 295 295 296 297 297 297 298 300 302 303 302 302 302 304 304 303 302 299 299 299 298 298 298
288 282 289 289 291 289 288 290 282 280 272 272 276 277 281 284 287 291 292 292 293 294 295 295 296 296 296 297 297 298 298 298 298 298 299 298 297 296 296 295 294 294 295 295
291 288 285 288 286 285 285 282 283 285 280 276 273 278 285 288 288 290 292 293 294 294 294 295 295 296 296 296 296 296 296 296 296 296 295 294 293 293 293 293 292 293 293 293
291 287 282 284 288 289 286 285 285 280 278 280 278 280 288 287 289 292 293 294 294 295 295 295 295 295 294 294 293 293 294 294 294 294 293 292 292 291 291 290 291 291 290 291
292 285 279 282 285 287 285 286 286 286 281 279 277 279 288 288 289 293 293 294 295 295 294 295 294 292 292 292 292 292 293 292 292 292 291 290 290 290 289 289 289 289 289 289
295 288 284 280 282 286 283 285 286 285 279 279 279 281 285 288 290 291 293 294 294 295 295 295 293 293 292 292 291 291 291 292 291 290 289 288 288 288 287 287 287 287 287 287
291 284 286 286 287 287 286 286 285 285 286 283 284 284 287 289 291 293 294 294 294 295 295 295 293 292 291 291 291 291 291 291 290 288 287 287 286 286 286 285 284 284 284 285
290 283 285 283 286 287 284 287 287 286 284 284 283 284 289 290 292 292 294 295 295 295 295 295 293 292 291 291 291 291 290 288 287 286 286 285 284 283 283 283 283 283 283 283
288 283 280 277 283 284 280 284 286 287 286 288 283 289 289 288 293 294 294 296 296 296 296 295 293 292 292 291 291 289 288 286 284 283 283 283 283 282 282 282 282 282 281 281
288 285 282 276 278 273 284 290 290 289 289 290 289 289 291 291 295 297 298 297 297 297 297 296 293 292 291 290 289 288 286 284 283 283 282 282 282 281 281 281 280 280 280 280
292 287 281 278 274 282 284 287 286 285 287 290 291 292 290 291 292 293 298 299 299 299 298 296 294 292 290 289 288 285 284 283 283 282 281 281 281 279 278 276 277 279 278 278
291 290 286 279 279 275 287 288 290 290 283 291 292 292 289 291 287 291 295 298 298 299 297 293 291 289 288 287 286 284 283 282 281 281 280 280 279 275 275 277 275 277 276 278
282 282 282 278 276 279 286 287 291 281 285 288 291 292 290 291 295 295 294 294 296 295 292 290 289 288 287 286 284 283 281 280 280 279 278 277 276 274 275 274 274 273 271 273
283 281 281 279 276 278 286 286 286 289 286 288 289 289 291 292 290 290 292 292 291 289 289 289 288 286 285 284 284 281 280 279 277 275 274 272 271 274 274 267 269 267 266 266
281 284 282 285 285 286 285 285 286 288 288 286 288 289 289 289 288 288 287 288 288 288 287 287 285 282 282 280 282 279 277 276 274 273 272 272 270 270 268 265 266 269 265 265
282 281 283 285 282 283 284 285 286 287 287 287 288 288 288 288 287 286 286 286 285 284 283 282 282 280 277 276 277 276 275 274 273 272 272 271 270 268 265 270 270 265 264 265
284 282 282 281 281 281 284 284 285 286 287 286 286 287 287 287 286 286 285 284 283 282 281 281 280 278 275 274 273 273 272 273 271 270 271 269 268 266 267 268 267 269 270 269
283 285 286 282 285 285 286 285 286 285 286 286 285 284 284 285 285 284 283 284 283 281 281 280 278 276 273 271 269 269 269 270 270 269 268 267 266 265 266 265 265 271 274 275

GFSCGP_sfc_thetae_090.txt.gz
Theta_e
300 294 290 293 294 291 291 289 288 289 292 290 290 290 291 293 290 290 291 292 294 299 307 309 314 316 318 321 326 328 328 327 327 325 327 327 327 328 329 330 330 330 329 329
295 292 296 297 294 292 290 289 287 288 292 290 288 289 290 290 292 292 293 291 293 297 298 304 310 314 317 320 324 327 327 327 328 327 325 329 328 328 329 329 329 329 329 328
292 295 298 295 293 290 290 287 286 286 288 289 288 287 287 291 291 292 293 293 292 296 296 297 301 307 310 316 319 325 327 327 328 327 324 326 326 326 325 325 326 328 328 328
294 298 296 292 291 292 286 290 290 288 286 283 285 280 285 289 290 291 292 293 293 293 293 294 296 296 297 299 301 312 323 326 327 327 325 322 322 322 324 325 326 327 327 327
289 292 293 290 292 294 289 292 290 288 284 284 281 279 282 285 287 289 292 292 292 294 295 296 297 300 302 303 301 300 312 326 326 326 326 326 324 322 324 324 324 325 324 325
292 297 295 293 295 294 292 290 288 287 285 278 282 281 280 283 287 289 289 291 293 294 297 299 302 304 303 300 299 298 306 318 326 326 327 326 324 321 321 321 320 320 319 314
289 289 292 294 291 291 291 288 279 278 278 278 279 278 284 286 288 290 292 292 294 296 297 300 302 303 302 301 301 301 309 311 322 324 325 323 322 322 320 318 317 314 308 305
283 281 288 292 292 288 288 287 278 275 275 275 280 278 284 287 290 291 292 294 295 295 297 300 302 302 302 303 304 306 308 308 311 315 318 319 317 315 312 309 306 303 302 301
284 284 290 291 292 292 287 285 286 279 271 276 278 280 286 287 288 290 292 294 294 295 296 297 298 299 301 302 303 304 304 302 303 304 306 306 305 304 302 300 299 298 295 295
288 282 288 290 291 290 288 290 282 281 274 272 275 276 280 284 287 290 291 293 293 294 295 295 295 296 297 298 298 298 299 298 298 298 299 299 299 298 296 295 293 293 293 293
289 288 285 288 286 286 285 283 284 284 281 275 272 277 284 287 289 291 292 293 293 293 294 294 294 295 295 295 295 295 295 295 295 295 295 294 293 292 292 292 291 291 291 291
291 287 282 284 288 289 286 285 285 282 278 278 278 279 285 285 288 291 291 293 293 294 293 293 293 293 293 293 293 293 292 292 292 293 292 291 291 290 290 289 289 289 289 289
291 285 279 282 285 287 285 286 286 285 282 279 277 279 287 286 286 290 293 292 293 293 293 293 292 292 291 291 291 291 291 291 291 291 290 290 289 288 287 287 288 288 287 286
295 287 284 281 282 285 283 284 284 285 280 279 279 281 284 287 287 289 292 293 293 294 294 293 291 291 290 290 290 290 290 290 290 290 289 287 286 286 286 286 286 286 285 285
291 284 286 287 287 287 285 287 285 285 287 283 285 283 287 288 288 291 292 292 292 293 293 293 292 291 289 289 290 290 290 290 289 288 287 286 285 285 285 284 283 283 283 283
289 282 285 282 286 286 284 286 286 286 284 284 282 282 287 287 291 291 293 293 293 293 294 294 293 291 291 291 291 291 290 288 287 286 285 285 284 283 282 282 282 282 281 281
287 284 280 277 283 284 281 284 286 287 285 287 282 288 286 286 290 291 292 293 294 295 295 295 294 292 292 291 291 290 288 286 285 284 283 283 282 282 282 281 281 281 280 280
287 285 281 277 279 274 284 287 289 288 288 288 286 287 289 290 293 294 295 295 295 296 296 296 295 293 292 292 291 289 286 284 284 283 282 281 281 280 280 280 280 280 280 280
291 287 280 278 273 280 284 286 285 284 286 289 289 291 288 289 290 291 296 297 298 298 298 298 297 294 292 291 289 286 284 283 283 282 281 281 280 279 278 277 277 279 278 277
290 290 285 277 275 275 282 287 290 291 283 290 291 290 288 290 286 291 294 297 298 299 299 298 295 293 291 289 287 285 283 282 282 281 281 280 279 276 276 278 276 277 275 277
284 285 284 280 276 280 285 286 290 281 283 287 291 291 290 290 294 294 294 296 298 297 297 295 292 290 290 288 285 284 282 282 281 279 278 277 276 276 276 275 275 272 271 273
283 282 281 279 277 278 286 286 286 289 287 288 287 290 290 292 289 289 290 291 292 291 289 290 289 289 287 286 285 283 282 279 278 276 275 274 272 276 274 272 271 269 266 265
280 286 283 285 284 286 286 285 287 288 288 287 288 289 288 288 289 287 289 288 288 289 289 289 289 285 285 285 285 282 278 277 274 273 271 270 272 273 273 271 272 269 264 265
282 281 283 284 281 283 284 286 285 287 286 288 288 287 288 289 288 287 286 285 285 285 286 285 284 283 281 281 282 281 276 274 273 271 271 272 272 272 271 272 272 268 265 266
283 283 281 280 281 281 283 284 285 286 286 287 287 286 287 287 287 286 284 282 282 282 280 283 284 282 278 277 275 275 274 274 273 273 273 272 271 271 269 270 269 270 269 269
284 284 283 281 285 285 287 285 285 285 285 285 285 285 284 285 285 283 282 281 281 280 279 279 279 276 274 273 272 271 273 274 273 273 272 271 270 269 268 267 266 271 273 274

GFSCGP_sfc_thetae_096.txt.gz
Theta_e
301 297 294 297 301 299 297 295 293 289 293 290 289 291 294 291 292 301 305 307 309 312 316 317 317 319 321 323 324 325 324 325 324 321 324 326 326 327 327 327 327 327 326 325
296 294 300 300 300 295 293 292 292 290 291 290 289 289 292 289 291 298 303 304 306 306 307 312 313 314 317 321 324 325 325 325 326 326 325 327 327 327 329 328 328 328 327 327
294 297 300 298 296 292 292 291 291 288 290 289 287 288 288 289 289 291 292 296 300 305 305 306 308 312 315 317 321 324 326 326 327 327 323 324 326 326 325 325 326 327 328 327
296 300 297 296 294 296 290 295 292 289 288 286 286 283 287 288 290 289 292 290 293 292 295 301 303 306 311 315 318 323 325 326 327 327 325 324 324 322 322 325 326 326 327 327
292 296 295 293 294 296 293 294 291 290 286 284 287 280 285 283 287 289 290 290 292 292 293 295 298 304 307 311 316 321 324 325 326 325 326 324 320 319 322 324 324 324 322 323
292 297 298 297 297 297 295 292 291 289 287 280 285 282 284 286 285 289 292 293 293 291 291 290 293 297 299 301 305 313 320 323 324 324 325 324 322 321 321 321 321 318 314 311
290 292 294 298 293 294 292 289 281 280 279 279 282 280 287 288 287 291 295 295 293 292 290 290 293 296 299 299 299 301 312 321 323 324 324 324 323 323 322 321 319 312 308 306
285 283 290 296 294 290 289 290 282 276 276 278 280 279 286 288 288 288 288 289 289 289 291 292 295 297 299 299 299 298 299 311 323 324 324 323 323 323 321 320 317 312 307 303
283 284 292 293 295 294 288 286 288 280 274 277 280 282 286 286 287 288 289 289 289 290 293 295 297 299 300 300 300 299 298 302 315 323 324 323 321 317 313 309 307 304 301 298
287 281 288 290 294 294 291 293 285 282 275 273 276 277 285 285 286 287 288 290 291 290 293 295 297 299 299 300 300 300 300 302 308 316 320 316 313 308 306 304 300 298 296 294
288 285 282 288 288 288 288 287 286 286 280 275 272 277 283 288 289 289 290 292 292 291 293 294 296 298 298 298 298 299 300 304 305 306 306 305 303 302 301 298 296 295 293 291
290 285 279 282 286 290 290 287 287 284 278 278 278 278 284 285 285 287 289 290 290 291 293 294 294 294 295 295 296 298 298 301 301 301 301 299 298 297 295 294 293 292 290 288
289 283 278 282 286 286 287 287 291 288 283 281 277 280 285 285 286 288 289 291 292 292 292 292 292 292 293 294 294 297 296 295 296 297 296 295 294 294 293 291 289 288 286 285
294 284 282 279 280 285 281 288 286 288 282 282 281 281 288 290 287 288 288 291 292 292 293 292 291 292 291 292 292 292 293 294 294 295 294 293 292 291 290 288 286 285 284 284
290 281 283 284 285 285 284 285 286 284 286 282 286 284 285 288 289 289 288 291 291 292 292 293 292 290 290 290 290 290 290 292 292 292 291 290 288 288 287 285 284 283 283 282
287 280 284 280 283 284 283 285 287 286 286 286 286 284 286 287 290 289 290 291 291 292 293 293 291 291 292 292 290 290 288 288 291 290 288 287 286 284 284 283 283 282 282 281
287 282 280 275 282 284 280 284 286 287 286 288 284 288 287 287 288 290 291 291 292 293 293 292 292 292 293 291 291 289 288 286 285 286 285 284 284 283 283 282 282 281 280 280
284 283 278 276 281 276 283 287 290 288 290 292 290 287 289 289 291 291 292 293 293 293 293 294 294 294 293 291 290 289 287 285 284 284 283 282 283 282 281 280 280 280 279 279
290 285 278 279 273 279 283 284 284 283 286 289 288 289 290 287 288 289 293 294 295 295 296 296 296 295 293 291 290 288 285 284 284 283 283 282 282 281 280 279 279 279 279 277
288 289 285 279 269 270 280 287 288 288 281 290 290 290 290 288 285 290 295 294 295 296 296 296 295 294 292 291 290 287 285 284 284 284 283 282 282 281 280 279 279 278 277 277
278 279 282 280 272 275 283 285 287 279 281 285 289 291 289 288 292 291 291 291 293 294 294 294 295 294 293 291 288 287 286 285 286 283 281 280 279 279 279 278 277 276 276 274
280 280 279 274 269 275 285 284 284 287 286 287 287 288 288 289 289 289 290 290 291 291 292 293 293 293 291 289 288 287 286 286 282 281 280 279 278 278 278 276 274 274 273 273
280 283 280 284 283 287 285 285 286 287 288 288 289 289 289 287 287 287 289 289 289 289 290 290 290 287 286 287 289 287 286 281 281 280 279 277 276 276 276 274 273 273 274 274
281 280 281 283 282 284 285 285 285 287 287 287 288 287 288 288 288 288 288 287 287 284 282 281 283 283 282 284 286 287 281 281 281 279 276 276 275 273 273 275 275 274 274 274
281 283 278 277 280 281 283 284 286 286 287 287 287 286 287 287 287 287 286 284 284 281 280 280 281 280 279 280 279 279 280 281 279 277 275 275 274 274 273 274 274 274 274 275
282 282 282 280 285 285 285 285 285 285 286 287 287 287 286 285 285 285 282 281 280 280 279 278 277 278 276 277 277 277 279 281 278 275 275 274 273 273 273 272 271 276 276 277

GFSCGP_sfc_thetae_099.txt.gz
Theta_e
302 298 294 299 300 300 297 295 293 292 294 295 291 291 295 294 298 302 304 308 311 314 319 318 320 323 325 326 326 325 324 325 326 325 324 325 326 328 329 328 328 327 326 325
296 294 300 301 302 299 297 296 295 295 294 293 295 296 295 291 292 297 303 305 308 310 312 316 317 319 323 325 326 326 325 326 326 327 327 328 329 330 329 329 328 328 327 326
295 297 302 300 299 297 295 295 294 293 291 291 288 289 293 291 291 291 296 303 306 309 311 312 314 316 319 322 325 325 326 326 327 327 326 326 328 327 326 327 327 328 328 328
296 300 298 298 296 299 291 295 293 291 290 287 290 281 292 293 291 289 293 292 299 304 306 310 310 313 316 319 323 326 327 327 327 328 326 326 326 323 325 326 328 329 328 328
292 296 296 295 297 299 294 295 292 291 288 288 286 284 289 290 288 290 291 292 295 297 301 304 306 310 313 317 318 322 325 327 327 328 328 326 326 326 325 325 325 326 325 327
293 297 299 297 297 299 296 293 291 290 288 281 287 286 286 289 290 291 293 295 295 295 294 297 298 301 305 310 315 319 322 324 327 327 328 327 326 324 323 322 322 321 318 316
291 293 294 298 292 294 294 291 282 280 280 280 283 283 290 293 289 292 295 294 296 296 294 293 293 294 298 303 310 315 319 321 324 325 326 326 327 325 325 324 321 316 312 310
286 284 291 296 292 289 291 291 283 278 276 278 280 281 287 293 300 299 292 292 292 293 293 293 294 295 296 299 304 309 315 319 323 325 325 326 326 325 325 323 320 317 315 310
287 284 292 295 295 294 288 287 289 282 272 275 279 283 288 288 288 288 288 290 292 292 292 294 295 295 297 299 301 303 307 317 322 324 325 324 325 325 322 321 318 312 306 302
288 283 289 292 295 294 292 292 284 284 278 274 278 278 285 285 287 288 288 290 292 292 291 293 294 296 298 300 300 300 300 305 314 322 323 323 323 321 318 313 308 305 300 298
286 285 284 290 289 288 289 288 288 286 281 277 273 280 284 290 291 289 291 291 292 293 292 293 296 298 300 300 300 300 300 301 303 312 319 316 313 312 310 308 304 301 297 295
288 284 282 283 287 294 290 289 288 282 279 278 278 279 286 285 287 288 289 289 292 293 292 293 296 297 298 298 299 299 300 302 303 308 309 308 307 305 304 301 299 297 294 292
288 282 275 281 285 285 287 289 290 286 284 281 277 285 285 285 287 288 289 290 292 293 293 294 294 295 296 297 298 298 298 302 301 302 303 302 301 301 299 296 294 293 291 289
292 283 280 279 280 285 282 287 289 289 283 283 283 287 290 289 288 288 289 290 291 293 293 293 293 295 296 296 296 298 297 299 298 299 299 298 298 297 295 293 291 290 289 287
288 280 282 283 284 284 284 285 287 286 288 285 288 287 289 291 291 288 289 289 291 292 293 293 293 294 293 293 293 294 296 296 296 296 296 295 293 292 291 289 289 287 287 285
286 279 283 280 283 285 282 285 287 287 288 289 288 286 288 287 288 289 291 291 291 292 293 294 294 293 292 293 293 293 293 293 295 294 293 291 289 288 288 286 285 285 284 283
285 282 276 271 282 284 277 283 285 288 288 288 283 290 287 287 289 289 290 291 292 293 293 294 294 294 294 294 293 291 291 291 291 290 288 288 287 286 286 285 284 282 282 282
287 282 278 272 278 275 283 285 289 287 289 291 290 292 290 292 294 291 291 291 292 293 294 294 295 295 295 293 291 290 289 288 289 288 287 286 286 285 283 283 282 281 281 281
287 285 275 278 272 280 285 284 284 284 286 290 289 291 291 290 287 291 292 293 294 294 295 296 296 296 294 292 291 289 287 287 287 287 286 285 285 284 282 282 280 280 280 280
286 287 283 268 272 270 280 284 286 287 282 289 291 291 289 287 284 291 294 292 293 294 295 294 294 294 292 292 290 288 287 286 286 285 285 285 285 284 282 281 280 279 280 279
280 278 280 276 270 275 283 283 286 277 282 283 287 290 287 287 292 290 290 291 293 293 293 293 293 293 292 291 288 288 287 286 287 285 283 282 282 282 282 280 279 279 278 278
279 278 279 277 274 277 284 284 284 287 286 285 286 286 287 287 286 287 289 289 289 291 292 292 292 292 291 288 288 288 286 286 283 283 282 281 281 281 280 279 278 277 277 275
278 282 279 284 282 287 285 285 286 287 286 285 285 286 287 286 286 287 287 288 288 286 288 288 289 287 287 286 288 287 285 283 283 282 281 280 280 279 279 278 276 276 276 276
280 279 280 282 281 284 285 284 285 286 286 286 286 285 286 287 286 286 286 285 286 284 283 281 282 282 281 282 283 284 282 283 283 282 280 278 278 277 277 277 277 276 276 276
281 282 277 277 280 281 282 283 286 286 285 286 285 285 285 286 286 285 284 282 283 281 281 281 281 280 281 280 280 281 282 283 282 280 278 278 277 277 275 276 276 276 276 278
282 281 282 282 285 285 284 284 285 285 285 284 285 285 284 284 285 284 283 281 280 280 280 280 278 278 277 278 278 279 282 283 280 278 277 277 276 276 275 275 274 278 278 279

GFSCGP_sfc_thetae_102.txt.gz
Theta_e
304 298 296 299 301 302 303 300 298 301 300 301 301 302 302 306 303 303 307 311 316 319 323 327 329 329 331 332 329 327 325 327 327 327 327 328 328 330 331 334 334 332 330 327
299 296 303 303 302 302 300 299 299 298 297 300 302 300 306 308 308 305 304 307 312 317 320 324 326 329 330 331 330 330 328 326 328 328 330 331 331 332 333 334 333 331 330 328
296 299 304 303 300 298 299 298 299 297 296 296 291 295 301 305 309 309 304 305 310 314 317 320 323 326 329 330 330 331 331 329 329 329 331 332 333 333 331 332 330 331 329 329
298 303 301 300 300 300 292 299 298 293 293 290 295 288 300 302 304 305 302 302 306 311 316 318 321 323 326 329 332 331 332 332 331 331 330 330 329 327 329 331 331 331 331 330
296 298 299 297 299 303 295 298 296 294 291 290 291 286 297 302 299 303 306 305 304 307 312 316 318 322 325 328 330 332 332 332 333 332 331 331 330 331 332 331 329 329 331 333
296 299 302 301 303 303 297 294 293 291 289 283 291 290 294 299 299 302 305 304 303 304 306 312 317 320 322 325 327 328 330 331 332 332 332 331 330 331 331 329 326 326 328 326
293 296 296 301 295 297 296 293 284 282 283 285 288 291 295 302 305 304 304 305 304 304 304 305 309 313 316 319 323 325 327 328 331 332 332 332 332 332 331 330 327 323 320 318
288 286 293 297 297 292 292 293 287 281 283 287 286 286 294 300 304 305 301 302 304 304 304 304 305 306 310 313 317 320 323 325 329 330 331 332 332 332 332 331 331 327 324 320
288 287 294 297 297 297 290 289 292 286 279 283 288 291 295 297 297 295 299 304 302 301 301 301 302 303 304 305 310 316 319 322 326 328 330 330 331 331 331 331 332 327 323 312
294 286 290 293 296 295 295 296 287 288 282 281 288 286 290 295 297 297 296 297 301 304 300 299 300 301 302 304 305 309 316 320 324 327 328 328 328 328 329 329 326 321 314 308
296 291 285 291 290 289 290 289 290 290 289 284 283 289 296 295 297 296 297 296 297 299 300 300 300 301 302 304 305 306 309 313 320 324 326 326 325 325 325 323 320 317 306 305
292 290 284 285 290 296 295 292 292 288 284 286 285 288 293 292 292 293 295 296 297 297 299 300 301 302 303 304 305 306 306 308 312 320 322 321 321 318 315 314 311 306 304 301
292 287 281 282 286 289 290 293 294 293 289 285 285 289 291 293 294 294 295 297 297 297 299 299 300 301 302 304 305 305 306 306 307 309 317 314 312 311 311 308 304 302 299 298
295 288 287 284 287 289 286 290 292 292 286 288 289 292 297 298 296 295 295 298 300 298 298 300 300 300 302 304 305 305 306 308 307 308 310 311 310 310 306 304 301 298 295 294
294 286 287 287 289 289 290 290 290 289 292 288 291 292 296 299 300 302 299 297 297 298 298 299 299 300 301 303 304 305 306 305 306 306 305 306 304 303 301 297 297 294 292 292
291 285 288 284 288 289 287 290 292 292 292 292 293 292 300 299 297 296 296 295 296 298 299 299 300 299 299 301 302 302 303 302 303 304 304 303 297 293 293 291 290 288 288 287
289 287 286 282 286 287 283 287 290 291 293 294 289 295 299 297 297 299 300 298 296 298 299 299 300 300 300 300 301 300 302 301 300 300 294 292 292 291 290 288 286 287 286 286
289 286 286 281 282 278 289 290 294 292 293 295 295 296 298 298 299 301 302 301 300 298 299 300 301 301 301 301 300 300 298 296 296 295 292 290 290 288 286 286 287 284 284 284
294 290 282 281 283 286 288 287 289 288 289 295 294 296 297 298 299 297 300 300 300 302 301 301 303 302 302 300 299 297 293 293 292 292 291 290 289 286 285 284 283 283 283 282
292 293 289 280 281 278 286 289 292 294 285 295 295 295 296 296 289 295 301 298 298 299 299 299 301 300 299 299 298 294 292 292 291 290 289 289 288 287 285 284 283 283 283 283
285 286 284 282 283 284 290 290 292 285 289 292 292 295 295 293 296 295 296 295 295 296 297 298 298 298 298 297 293 292 292 291 291 289 287 287 287 286 286 284 282 283 282 282
284 284 284 283 282 280 290 288 288 293 291 293 292 292 292 293 293 292 293 292 293 292 293 296 297 296 295 293 291 290 290 290 287 286 286 285 286 285 284 283 282 282 281 280
284 289 286 288 288 293 291 293 292 292 293 292 293 292 292 292 291 291 291 291 291 290 290 290 290 291 291 289 290 289 289 287 285 285 285 285 285 284 284 282 281 281 281 280
286 287 289 288 288 290 290 290 291 292 291 291 292 291 292 291 291 290 290 289 288 287 285 286 287 288 287 287 287 288 286 286 285 285 284 283 282 282 282 282 281 281 280 280
288 288 285 287 286 287 288 289 291 290 291 290 290 289 289 291 289 289 287 285 285 284 284 285 285 285 284 285 286 286 285 285 285 285 283 282 283 282 281 281 281 281 282 282
286 286 289 289 289 291 288 290 290 290 288 289 289 287 286 286 286 286 283 283 282 282 282 283 282 282 282 282 283 283 284 285 284 282 281 282 281 281 280 279 278 280 280 281

GFSCGP_sfc_thetae_105.txt.gz
Theta_e
303 297 297 301 301 303 302 299 298 301 303 303 302 302 306 310 311 309 307 308 310 316 321 325 328 331 331 327 323 324 326 328 330 331 329 329 328 329 330 333 334 333 331 330
299 294 301 305 305 303 300 299 299 301 301 302 302 302 306 308 310 312 310 310 309 311 318 322 326 329 330 329 327 325 325 325 327 328 329 329 329 330 330 333 334 334 332 331
296 299 303 302 301 299 301 299 300 299 299 300 299 299 302 307 309 312 313 314 311 310 313 318 323 326 330 330 331 329 328 327 327 327 328 328 331 332 330 331 334 334 332 331
298 302 301 299 298 301 296 303 303 297 297 292 300 290 301 305 307 309 312 313 314 310 311 316 320 324 328 330 334 334 333 330 329 328 327 328 328 327 330 332 334 333 333 331
295 298 298 299 299 302 298 303 301 298 294 292 292 288 298 303 302 306 308 312 314 312 311 313 318 323 326 331 332 334 334 334 332 330 328 329 329 331 332 332 332 332 333 333
299 303 302 300 303 304 300 296 295 292 291 286 294 292 294 299 302 306 308 310 313 312 311 312 317 322 325 329 332 333 333 333 334 332 331 330 330 331 331 331 330 331 331 330
296 298 300 303 298 300 299 294 286 284 285 286 293 292 295 302 306 307 308 309 311 313 312 311 313 318 321 325 328 330 332 330 332 333 332 331 331 332 331 332 331 330 328 327
289 285 296 302 299 292 295 296 289 281 283 287 290 288 294 303 306 306 308 308 307 310 309 309 311 315 320 322 325 327 328 328 331 332 333 333 333 333 333 333 332 330 328 326
289 288 296 300 300 299 291 291 298 288 282 286 290 294 298 301 300 302 302 304 308 306 306 308 309 310 315 319 321 324 325 326 328 330 332 333 333 332 332 333 334 331 330 326
295 286 291 294 298 297 297 298 288 290 283 282 288 290 292 298 300 302 302 302 304 305 309 306 305 306 308 311 315 319 322 323 325 328 330 331 331 332 332 333 332 330 328 321
298 292 286 292 291 290 292 291 294 294 292 286 285 290 300 298 295 296 298 299 300 300 302 304 305 305 305 307 308 309 314 318 321 323 326 328 329 330 330 330 330 329 325 316
297 293 284 287 291 297 297 294 294 288 286 289 288 289 295 296 297 297 297 298 299 300 301 302 303 303 304 305 306 306 308 310 315 320 324 326 328 328 327 326 326 323 318 313
295 289 280 282 287 291 292 295 296 295 291 288 286 289 299 300 296 297 297 298 302 301 302 303 304 303 304 305 306 306 307 307 310 315 321 323 324 324 323 323 319 311 309 306
297 292 289 284 288 290 287 292 294 294 288 289 289 293 294 296 296 297 299 303 302 303 301 302 303 304 304 304 305 306 307 308 309 309 314 319 318 318 318 315 310 306 303 301
295 287 290 292 294 293 292 292 292 291 293 290 293 293 297 300 301 302 304 304 302 301 301 302 303 304 304 304 305 306 307 308 309 308 309 312 314 312 307 303 301 299 298 298
295 287 288 286 291 293 290 292 293 294 294 294 294 294 300 302 303 300 301 302 301 300 301 302 303 303 303 303 304 305 306 307 307 307 307 308 306 301 299 297 294 292 292 291
291 289 287 283 289 288 284 290 293 293 295 295 291 296 300 299 300 300 301 302 302 301 301 301 302 303 304 304 304 304 305 306 304 303 299 297 294 293 292 291 291 289 288 289
290 289 287 282 285 278 290 294 296 294 296 297 297 298 299 300 302 303 304 303 302 303 303 302 302 303 305 305 304 304 305 303 299 298 295 293 293 291 288 288 288 288 287 286
294 291 283 281 283 288 288 290 291 291 291 298 297 298 300 301 301 300 303 303 303 303 302 301 302 303 303 304 303 302 298 297 296 295 294 292 291 288 287 287 286 285 284 284
294 295 289 284 282 280 289 294 297 297 285 297 298 297 298 298 292 296 297 298 298 299 300 300 301 302 301 302 301 296 295 294 294 294 293 291 290 288 287 286 285 284 285 284
286 288 285 284 285 288 292 291 297 285 290 294 298 298 298 295 298 297 297 297 297 296 296 298 300 299 299 298 294 293 293 292 293 291 289 288 288 287 288 286 284 284 284 282
285 285 285 284 284 281 293 291 289 294 293 293 294 294 294 296 295 295 295 294 294 294 294 294 297 296 295 293 292 291 291 291 288 288 287 286 286 286 286 285 284 284 283 283
285 290 288 289 290 295 294 296 295 295 295 294 295 294 294 294 293 293 293 292 291 290 290 290 290 290 289 288 289 288 289 287 286 285 284 285 286 285 285 284 283 282 283 281
290 291 290 289 290 292 293 292 294 295 294 294 295 294 295 292 293 291 289 288 287 286 285 286 286 286 285 286 286 286 286 285 285 285 285 285 285 285 285 284 283 283 282 281
289 290 287 287 288 290 290 293 293 293 293 291 292 292 293 292 290 289 286 285 285 284 284 284 283 283 282 284 284 284 284 285 284 285 284 284 284 284 283 283 283 282 283 283
284 284 288 290 291 293 292 293 293 292 291 290 288 286 287 289 287 286 284 283 283 282 281 281 280 280 280 281 280 280 282 284 284 284 283 283 283 282 282 281 279 281 282 284

GFSCGP_sfc_thetae_108.txt.gz
Theta_e
304 298 294 297 301 301 299 297 296 298 303 300 298 300 302 305 305 304 303 302 302 307 316 322 323 325 327 320 318 324 326 327 328 327 325 322 323 324 323 324 326 328 328 326
299 293 299 302 303 301 300 298 296 299 299 299 299 299 303 304 305 307 308 307 303 304 310 317 321 323 326 322 317 319 326 327 328 328 328 325 325 325 325 325 327 329 327 326
295 297 301 300 299 298 299 296 296 296 297 298 295 295 299 304 306 307 309 309 309 305 305 312 319 322 325 324 320 319 321 324 326 327 327 324 323 322 323 324 326 329 328 326
298 301 299 298 296 301 295 302 301 297 295 290 296 288 296 302 302 305 307 308 310 310 305 308 316 320 323 325 326 322 321 322 323 324 323 322 321 320 323 325 327 328 329 327
295 296 296 295 296 301 296 303 300 298 294 292 292 289 292 300 299 303 307 309 310 311 309 305 311 319 323 325 327 327 324 323 323 323 323 322 321 324 325 327 326 329 328 328
298 301 300 299 300 302 300 296 295 293 292 286 292 290 291 295 299 301 304 307 307 311 312 308 307 315 320 324 326 327 327 326 325 323 323 322 322 323 325 325 326 327 327 327
295 296 299 302 297 299 298 294 285 284 284 285 292 290 293 298 301 301 302 304 306 307 311 309 304 308 316 320 324 326 327 327 328 326 324 323 324 325 326 326 326 325 325 325
287 285 296 300 299 293 295 294 284 279 279 281 285 284 291 302 304 303 303 303 304 301 305 306 305 306 311 318 321 325 326 327 328 329 327 326 326 327 328 328 328 327 326 326
289 288 298 299 301 299 294 291 295 285 277 280 285 289 295 297 297 298 298 298 300 302 301 300 302 304 309 313 318 322 324 326 327 328 329 328 328 327 328 329 329 329 327 325
293 285 293 295 299 299 296 297 287 286 277 276 283 284 287 291 294 296 296 296 297 298 298 299 299 300 302 309 314 316 320 322 324 326 328 328 329 329 329 328 328 328 327 323
296 291 286 293 291 290 292 291 291 291 287 281 278 283 293 293 290 292 293 294 293 293 294 296 297 298 299 300 303 308 313 317 319 321 324 326 327 328 328 328 328 328 325 322
297 292 284 288 290 294 295 293 292 286 283 285 283 283 290 291 291 293 293 295 294 293 295 296 297 298 297 297 298 299 301 307 312 315 318 320 323 323 325 326 327 324 324 318
296 288 281 282 288 291 291 293 295 293 288 284 281 284 292 291 291 293 293 294 296 296 294 297 297 297 297 298 299 299 300 301 302 306 311 315 317 319 321 322 320 316 312 311
298 290 287 283 286 290 288 291 293 293 284 285 286 287 289 292 292 292 293 294 297 297 297 296 297 297 298 298 299 299 300 301 302 303 305 309 311 314 317 318 314 310 307 306
295 286 289 289 292 291 290 291 291 291 292 287 289 290 293 293 293 295 297 298 297 297 296 296 297 297 298 298 299 300 301 301 302 302 302 304 308 312 311 309 306 303 301 303
295 285 287 284 291 291 289 292 292 293 293 292 292 290 296 297 296 295 296 298 298 298 299 298 297 297 298 298 298 300 301 301 302 301 301 302 303 301 301 298 296 295 294 294
291 285 284 282 288 288 284 289 291 292 294 294 289 294 295 295 296 295 295 297 297 297 297 297 297 298 297 298 299 298 300 300 299 297 294 294 292 292 293 293 292 291 291 290
291 286 285 281 284 277 286 295 296 293 294 296 296 296 296 297 297 297 298 297 298 299 298 298 297 296 297 299 299 299 299 298 294 292 291 290 290 289 287 288 289 288 288 288
295 289 282 280 280 283 285 287 292 291 291 297 296 298 298 298 295 295 296 295 295 295 296 296 296 297 297 297 297 295 292 291 291 290 290 288 288 285 287 286 286 286 286 285
294 293 286 283 278 276 285 290 294 294 284 295 297 296 297 296 289 290 293 294 294 294 294 294 296 296 295 294 294 290 290 289 289 289 289 288 286 286 287 286 285 283 284 284
284 285 283 282 275 281 286 289 295 281 284 289 296 297 295 292 293 292 293 292 292 292 291 293 294 293 292 290 288 288 288 288 288 287 285 283 283 284 286 285 283 284 284 283
284 283 283 280 273 276 288 288 287 289 286 287 291 290 292 291 291 291 290 289 288 287 287 289 290 288 288 285 287 286 285 285 281 281 280 279 280 282 285 285 284 283 283 283
281 286 284 284 282 289 291 289 289 291 289 290 290 290 291 290 289 289 288 287 285 285 285 285 284 283 283 282 283 283 282 281 279 278 276 277 278 285 285 285 283 282 283 282
284 285 283 282 284 286 287 288 289 291 290 291 291 291 291 289 288 286 285 285 283 282 281 280 280 279 279 280 281 279 280 278 278 277 277 277 277 277 281 283 283 283 282 282
283 285 281 282 282 283 284 286 289 289 289 289 289 289 289 289 287 285 283 282 281 280 280 279 278 278 277 278 277 277 279 279 281 276 276 276 277 277 277 280 282 281 282 283
276 275 280 279 282 285 287 289 289 287 287 285 285 284 284 285 283 282 280 280 279 278 277 276 275 275 274 274 273 273 275 277 276 276 275 275 275 275 275 275 274 283 283 285

GFSCGP_sfc_thetae_114.txt.gz
Theta_e
304 297 294 295 295 295 293 291 291 293 299 294 295 297 297 301 299 298 297 297 300 311 318 321 322 323 324 322 323 323 325 328 328 325 320 317 317 317 318 319 322 322 322 321
298 295 298 299 298 296 294 290 290 295 297 295 294 294 298 298 298 299 299 298 298 299 311 318 320 321 323 320 323 323 325 327 327 328 325 320 319 317 319 320 320 323 322 322
294 296 301 297 296 294 294 292 291 292 294 294 291 292 295 298 300 301 302 303 302 302 301 312 318 320 323 322 320 322 324 326 327 327 324 320 319 318 317 316 319 322 323 322
297 299 298 295 294 295 290 297 297 295 292 286 293 286 293 297 299 300 303 303 304 305 307 305 315 319 321 324 321 321 322 324 326 326 325 323 321 319 321 320 321 321 323 323
294 296 296 294 294 297 292 298 297 295 292 291 291 288 290 295 295 298 302 305 306 307 307 307 308 318 321 324 322 320 321 322 324 325 325 324 322 323 322 322 320 321 323 324
296 302 299 297 298 298 298 295 293 290 292 286 290 289 288 293 296 298 301 303 305 305 306 308 307 315 319 322 323 318 318 320 323 324 324 324 323 322 320 319 319 321 322 324
292 294 299 300 295 297 297 292 284 283 283 282 289 287 291 296 298 301 302 302 301 302 304 306 306 307 316 319 321 320 316 317 322 323 323 323 323 322 321 320 320 320 321 322
284 281 293 299 296 292 293 292 282 278 278 281 287 285 290 298 303 304 303 301 300 300 301 302 306 304 313 317 320 321 317 316 318 321 322 323 323 322 322 320 321 321 322 323
287 287 293 296 299 297 291 289 293 283 273 278 283 286 291 295 297 300 300 299 299 298 298 300 300 304 305 315 319 321 321 318 317 317 320 320 321 322 321 321 321 322 323 323
288 284 293 294 297 297 295 296 288 288 276 274 279 281 287 289 294 298 296 296 296 296 295 295 297 298 300 310 317 320 322 322 321 319 319 319 319 320 321 321 320 321 323 323
291 288 286 294 292 291 292 291 292 290 283 279 276 281 289 294 296 298 296 294 294 292 292 293 294 295 295 298 308 311 315 318 320 323 324 322 321 320 320 320 320 321 323 323
294 289 282 287 293 294 295 292 292 286 283 282 281 283 290 289 291 293 292 292 291 292 293 294 294 294 295 295 296 302 309 312 315 317 320 321 324 323 321 320 320 321 322 323
295 288 282 284 288 291 290 293 294 293 286 285 282 284 290 288 286 288 290 292 293 293 293 294 294 294 294 294 295 295 296 297 301 309 312 314 315 320 322 323 322 322 322 322
297 288 286 282 285 289 288 291 293 292 286 286 286 288 289 288 288 288 291 292 293 294 295 293 293 293 294 295 295 296 296 297 297 297 298 301 305 309 312 314 316 318 320 321
295 287 287 288 289 290 290 291 292 291 291 286 289 289 293 291 289 290 291 292 293 295 295 293 293 294 294 295 295 296 296 297 298 298 297 297 298 301 304 305 307 308 309 311
294 286 289 285 289 290 287 291 292 293 293 293 292 288 296 296 292 289 290 291 293 295 295 295 293 294 295 295 295 295 296 297 298 297 297 297 297 297 299 299 297 297 297 298
286 285 285 282 286 287 283 288 291 291 294 293 289 294 292 293 292 291 291 292 292 296 297 296 296 295 294 295 296 295 295 297 297 295 293 292 292 294 293 293 293 293 293 293
284 283 281 278 285 277 287 293 294 293 294 296 296 295 297 296 298 296 295 294 295 295 295 295 295 295 295 295 295 296 294 294 293 291 291 290 291 290 290 292 291 289 289 290
288 285 278 277 281 284 285 287 291 290 291 296 296 298 296 295 295 295 296 295 296 295 294 294 295 295 293 293 293 292 290 289 290 290 289 289 288 284 287 288 289 290 288 287
287 288 283 281 280 278 287 288 297 296 286 297 298 297 297 295 291 295 292 292 292 292 293 292 292 291 290 289 289 288 287 287 287 287 287 287 285 283 288 287 286 284 285 285
284 284 280 281 282 282 286 289 298 285 287 294 298 298 298 295 299 295 292 290 290 290 290 289 288 287 286 286 286 285 284 283 284 284 283 282 283 286 286 286 284 284 284 284
284 283 283 284 281 279 287 294 290 292 286 288 290 296 298 299 293 291 290 287 287 287 287 286 284 282 282 282 284 282 282 281 279 280 281 283 285 285 285 286 285 285 285 284
283 287 284 287 285 286 291 287 290 288 288 288 289 292 297 292 288 288 286 285 284 284 283 283 281 279 278 280 282 281 281 281 277 278 281 281 283 285 285 285 284 284 284 283
285 282 286 285 283 282 284 287 287 289 288 287 288 289 291 288 287 284 283 282 281 280 279 279 278 276 274 275 276 276 278 280 274 275 275 275 275 274 281 283 283 284 283 282
273 275 277 282 280 282 284 281 282 286 286 286 285 286 286 286 284 283 281 280 279 278 277 276 275 273 271 272 272 271 273 274 275 274 274 274 273 271 272 275 277 281 282 283
268 265 269 274 272 273 280 280 281 281 281 282 283 282 282 284 282 281 279 278 277 275 274 272 271 270 268 268 268 268 268 271 271 274 274 273 273 271 272 271 272 282 284 285

GFSCGP_sfc_thetae_117.txt.gz
Theta_e
302 297 294 295 293 293 291 290 290 291 298 293 293 296 300 301 298 299 298 297 302 311 317 319 320 321 321 321 321 323 323 327 327 321 317 317 318 317 317 319 320 320 320 319
298 294 298 298 297 294 292 288 288 293 297 293 293 293 296 298 298 299 300 299 298 298 306 314 319 319 320 321 322 322 323 326 328 327 323 321 319 317 319 318 317 320 320 320
294 296 301 297 294 293 292 291 289 290 294 292 290 291 295 296 298 299 299 302 302 301 301 303 315 319 320 321 321 322 323 324 327 329 324 319 317 316 314 314 317 319 321 321
295 297 298 295 294 295 289 295 295 293 291 285 290 283 290 294 297 298 301 302 301 301 302 303 308 317 320 321 323 323 323 324 326 328 325 323 320 316 318 318 318 318 320 321
291 294 295 293 293 296 292 296 295 294 290 289 288 287 288 293 294 296 300 302 303 304 304 305 303 314 319 322 323 323 323 323 325 326 327 324 323 323 320 318 316 317 318 321
294 301 298 295 296 297 297 293 292 290 289 283 288 287 287 291 293 296 299 302 304 305 305 306 308 308 315 320 323 323 321 321 324 324 325 324 323 322 320 318 318 318 319 320
293 294 299 299 294 295 296 290 284 283 282 279 286 285 290 293 295 297 299 301 303 302 304 304 305 304 308 315 320 322 319 319 321 322 323 324 323 323 322 320 319 319 318 319
286 283 293 298 296 292 293 292 284 277 278 280 284 283 288 296 301 302 301 302 300 300 301 302 304 306 306 313 319 321 319 318 319 321 321 322 323 323 323 323 322 320 321 321
283 284 292 294 297 296 291 289 292 284 272 276 282 286 291 293 294 298 300 301 300 301 302 301 302 302 304 310 316 319 320 317 318 320 321 321 322 322 322 322 322 322 321 321
287 285 290 291 295 296 294 296 287 287 278 274 279 280 285 288 292 296 299 298 298 298 298 298 298 299 300 305 313 317 320 318 317 318 321 321 322 322 323 322 320 320 321 320
292 287 283 293 291 290 292 290 291 290 284 278 276 281 288 292 294 295 297 297 296 296 295 295 295 295 295 299 308 313 316 318 317 316 317 319 319 320 321 321 320 320 320 320
292 288 279 284 293 296 295 292 292 286 281 283 280 284 290 291 290 291 294 294 293 291 291 291 293 294 294 294 301 308 311 313 315 318 317 316 316 316 316 317 318 318 318 318
293 286 280 278 284 291 291 293 293 292 288 284 279 285 291 286 287 289 290 290 291 292 292 292 292 292 293 294 294 295 298 305 307 311 313 315 316 317 319 318 317 316 317 319
296 285 282 278 279 285 286 290 292 291 286 286 286 288 291 290 287 288 289 290 291 293 294 292 291 292 293 294 295 295 296 296 297 297 300 305 307 309 311 314 317 318 319 319
294 285 286 287 287 287 289 287 289 288 290 286 289 289 293 294 292 291 290 290 291 293 294 293 292 293 293 293 294 295 295 296 297 297 296 296 296 298 299 301 302 303 306 310
293 283 287 284 288 288 286 289 290 290 290 289 290 290 297 294 293 289 290 290 291 292 294 294 292 292 293 294 294 294 294 295 297 297 297 297 296 295 298 298 297 297 297 298
286 285 282 276 285 284 282 286 288 289 292 293 288 293 295 294 294 294 290 290 291 292 295 295 294 293 293 293 294 294 295 295 296 294 292 291 291 293 293 293 293 292 293 293
281 279 275 271 276 272 283 290 292 289 291 294 295 296 298 298 299 296 298 294 292 291 294 294 294 294 294 294 293 294 292 292 292 290 290 290 290 289 290 291 291 291 291 290
287 282 272 268 265 279 281 285 287 287 288 294 293 295 297 298 293 294 297 295 294 294 294 294 294 293 292 291 291 290 288 288 288 288 288 288 287 286 288 288 290 289 287 286
286 286 279 266 265 268 282 288 293 293 284 295 295 295 296 294 291 297 293 294 293 294 293 292 291 290 289 288 288 287 286 285 285 286 286 286 285 286 287 287 286 285 285 284
281 281 277 276 271 276 284 288 294 283 286 290 297 297 297 295 299 297 293 291 291 291 290 289 287 285 284 285 285 284 284 283 284 284 284 284 285 286 286 285 284 285 285 285
280 279 278 279 276 274 287 289 288 292 287 287 291 298 297 299 299 292 291 288 288 287 286 285 283 282 283 284 284 283 282 282 280 282 283 284 285 285 285 286 285 285 285 285
279 284 282 283 281 285 287 283 285 285 286 288 288 290 294 295 290 288 286 285 284 284 283 283 281 279 279 280 283 281 281 281 278 282 281 282 284 285 285 285 285 284 284 284
284 277 282 283 281 278 280 282 281 282 284 286 287 287 289 288 287 284 283 283 282 281 280 279 279 277 275 276 276 277 278 277 276 276 276 275 276 280 282 283 283 284 283 283
273 272 272 281 278 277 281 277 277 279 282 281 284 283 285 285 283 283 281 280 280 278 278 277 276 274 273 273 272 271 274 275 276 275 274 274 273 272 273 274 278 280 281 283
266 263 266 272 268 267 271 275 275 276 278 278 280 281 281 283 281 280 278 278 277 275 274 273 271 271 269 269 268 268 269 271 272 273 273 273 272 271 271 271 271 282 285 286

GFSCGP_sfc_thetae_120.txt.gz
Theta_e
303 297 294 294 293 292 290 287 288 289 296 292 292 294 298 301 297 297 298 299 300 309 315 318 318 319 320 320 321 322 324 328 325 324 321 320 319 318 317 319 319 320 320 318
297 294 296 298 297 294 291 287 286 292 295 293 292 293 297 296 297 300 302 300 301 299 304 313 316 317 319 321 322 322 322 324 326 323 323 320 320 319 320 318 318 319 319 319
294 296 300 297 293 292 291 293 291 289 293 292 289 289 293 296 296 299 298 302 302 302 300 302 309 316 319 319 321 322 322 323 326 327 323 316 316 314 314 314 316 317 319 319
296 298 296 293 293 294 289 294 294 292 290 283 288 282 289 292 294 296 299 299 300 302 301 303 301 309 317 320 322 322 323 323 324 327 325 321 320 318 318 319 318 317 318 319
290 294 295 291 292 295 290 295 293 292 290 287 287 286 287 290 290 294 297 299 301 301 303 302 303 304 313 319 321 322 323 323 323 325 327 323 322 323 321 317 315 316 317 319
292 297 296 294 295 296 295 292 290 288 289 283 287 285 284 288 290 294 297 299 300 301 303 304 306 304 307 317 320 322 321 322 323 324 325 325 323 323 320 316 316 315 316 317
292 292 295 297 292 294 293 288 279 282 282 279 284 283 288 291 293 295 297 298 300 300 301 302 304 304 305 310 318 320 321 320 322 323 324 325 324 324 323 321 318 318 316 317
286 284 293 297 295 292 293 289 281 277 277 278 283 281 285 294 298 299 300 300 300 299 299 301 303 304 304 306 312 317 319 320 321 322 323 324 325 324 324 324 322 320 320 320
285 285 291 295 296 296 291 288 292 284 271 277 280 284 290 292 294 295 296 298 299 300 300 299 301 301 303 304 306 314 318 319 320 320 322 323 324 324 324 323 323 322 321 321
288 282 288 291 296 296 294 296 285 287 277 273 279 279 284 287 291 294 295 297 298 296 298 299 299 299 300 301 304 311 317 319 318 319 320 321 322 323 324 323 322 322 322 320
292 285 285 291 290 288 291 289 290 289 285 277 274 280 287 291 293 293 294 295 295 296 296 296 296 294 294 295 298 307 313 315 314 315 318 319 320 321 321 321 321 321 319 318
292 287 279 282 293 292 293 290 290 284 280 285 282 284 290 290 290 291 291 292 291 293 292 290 291 292 293 293 294 303 308 312 313 312 312 315 317 317 318 319 320 318 318 317
290 282 279 280 282 289 288 292 293 291 287 283 281 284 289 288 289 289 288 289 290 290 291 291 291 291 291 292 293 294 302 308 309 311 312 311 311 312 314 315 315 314 315 315
295 284 280 277 278 283 283 287 290 289 283 285 285 287 290 291 291 292 294 290 289 290 291 291 291 291 292 292 293 293 294 295 296 298 305 307 308 310 312 314 314 314 315 316
292 284 283 284 284 284 284 285 287 287 287 283 285 287 292 294 295 295 296 295 290 291 291 292 292 292 291 292 293 293 293 295 296 296 295 295 296 297 298 300 302 302 304 307
293 284 287 283 286 287 284 287 287 287 288 288 288 287 292 295 297 296 293 294 292 290 291 293 293 292 292 292 292 292 292 293 295 295 295 295 294 295 297 297 296 296 296 297
286 285 279 269 282 283 275 284 286 287 290 290 286 291 295 294 294 293 294 294 293 291 292 293 294 293 292 292 293 293 294 293 293 292 290 290 291 292 292 292 292 291 292 292
284 281 273 266 270 266 280 287 289 288 289 291 291 293 295 296 298 299 300 298 295 293 292 292 295 292 292 293 292 291 291 290 290 289 288 288 289 289 290 291 291 291 290 289
284 281 268 267 264 275 279 281 282 283 284 291 291 293 294 296 296 296 301 301 299 297 295 294 293 292 291 290 290 289 286 286 286 286 286 287 288 287 289 288 288 288 287 286
284 283 275 265 261 261 279 283 287 288 281 291 292 293 293 292 288 293 298 300 300 297 292 292 291 290 288 287 288 286 285 286 286 286 286 287 287 288 287 287 286 285 285 284
278 279 275 273 263 271 280 285 291 277 280 288 290 292 294 292 295 298 295 291 292 290 290 288 287 286 284 285 285 284 284 284 284 284 285 285 285 286 286 285 285 285 285 285
275 274 273 274 273 269 283 284 282 280 283 283 286 286 287 289 293 296 293 289 287 286 285 284 283 282 283 283 284 283 282 282 282 283 284 285 285 285 286 286 285 285 286 285
274 280 274 278 277 283 280 280 278 278 278 281 280 282 284 285 288 292 288 285 284 284 282 282 281 281 280 281 284 282 281 281 281 283 284 284 285 285 285 285 285 284 285 284
280 275 281 280 278 275 278 278 275 275 275 278 279 279 282 283 287 287 284 284 283 281 279 278 279 278 276 277 277 278 277 277 275 277 278 280 282 282 282 283 283 284 283 283
269 270 269 274 274 274 277 273 272 271 274 275 277 278 281 281 284 283 283 281 280 278 277 276 275 274 273 273 272 272 274 277 278 276 276 276 275 275 276 277 280 279 280 283
264 261 266 271 265 263 266 269 269 270 271 272 274 275 280 278 281 281 278 277 276 275 274 272 271 271 270 270 269 270 272 276 277 275 275 274 274 273 272 273 274 285 285 285

GFSCGP_sfc_thetae_123.txt.gz
Theta_e
303 297 294 295 293 293 291 290 289 291 296 294 292 293 297 299 299 298 300 301 301 303 310 316 319 321 322 323 324 326 327 328 327 327 324 324 323 323 322 323 324 323 324 323
297 294 296 297 297 296 292 290 288 292 295 294 293 293 298 297 299 300 301 301 302 304 304 308 316 319 320 322 323 324 326 328 327 328 327 325 325 325 325 324 322 323 323 323
294 296 299 296 293 292 292 293 292 292 294 293 290 289 293 296 297 299 300 303 304 304 304 305 305 315 319 321 322 323 324 325 328 328 326 320 320 318 320 320 320 321 322 323
296 299 296 294 293 294 291 295 295 293 292 286 290 283 290 293 295 296 298 299 300 303 303 304 305 304 315 319 322 323 324 325 326 328 324 323 322 320 321 322 322 321 321 322
291 293 294 293 294 295 293 295 294 293 290 289 288 287 289 291 291 294 297 298 300 302 304 303 304 305 306 315 320 322 323 324 325 326 327 324 323 324 325 323 320 321 320 322
293 297 296 294 295 296 295 292 291 290 290 284 286 286 284 288 290 293 297 298 299 301 303 304 306 305 305 308 317 320 321 322 324 324 326 326 324 324 323 321 319 319 320 320
292 292 294 296 292 293 294 291 283 281 281 280 284 284 288 291 292 295 297 298 300 300 300 302 303 303 305 305 313 317 320 320 323 323 324 325 326 325 324 322 320 319 318 318
285 284 292 296 292 289 291 290 282 274 275 278 283 281 285 293 297 297 296 298 298 298 299 300 302 304 305 306 307 315 318 319 321 322 323 325 326 326 325 325 323 321 320 320
284 282 291 294 295 294 289 286 291 283 272 277 282 284 290 291 292 294 295 297 298 298 300 300 301 302 304 304 306 310 315 318 320 321 322 323 325 326 325 326 326 324 323 323
287 282 288 290 294 295 293 294 286 286 277 274 278 279 284 288 292 294 294 295 296 297 297 298 299 300 301 303 304 306 311 314 318 321 321 322 323 325 326 326 324 325 324 322
291 285 287 290 288 286 289 289 289 289 285 277 273 280 286 290 292 291 292 294 293 293 294 293 293 294 295 295 297 301 307 313 316 318 319 320 321 323 324 324 324 323 323 321
292 286 280 285 289 291 291 289 290 284 281 285 283 283 290 290 289 291 290 291 291 291 291 291 292 292 293 294 294 298 303 309 313 315 316 318 319 320 320 321 322 320 320 320
291 285 277 278 281 287 288 290 291 290 287 282 279 281 287 289 290 291 291 295 294 291 292 292 292 292 292 292 293 294 299 306 309 312 311 312 314 316 318 319 320 319 319 318
294 284 279 277 277 283 283 285 290 290 284 283 283 285 288 291 293 296 297 299 299 298 291 292 293 293 292 293 293 294 295 296 297 303 308 309 309 311 313 314 314 314 315 316
289 280 282 283 283 284 284 284 286 286 287 281 285 283 287 289 292 293 294 294 296 297 294 294 293 293 293 293 294 294 294 295 296 296 296 296 296 298 300 302 303 303 304 306
291 283 284 280 284 286 282 284 285 286 287 286 287 286 291 290 292 292 293 295 295 296 295 293 292 293 293 293 293 293 293 294 296 296 295 295 295 297 299 298 298 297 298 298
288 284 282 278 282 282 276 282 283 284 287 287 283 288 292 291 293 295 296 297 296 296 297 294 295 294 294 292 292 293 294 294 294 292 290 291 292 292 293 293 292 292 293 293
286 283 280 275 272 268 280 284 286 285 287 289 290 291 292 293 295 296 297 296 297 298 299 299 295 294 294 292 293 292 292 292 291 290 289 289 291 290 291 291 291 290 290 290
286 281 272 269 262 273 278 280 283 283 282 288 288 290 291 292 292 292 296 297 298 299 301 302 301 294 292 292 292 290 288 288 288 288 288 288 289 288 289 289 290 289 289 288
283 282 275 263 261 262 275 281 284 284 278 286 286 286 287 289 286 289 291 293 296 298 299 300 294 291 292 290 289 287 286 287 287 287 287 288 288 288 289 288 287 285 286 285
275 272 268 260 260 270 279 281 288 275 277 280 282 282 281 282 286 285 288 289 292 293 291 289 289 289 288 287 286 286 286 286 286 286 286 286 286 287 287 286 286 286 286 286
274 270 265 263 261 267 280 281 278 277 278 279 278 279 278 279 280 282 285 286 290 289 286 285 284 284 284 284 285 284 284 284 283 284 285 285 286 286 286 286 285 286 286 286
273 277 273 275 275 280 279 279 274 273 273 274 273 276 276 276 278 280 281 285 287 284 283 283 283 282 281 283 285 283 282 282 283 285 285 285 285 285 285 286 285 285 285 285
278 276 279 277 277 276 276 274 271 271 271 271 273 272 274 274 277 279 281 284 284 281 280 280 280 279 277 277 278 278 279 281 284 283 283 283 283 283 284 284 285 285 284 284
268 270 267 274 274 274 272 270 268 269 270 270 270 271 272 274 275 277 280 281 280 278 276 276 276 275 273 274 273 274 277 279 279 279 279 280 281 281 281 281 283 282 283 284
263 260 267 269 262 261 266 266 266 266 267 268 268 269 272 274 273 275 277 276 275 274 274 273 272 271 271 271 270 270 273 276 277 276 277 277 277 277 279 282 283 286 285 285